[[{"header":{"parameterUnit":"m.s-1","parameterCategory":1,"la1":30.6,"la2":29.2853,"lo1":-89.7004,"lo2":-87.6739,"dy":0.0162,"dx":0.0183,"nx":112,"ny":82,"refTime":"2023-06-05T00:00:00:Z","depth":0,"parameterNumber":2,"parameterNumberName":"U-component_of_WINDS"},"data":[0.0,0.0,0.0,0.0,0.0,0.0,0.0,0.0,0.0,0.0,0.0,0.0,0.0,0.0,0.0,0.0,0.0,0.0,0.0,0.0,0.0,0.0,0.0,0.0,0.0,0.0,0.0,0.0,0.0,0.0,0.0,0.0,0.0,0.0,0.0,0.0,0.0,0.0,0.0,0.0,0.0,0.0,0.0,0.0,0.0,0.0,0.0,0.0,0.0,0.0,0.0,0.0,0.0,0.0,0.0,0.0,0.0,0.0,0.0,0.0,0.0,0.0,0.0,0.0,0.0,0.0,0.0,0.0,0.0,0.0,0.0,0.0,0.0,0.0,0.0,0.0,0.0,0.0,0.0,0.0,0.0,0.0,0.0,0.0,0.0,0.0,0.0,0.0,0.0,0.0,0.0,3.0898,3.2538,3.3138,3.2264,3.2205,3.1033,2.8275,0.0,0.0,0.0,0.0,0.0,0.0,0.0,0.0,0.0,0.0,0.0,0.0,0.0,0.0,0.0,0.0,0.0,0.0,0.0,0.0,0.0,0.0,0.0,0.0,0.0,0.0,0.0,0.0,0.0,0.0,0.0,0.0,0.0,0.0,0.0,0.0,0.0,0.0,0.0,0.0,0.0,0.0,0.0,0.0,0.0,0.0,0.0,0.0,0.0,0.0,0.0,0.0,0.0,0.0,0.0,0.0,0.0,0.0,0.0,0.0,0.0,0.0,0.0,0.0,0.0,0.0,0.0,0.0,0.0,0.0,0.0,0.0,0.0,0.0,0.0,0.0,0.0,0.0,0.0,0.0,0.0,0.0,0.0,0.0,0.0,0.0,0.0,0.0,0.0,0.0,0.0,0.0,0.0,0.0,0.0,0.0,0.0,0.0,0.0,0.0,0.0,0.0,0.0,0.0,2.9406,3.2565,3.3743,3.3992,3.3177,3.3099,3.1681,2.8314,0.0,0.0,0.0,0.0,0.0,0.0,0.0,0.0,0.0,0.0,0.0,0.0,0.0,0.0,0.0,0.0,0.0,0.0,0.0,0.0,0.0,0.0,0.0,0.0,0.0,0.0,0.0,0.0,0.0,0.0,0.0,0.0,0.0,0.0,0.0,0.0,0.0,0.0,0.0,0.0,0.0,0.0,0.0,0.0,0.0,0.0,0.0,0.0,0.0,0.0,0.0,0.0,0.0,0.0,0.0,0.0,0.0,0.0,0.0,0.0,0.0,0.0,0.0,0.0,0.0,0.0,0.0,0.0,0.0,0.0,0.0,0.0,0.0,0.0,0.0,0.0,0.0,0.0,0.0,0.0,0.0,0.0,0.0,0.0,0.0,0.0,0.0,0.0,0.0,0.0,0.0,0.0,0.0,0.0,0.0,0.0,0.0,0.0,0.0,0.0,0.0,0.0,0.0,2.983,3.1565,3.3142,3.4435,3.4692,3.341,3.3293,3.1817,2.8314,2.7757,0.0,0.0,0.0,0.0,0.0,0.0,0.0,0.0,0.0,0.0,0.0,0.0,0.0,0.0,0.0,0.0,0.0,0.0,0.0,0.0,0.0,0.0,0.0,0.0,0.0,0.0,0.0,0.0,0.0,0.0,0.0,0.0,0.0,0.0,0.0,0.0,0.0,0.0,0.0,0.0,0.0,0.0,0.0,0.0,0.0,0.0,0.0,0.0,0.0,0.0,0.0,0.0,0.0,0.0,0.0,0.0,0.0,0.0,0.0,0.0,0.0,0.0,0.0,0.0,0.0,0.0,0.0,0.0,0.0,0.0,0.0,0.0,0.0,0.0,0.0,0.0,0.0,0.0,0.0,0.0,0.0,0.0,0.0,0.0,0.0,0.0,0.0,0.0,0.0,0.0,0.0,0.0,0.0,0.0,0.0,0.0,0.0,0.0,0.0,0.0,0.0,0.0,3.1189,3.3297,3.3303,3.4797,3.5119,3.3448,3.3293,3.1817,2.8314,2.7926,0.0,0.0,0.0,0.0,0.0,0.0,0.0,0.0,0.0,0.0,0.0,0.0,0.0,0.0,0.0,0.0,0.0,0.0,0.0,0.0,0.0,0.0,0.0,0.0,0.0,0.0,0.0,0.0,0.0,0.0,0.0,0.0,0.0,0.0,0.0,0.0,0.0,0.0,0.0,0.0,0.0,0.0,0.0,0.0,0.0,0.0,0.0,0.0,0.0,0.0,0.0,0.0,0.0,0.0,0.0,0.0,0.0,0.0,0.0,0.0,0.0,0.0,0.0,0.0,0.0,0.0,0.0,0.0,0.0,0.0,0.0,0.0,0.0,0.0,0.0,0.0,0.0,0.0,0.0,0.0,0.0,0.0,0.0,0.0,0.0,0.0,0.0,0.0,0.0,0.0,0.0,0.0,0.0,0.0,0.0,0.0,0.0,0.0,0.0,0.0,0.0,0.0,3.1183,3.3303,3.3303,3.4797,3.5119,3.3448,3.3293,3.1817,2.8314,2.7408,0.0,0.0,0.0,0.0,0.0,0.0,0.0,0.0,0.0,0.0,0.0,0.0,0.0,0.0,0.0,0.0,0.0,0.0,0.0,0.0,0.0,0.0,0.0,0.0,0.0,0.0,0.0,0.0,0.0,0.0,0.0,0.0,0.0,0.0,0.0,0.0,0.0,0.0,0.0,0.0,0.0,0.0,0.0,0.0,0.0,0.0,0.0,0.0,0.0,0.0,0.0,0.0,0.0,0.0,0.0,0.0,0.0,0.0,0.0,0.0,0.0,0.0,0.0,0.0,0.0,0.0,0.0,0.0,0.0,0.0,0.0,0.0,0.0,0.0,0.0,0.0,0.0,0.0,0.0,0.0,0.0,0.0,0.0,0.0,0.0,0.0,0.0,0.0,0.0,0.0,0.0,0.0,0.0,0.0,0.0,0.0,0.0,0.0,0.0,0.0,0.0,0.0,3.1197,3.3296,0.0,3.4789,3.5119,3.3448,3.3293,3.1817,2.8314,0.0,0.0,0.0,0.0,0.0,0.0,0.0,0.0,0.0,0.0,0.0,0.0,0.0,0.0,0.0,0.0,0.0,0.0,0.0,0.0,0.0,0.0,0.0,0.0,0.0,0.0,0.0,0.0,0.0,0.0,0.0,0.0,0.0,0.0,0.0,0.0,0.0,0.0,0.0,0.0,0.0,0.0,0.0,0.0,0.0,0.0,0.0,0.0,0.0,0.0,0.0,0.0,0.0,0.0,0.0,0.0,0.0,0.0,0.0,0.0,0.0,0.0,0.0,0.0,0.0,0.0,0.0,0.0,0.0,0.0,0.0,0.0,0.0,0.0,0.0,0.0,0.0,0.0,0.0,0.0,0.0,0.0,0.0,0.0,0.0,0.0,0.0,0.0,0.0,0.0,0.0,0.0,0.0,0.0,0.0,0.0,0.0,0.0,0.0,0.0,0.0,0.0,2.8207,3.1184,3.3308,0.0,3.4808,3.5119,3.3448,3.3293,3.1817,2.8314,0.0,0.0,0.0,0.0,0.0,0.0,0.0,0.0,0.0,0.0,0.0,0.0,0.0,0.0,0.0,0.0,0.0,0.0,0.0,0.0,0.0,0.0,0.0,0.0,0.0,0.0,0.0,0.0,0.0,0.0,0.0,0.0,0.0,0.0,0.0,0.0,0.0,0.0,0.0,0.0,0.0,0.0,0.0,0.0,0.0,0.0,0.0,0.0,0.0,0.0,0.0,0.0,0.0,0.0,0.0,0.0,0.0,0.0,0.0,0.0,0.0,0.0,0.0,0.0,0.0,0.0,0.0,0.0,0.0,0.0,0.0,0.0,0.0,0.0,0.0,0.0,0.0,0.0,0.0,0.0,0.0,0.0,0.0,0.0,0.0,0.0,0.0,0.0,0.0,0.0,0.0,0.0,0.0,0.0,0.0,0.0,0.0,0.0,0.0,0.0,0.0,0.0,2.8215,3.119,3.3293,3.3313,3.4808,3.5119,3.3448,3.3293,3.1817,0.0,0.0,0.0,0.0,0.0,0.0,0.0,0.0,0.0,0.0,0.0,0.0,0.0,0.0,0.0,0.0,0.0,0.0,0.0,0.0,0.0,0.0,0.0,0.0,0.0,0.0,0.0,0.0,0.0,0.0,0.0,0.0,0.0,0.0,0.0,0.0,0.0,0.0,0.0,0.0,0.0,0.0,0.0,0.0,0.0,0.0,0.0,0.0,0.0,0.0,0.0,0.0,0.0,0.0,0.0,0.0,0.0,0.0,0.0,0.0,0.0,0.0,0.0,0.0,0.0,0.0,0.0,0.0,0.0,0.0,0.0,0.0,0.0,0.0,0.0,0.0,0.0,0.0,0.0,0.0,0.0,0.0,0.0,0.0,0.0,0.0,0.0,0.0,0.0,0.0,0.0,0.0,0.0,0.0,0.0,0.0,0.0,0.0,0.0,0.0,0.0,0.0,0.0,2.8968,3.1533,3.3526,3.4089,3.5138,3.5119,3.3448,3.3293,3.1817,2.8314,0.0,0.0,0.0,0.0,0.0,0.0,0.0,0.0,0.0,0.0,0.0,0.0,0.0,0.0,0.0,0.0,0.0,0.0,0.0,0.0,0.0,0.0,0.0,0.0,0.0,0.0,0.0,0.0,0.0,0.0,0.0,0.0,0.0,0.0,0.0,0.0,0.0,0.0,0.0,0.0,0.0,0.0,0.0,0.0,0.0,0.0,0.0,0.0,0.0,0.0,0.0,0.0,0.0,0.0,0.0,0.0,0.0,0.0,0.0,0.0,0.0,0.0,0.0,0.0,0.0,0.0,0.0,0.0,0.0,0.0,0.0,0.0,0.0,0.0,0.0,0.0,0.0,0.0,0.0,0.0,0.0,0.0,0.0,0.0,0.0,0.0,0.0,0.0,0.0,0.0,0.0,0.0,0.0,0.0,0.0,0.0,0.0,0.0,0.0,0.0,0.0,0.0,2.9771,3.1902,3.3604,3.44,3.5274,3.5119,3.3448,3.3293,3.1817,2.8314,0.0,0.0,0.0,0.0,0.0,0.0,0.0,0.0,0.0,0.0,0.0,0.0,0.0,0.0,0.0,0.0,0.0,0.0,0.0,0.0,0.0,0.0,0.0,0.0,0.0,0.0,0.0,0.0,0.0,0.0,0.0,0.0,0.0,0.0,0.0,0.0,0.0,0.0,0.0,0.0,0.0,0.0,0.0,0.0,0.0,0.0,0.0,0.0,0.0,0.0,0.0,0.0,0.0,0.0,0.0,0.0,0.0,0.0,0.0,0.0,0.0,0.0,0.0,0.0,0.0,0.0,0.0,0.0,0.0,0.0,0.0,0.0,0.0,0.0,0.0,0.0,0.0,0.0,0.0,0.0,0.0,0.0,0.0,0.0,0.0,0.0,0.0,0.0,0.0,0.0,0.0,0.0,0.0,0.0,0.0,0.0,0.0,0.0,0.0,0.0,0.0,0.0,3.06,3.2264,3.3643,3.4536,3.5333,3.5158,3.3546,3.3332,3.1875,2.8547,0.0,0.0,0.0,0.0,0.0,0.0,0.0,0.0,0.0,0.0,0.0,0.0,0.0,0.0,0.0,0.0,0.0,0.0,0.0,0.0,0.0,0.0,0.0,0.0,0.0,0.0,0.0,0.0,0.0,0.0,0.0,0.0,0.0,0.0,0.0,0.0,0.0,0.0,0.0,0.0,0.0,0.0,0.0,0.0,0.0,0.0,0.0,0.0,0.0,0.0,0.0,0.0,0.0,0.0,0.0,0.0,0.0,0.0,0.0,0.0,2.4282,0.0,0.0,0.0,0.0,0.0,0.0,0.0,0.0,0.0,0.0,0.0,0.0,0.0,0.0,0.0,0.0,0.0,0.0,0.0,0.0,0.0,0.0,0.0,0.0,0.0,0.0,0.0,0.0,0.0,0.0,0.0,0.0,0.0,0.0,0.0,0.0,0.0,0.0,0.0,0.0,0.0,3.1428,3.2652,3.3876,3.5371,3.5702,3.5391,3.4323,3.3662,3.24,3.0282,2.8864,0.0,0.0,0.0,0.0,0.0,0.0,0.0,0.0,0.0,0.0,0.0,0.0,0.0,0.0,0.0,0.0,0.0,0.0,0.0,0.0,0.0,0.0,0.0,0.0,0.0,0.0,0.0,0.0,0.0,0.0,0.0,0.0,0.0,0.0,0.0,0.0,0.0,0.0,0.0,0.0,0.0,0.0,0.0,0.0,0.0,0.0,0.0,0.0,0.0,0.0,0.0,0.0,0.0,0.0,0.0,0.0,0.0,0.0,0.0,0.0,2.5356,0.0,0.0,0.0,0.0,0.0,0.0,0.0,0.0,0.0,0.0,0.0,0.0,0.0,0.0,0.0,0.0,0.0,0.0,0.0,0.0,0.0,0.0,0.0,0.0,0.0,0.0,0.0,0.0,0.0,0.0,0.0,0.0,0.0,0.0,0.0,0.0,0.0,0.0,0.0,0.0,3.2341,3.3351,3.4381,3.5666,3.5801,3.5443,3.4561,3.3727,3.2532,3.0812,2.9453,0.0,0.0,0.0,0.0,0.0,0.0,0.0,0.0,0.0,0.0,0.0,0.0,0.0,0.0,0.0,0.0,0.0,0.0,0.0,0.0,0.0,0.0,0.0,0.0,0.0,0.0,0.0,0.0,0.0,0.0,0.0,0.0,0.0,0.0,0.0,0.0,0.0,0.0,0.0,0.0,0.0,0.0,0.0,0.0,0.0,0.0,0.0,0.0,0.0,0.0,0.0,0.0,0.0,3.1153,3.1563,3.1719,3.1719,3.1719,3.1621,3.0235,2.8908,2.768,2.768,0.0,0.0,0.0,0.0,0.0,0.0,0.0,0.0,0.0,0.0,0.0,0.0,0.0,0.0,0.0,0.0,0.0,0.0,0.0,0.0,0.0,0.0,0.0,0.0,2.8174,2.7874,2.506,0.0,0.0,0.0,0.0,0.0,0.0,0.0,0.0,0.0,0.0,0.0,3.3274,3.4089,3.4839,3.5706,3.5794,3.5494,3.4768,3.3916,3.277,3.1235,3.0188,2.8526,0.0,0.0,0.0,0.0,0.0,0.0,0.0,0.0,0.0,0.0,0.0,0.0,0.0,0.0,0.0,0.0,0.0,0.0,0.0,0.0,0.0,0.0,0.0,0.0,0.0,0.0,0.0,0.0,0.0,0.0,0.0,0.0,1.877,1.8997,0.0,0.0,0.0,0.0,0.0,0.0,0.0,0.0,0.0,0.0,0.0,0.0,0.0,2.9653,3.1418,3.1541,3.2422,3.4022,3.4139,3.4588,3.5308,3.5308,3.5308,3.5308,3.5073,0.0,3.0394,3.0394,0.0,0.0,0.0,0.0,0.0,0.0,0.0,0.0,0.0,0.0,0.0,0.0,0.0,0.0,0.0,0.0,0.0,0.0,0.0,0.0,0.0,0.0,2.9351,3.0123,3.0384,3.0336,0.0,2.8602,2.753,2.753,2.7522,0.0,0.0,0.0,0.0,0.0,0.0,0.0,3.4031,3.4423,3.4842,3.5706,3.5747,3.567,3.5553,3.4788,3.3905,3.2936,3.1347,2.9641,2.7852,2.6327,0.0,0.0,0.0,0.0,0.0,0.0,0.0,0.0,0.0,0.0,0.0,0.0,0.0,0.0,0.0,0.0,0.0,0.0,0.0,0.0,0.0,0.0,0.0,0.0,0.0,0.0,0.0,0.0,0.0,1.9565,2.0978,2.1944,2.2702,2.3342,0.0,0.0,0.0,0.0,0.0,0.0,0.0,0.0,0.0,3.0353,3.1242,3.2287,3.3542,3.4527,3.5408,3.6169,3.6657,3.7087,3.7458,3.7458,3.7458,3.7458,3.7458,3.6618,3.5118,3.3634,3.2522,3.1682,0.0,0.0,0.0,0.0,2.9766,2.9707,2.9316,2.9199,2.9121,2.875,0.0,0.0,0.0,0.0,0.0,0.0,0.0,0.0,0.0,0.0,3.1789,3.2166,3.2255,3.2265,3.2265,3.1637,3.0789,0.0,2.963,2.975,3.025,0.0,0.0,0.0,0.0,3.3235,3.4365,3.4939,3.5368,3.5708,3.5708,3.5698,3.5707,3.4923,3.4061,3.32,3.1999,3.0574,2.8904,2.7632,2.6333,0.0,0.0,0.0,0.0,0.0,0.0,0.0,0.0,0.0,0.0,0.0,0.0,0.0,0.0,0.0,0.0,0.0,0.0,0.0,0.0,0.0,0.0,0.0,0.0,0.0,0.0,0.0,0.0,2.2125,2.3242,2.478,2.5343,2.5848,0.0,0.0,0.0,0.0,0.0,0.0,3.074,3.1427,3.227,3.3366,3.4031,3.478,3.5666,3.7178,3.8043,3.8277,3.9156,3.9683,3.9897,3.9897,3.9897,3.9897,3.9897,3.9647,3.9064,3.6679,3.5179,3.4326,3.3682,3.3316,3.3086,3.2441,3.2207,3.2207,3.2207,3.2207,3.2168,3.1934,3.1717,3.1537,3.1534,0.0,0.0,0.0,0.0,3.2809,3.3035,3.3731,3.4421,3.4657,3.4706,3.47,3.47,3.4645,3.3971,0.0,3.1403,3.156,3.2214,0.0,0.0,0.0,0.0,3.4587,3.4794,3.5387,3.5766,3.5707,3.5697,3.5706,3.5704,3.5104,3.436,3.349,3.2658,3.1467,2.9779,2.8877,2.7598,2.5866,0.0,0.0,0.0,0.0,0.0,0.0,0.0,0.0,0.0,0.0,0.0,0.0,0.0,0.0,0.0,0.0,0.0,0.0,0.0,0.0,0.0,0.0,0.0,0.0,0.0,0.0,0.0,0.0,0.0,2.665,2.8165,0.0,0.0,0.0,0.0,3.1676,3.1773,3.255,3.4252,3.4389,3.5187,3.6883,3.6991,3.7433,3.8307,3.9224,4.0093,4.0912,4.1791,4.265,4.343,4.343,4.343,4.343,4.343,4.2502,4.0832,3.9105,3.7882,3.7109,3.7051,3.6523,3.5801,3.5762,3.5742,3.5742,3.5742,3.5742,3.5605,3.4785,3.3944,3.3275,3.3261,3.3278,0.0,0.0,3.3905,3.4761,3.558,3.6395,3.7225,3.8057,3.8246,3.8246,3.8246,3.8202,3.717,0.0,3.3174,3.3186,3.3225,0.0,3.3507,3.4323,3.4462,3.4794,3.5629,3.5718,3.5688,3.5707,3.5706,3.5704,3.5704,3.5665,3.5259,3.4399,3.3518,3.23,3.0598,2.9687,2.8446,2.6769,2.5885,0.0,0.0,0.0,0.0,0.0,0.0,0.0,0.0,0.0,0.0,0.0,0.0,0.0,0.0,0.0,0.0,0.0,0.0,0.0,0.0,0.0,0.0,0.0,0.0,0.0,0.0,0.0,0.0,2.9232,3.0372,0.0,3.2574,3.2963,3.3529,3.4439,3.5022,3.5626,3.624,3.6805,3.7642,3.8831,3.9429,4.0121,4.0998,4.1862,4.2474,4.2786,4.3099,4.3391,4.3704,4.3704,4.3704,4.3704,4.3704,4.3342,4.2728,4.2131,4.0402,3.8144,3.8144,3.7949,3.7676,3.7676,3.7676,3.7676,3.7676,3.7676,3.7617,3.7305,3.6991,3.6751,3.6758,3.6755,3.6755,3.6755,3.697,3.7279,3.7535,3.7819,3.8107,3.8427,3.85,3.85,3.85,3.8449,3.8038,3.6819,3.6577,3.6592,3.6592,3.6584,3.6673,3.6964,3.6966,3.7055,3.7376,3.7355,3.7091,3.6527,3.6458,3.6265,3.5742,3.5704,3.5336,3.4447,3.3576,3.258,3.1429,3.0046,2.9021,2.8429,2.6997,2.5863,0.0,0.0,0.0,0.0,0.0,0.0,0.0,0.0,0.0,0.0,0.0,0.0,0.0,0.0,0.0,0.0,0.0,0.0,0.0,0.0,0.0,0.0,0.0,0.0,0.0,0.0,3.1006,3.1883,3.3006,3.4167,3.5274,3.5643,3.6211,3.7104,3.7727,3.8312,3.8889,3.9474,4.0175,4.1052,4.1666,4.2247,4.2832,4.3693,4.4133,4.4133,4.4445,4.4582,4.4582,4.4582,4.4582,4.4582,4.4582,4.4416,4.4134,4.4132,4.2633,4.0312,4.0312,4.0312,4.0312,4.0312,4.0312,4.0273,3.998,3.9707,3.9434,3.9121,3.8847,3.8609,3.8595,3.859,3.859,3.859,3.8804,3.8997,3.8959,3.9165,3.9375,3.9382,3.9376,3.9376,3.9376,3.9331,3.9283,3.9283,3.8805,3.8402,3.8402,3.8402,3.8382,3.8373,3.8326,3.8277,3.8276,3.8225,3.7978,3.7406,3.7077,3.669,3.6149,3.5858,3.5452,3.4872,3.4021,3.3151,3.227,3.0888,2.9882,2.9302,2.76,2.6304,2.5495,0.0,0.0,0.0,0.0,0.0,0.0,0.0,0.0,0.0,0.0,0.0,0.0,0.0,0.0,0.0,0.0,0.0,0.0,0.0,0.0,0.0,0.0,0.0,3.0673,3.2171,3.3594,3.4464,3.6121,3.7197,3.7217,3.8013,3.8885,3.9762,3.9828,4.0563,4.2253,4.2338,4.2747,4.3598,4.3694,4.3748,4.3787,4.461,4.5051,4.5051,4.5909,4.63,4.63,4.63,4.63,4.63,4.63,4.5821,4.5032,4.5039,4.4531,4.3789,4.3711,4.3691,4.3691,4.3691,4.3691,4.3574,4.2734,4.1933,4.1133,4.0293,3.9453,3.8769,3.8754,3.8746,3.8726,3.8726,3.9273,3.9875,3.9872,4.053,4.1184,4.1175,4.1188,4.1188,4.1188,4.1142,4.1073,4.1073,3.9699,3.8499,3.8479,3.8479,3.8451,3.8384,3.8384,0.0,3.8302,3.8288,3.8276,3.8237,3.7464,3.6942,3.6903,3.6168,3.5704,3.5704,3.4872,3.4002,3.314,3.2251,3.1004,2.9321,2.7638,2.6381,2.5573,0.0,0.0,0.0,0.0,0.0,0.0,0.0,0.0,0.0,0.0,0.0,0.0,0.0,0.0,0.0,0.0,0.0,0.0,0.0,0.0,0.0,0.0,3.3131,3.2503,3.3906,3.533,3.6203,3.785,3.9159,3.9781,4.0635,4.1537,4.2455,4.2533,4.2743,4.3227,4.3227,4.3643,4.452,4.4565,4.4869,4.5504,4.5792,4.5941,4.5948,4.6183,4.63,4.63,4.63,4.63,4.63,4.63,4.6167,4.5938,4.5936,4.5801,4.5469,4.4199,4.3691,4.3691,4.3691,4.3691,4.3672,4.3437,4.3203,4.2969,4.2734,4.248,4.2304,4.2298,4.1858,4.1361,4.1361,4.1518,4.169,4.1686,4.2325,4.2978,4.2929,4.2922,4.2922,4.2922,4.2895,4.2883,4.2883,4.1954,4.0946,4.0325,4.0208,4.0218,4.0189,4.0149,0.0,4.0084,4.0099,3.9843,3.9204,3.8353,3.7599,3.6961,3.6168,3.5704,3.5704,3.4872,3.4002,3.314,3.2251,3.1004,2.9321,2.8838,2.8161,0.0,0.0,0.0,0.0,0.0,0.0,0.0,0.0,0.0,0.0,0.0,0.0,0.0,0.0,0.0,0.0,0.0,0.0,0.0,0.0,0.0,0.0,3.3982,3.5259,3.6207,3.6889,3.7617,3.848,3.984,4.1034,4.1898,4.2442,4.3122,4.4033,4.4109,4.4261,4.4662,4.5039,4.5475,4.5962,4.6333,4.6774,4.7279,4.7333,4.7342,4.7354,4.7354,4.7354,4.7354,4.7354,4.7159,4.6846,4.6846,4.6632,4.6303,4.63,4.6306,0.0,0.0,0.0,0.0,0.0,4.4785,4.4746,4.4375,4.4238,4.418,4.3828,4.3691,4.3691,4.3706,4.3344,4.2942,4.2942,4.2942,4.2939,4.2934,4.3319,4.368,4.363,4.3598,4.3598,4.3598,4.3596,4.3603,4.3603,4.314,0.0,4.1587,4.114,4.0898,4.0858,4.0818,4.0796,4.0808,4.0803,4.0597,4.0094,3.9262,3.8392,3.7522,3.669,0.0,0.0,0.0,3.4389,3.314,3.2251,0.0,0.0,0.0,2.905,2.8528,0.0,0.0,0.0,2.6185,2.6644,0.0,0.0,0.0,0.0,0.0,0.0,0.0,0.0,0.0,0.0,0.0,0.0,0.0,0.0,0.0,0.0,3.6071,3.7328,4.0365,4.0293,4.0231,4.1001,4.1925,4.2781,4.3569,4.3724,4.4103,4.489,4.5034,4.546,4.6283,0.0,0.0,0.0,0.0,4.8802,4.8794,4.8811,4.8801,4.8798,4.8798,4.8798,4.8798,4.8798,4.8408,4.7744,4.7744,4.7295,4.6573,4.6475,4.6387,4.6301,4.6307,4.6308,4.6308,4.6308,4.6308,4.6191,4.541,0.0,0.0,4.4238,4.3984,4.3984,4.3999,4.393,4.3856,4.384,4.384,4.3856,4.3856,4.3904,4.3977,4.3903,4.3897,4.3897,4.3897,4.3888,4.3875,4.3875,4.3762,4.3374,4.25,4.1626,4.0985,4.0818,4.0807,4.0804,4.0803,4.079,4.079,4.079,0.0,0.0,3.8276,3.7406,3.6555,3.5742,3.5607,3.4853,3.3314,3.2416,3.1623,3.0907,3.0114,2.9727,2.9727,2.8952,2.8609,2.8652,2.8383,2.83,0.0,0.0,0.0,0.0,0.0,0.0,0.0,0.0,0.0,0.0,0.0,0.0,0.0,0.0,0.0,3.6477,3.8431,4.0036,4.0713,4.1828,4.2647,4.2881,4.3679,4.4295,4.454,4.5142,4.5599,4.5823,4.6493,4.6986,4.7159,4.8059,4.8553,4.8553,4.8716,4.8801,4.8802,4.8794,4.8811,4.8801,0.0,0.0,4.8798,4.8798,4.872,4.8564,4.8564,4.8466,4.8271,4.7627,4.6928,4.6306,4.6301,4.6307,4.6308,4.6308,4.6308,4.6289,4.6113,4.6055,4.6016,4.5859,4.5801,4.5801,4.5797,4.5316,0.0,4.4758,4.4758,4.4754,4.4742,4.5241,4.5713,4.5696,4.5703,4.5709,4.5709,4.5659,4.5626,4.5626,4.5045,4.4268,4.3394,4.252,4.1684,4.0915,4.0807,4.0804,4.0803,4.079,4.079,4.079,4.0017,3.9146,3.8276,3.7406,3.6555,3.5742,3.5027,3.4505,3.4156,3.3305,3.2773,3.2618,3.2444,3.2377,3.2348,3.2203,3.2126,3.2067,3.0075,2.9523,0.0,0.0,0.0,0.0,0.0,0.0,0.0,0.0,0.0,0.0,0.0,3.3961,0.0,0.0,3.7367,3.8644,3.9939,4.1255,4.2512,4.3421,4.3989,4.4032,4.4424,4.4885,4.5356,4.6152,4.6668,4.6697,4.7534,4.8048,4.8057,4.8908,4.9391,4.9391,4.982,5.0041,5.0043,5.005,5.0068,5.0108,5.0094,5.0102,5.0106,5.0106,4.9852,4.9442,4.9442,4.9208,4.8779,4.8369,4.7705,4.6944,4.6954,4.6688,4.6301,4.6306,4.6308,4.6308,4.6308,4.6308,4.6308,4.6308,4.6308,4.6308,4.6307,4.6005,4.5656,4.5656,4.5656,4.5652,4.5644,4.5924,4.6206,4.6209,4.619,4.6196,4.6196,4.6146,4.6093,4.6093,4.5726,4.5006,4.3724,4.3141,4.2383,4.1011,4.0807,4.0804,4.0803,4.079,4.079,4.079,4.0404,3.9804,3.8914,3.7657,3.6555,3.5742,3.5278,3.4853,3.4408,3.3982,3.3557,3.3102,3.3102,3.3102,3.3102,3.3102,3.3103,3.3074,3.1861,3.1526,0.0,0.0,0.0,0.0,0.0,0.0,0.0,0.0,3.2971,3.3666,3.5029,3.6424,3.7452,3.8206,3.9262,4.1003,4.1429,4.226,4.4311,4.4736,4.486,4.4943,4.4936,4.5212,4.5938,4.6793,4.7298,4.7298,4.8312,4.8944,4.8954,4.9776,5.024,5.0248,5.093,5.1308,5.1303,5.1291,5.133,5.1372,5.1396,5.1401,5.139,5.1394,5.1023,5.036,5.036,4.9852,4.9052,4.9052,4.8564,4.7822,4.7822,4.7315,4.6537,4.6354,4.6303,4.6307,4.6308,4.6308,4.6308,4.6308,4.6308,4.6308,4.6308,4.6303,4.6303,4.63,4.63,4.63,4.6292,4.626,4.6226,4.6195,4.6196,4.6203,4.6196,4.6154,4.6122,4.6093,4.6056,4.5482,4.3782,4.351,4.2888,4.107,4.0807,4.0804,4.0803,4.079,4.079,4.079,4.079,4.0384,3.934,3.7793,3.6555,3.5742,3.5704,3.5394,3.4679,3.464,3.4311,3.3634,3.3615,3.3615,3.3615,3.3615,3.3606,3.3606,3.3654,3.3604,2.8841,2.959,3.0385,3.1294,3.2106,3.2896,0.0,0.0,3.6267,3.6382,3.7199,3.8382,3.9986,4.0398,4.1061,4.2744,4.3672,4.4272,4.4562,4.522,4.5678,4.5757,4.5776,4.5832,4.5977,4.6793,4.7298,4.7298,4.8826,4.979,4.9849,5.0674,5.1148,5.1145,5.1242,5.13,5.13,5.1303,5.1297,5.1317,5.1366,5.1401,5.1401,5.139,5.1355,5.1258,5.1258,5.077,4.995,4.995,4.9442,4.8662,4.8662,4.8174,4.7354,4.6596,4.6303,4.629,4.6307,4.6308,4.6308,4.6308,4.6308,4.6308,4.6308,4.6307,4.6297,4.6303,4.63,4.63,4.63,4.6292,4.626,4.6206,4.6195,4.6196,4.6203,4.6181,4.6177,4.6102,4.6095,4.5541,4.3802,4.351,4.2888,4.107,4.0807,4.0804,4.0803,4.079,4.079,4.079,4.079,4.0133,3.8489,3.7464,3.6555,3.5742,3.5704,3.5665,3.5549,3.5549,3.551,3.5414,3.5414,3.5414,3.5414,3.5414,3.5414,3.5405,3.5418,3.5039,3.1293,3.2155,0.0,0.0,3.4696,3.5512,3.633,3.7025,3.7635,3.8155,3.8967,3.9978,4.1241,4.1886,4.2647,0.0,4.4369,4.4755,4.5239,4.5587,4.5814,4.5893,4.5912,4.6123,4.6701,4.7539,4.8269,4.8774,4.9973,5.0675,5.0704,5.1074,5.1295,5.1304,5.1292,5.13,5.13,5.1308,5.1303,5.1291,5.133,5.1361,5.1396,5.1401,5.141,5.1394,5.1394,5.1199,5.0867,5.0867,5.034,4.956,4.956,4.9032,4.8193,4.7354,4.6749,4.6303,4.6295,4.6306,4.6308,4.6308,4.6308,4.6308,4.6308,4.6308,4.6306,4.6309,4.63,4.63,4.63,4.6292,4.6284,4.6211,4.6195,4.6203,4.6203,4.6201,4.6185,4.6102,4.6095,4.5541,4.3802,4.351,4.2888,4.113,4.0818,4.0804,4.0803,4.079,4.079,4.079,4.079,4.0288,3.905,3.816,3.7309,3.6458,3.5955,3.5704,3.5704,3.5704,3.5704,3.5704,3.5704,3.5704,3.5704,3.5704,3.5704,3.5704,3.5698,3.5514,3.3654,0.0,0.0,3.6234,3.7158,3.8067,3.8659,3.9119,3.9576,4.0226,4.0868,4.1605,4.2521,4.322,4.3943,4.4794,4.4929,4.5123,4.5722,4.58,4.5814,4.586,4.588,4.6363,4.7532,4.8227,4.8949,4.9823,5.0701,5.1197,5.1189,5.1259,5.1278,5.1306,5.1312,5.13,5.13,5.13,5.1308,5.1303,5.1291,5.1323,5.1366,5.1396,5.1401,5.139,5.1394,5.1394,5.1394,5.1394,5.1023,5.0457,5.0457,4.993,4.9091,4.8505,4.7744,4.6963,4.6749,4.6666,4.6619,4.6386,4.6308,4.6308,4.6308,4.6308,4.6308,4.63,4.6306,4.63,4.63,4.6296,4.6288,4.6236,4.6201,4.6209,4.6209,4.6189,4.6193,4.6149,4.6104,4.556,4.3792,4.3491,4.2918,4.1159,4.0867,4.0815,4.0796,4.0803,4.079,4.079,4.079,4.0442,3.9584,3.8914,3.8083,3.698,3.6342,3.5936,3.5704,3.5704,3.5704,3.5704,3.5704,3.5704,3.5704,3.5704,3.5695,3.5695,3.5708,3.5708,0.0,0.0,3.809,3.8124,3.9322,4.0496,4.0526,4.179,4.2951,4.297,4.3069,4.3385,4.4268,4.4486,4.4813,4.5626,4.5761,4.5761,4.58,4.58,4.58,4.58,4.5867,4.6584,0.0,4.8545,4.8949,4.9823,5.0717,5.1194,5.1208,5.1201,5.122,5.1306,5.1312,5.13,5.13,5.13,5.13,5.13,5.1303,5.1291,5.1317,5.1366,5.1396,5.1401,5.141,5.1394,5.1394,5.1394,5.1375,5.1355,5.1355,5.0828,5.0067,5.0028,4.9462,4.8603,4.7822,4.7553,4.7422,4.6561,4.6308,4.6308,4.6308,4.6308,4.6308,4.6308,4.6301,4.63,4.63,4.63,4.6296,4.6308,4.6255,4.6201,4.6209,4.619,4.6189,4.6193,4.613,4.554,4.3801,4.351,4.2918,4.1159,4.0907,4.0867,4.08,4.0796,4.079,4.079,4.079,4.0442,3.9584,3.9487,3.8721,3.7019,3.6884,3.6516,3.5723,3.5704,3.5704,3.5704,3.5704,3.5704,3.5704,3.5704,3.5695,3.5707,3.5699,3.5737,0.0,0.0,3.985,3.9805,4.1036,4.226,4.2264,4.2252,4.2239,4.2239,4.2287,4.2603,4.3481,4.4124,4.4805,4.5664,4.58,4.58,4.58,4.58,4.58,4.58,4.6371,0.0,0.0,0.0,0.0,5.0658,5.1027,5.1202,5.1194,5.1208,5.122,5.122,5.1287,5.1304,5.13,5.13,5.13,5.13,5.1303,5.1291,5.1291,5.1375,5.14,5.14,5.1405,5.1411,5.1391,5.1401,5.1406,5.1406,5.139,5.1219,5.0965,5.0965,5.0789,5.0321,4.8896,4.8408,4.8255,4.7425,4.7164,4.7051,4.6484,4.6308,4.6308,4.6308,4.6307,4.6303,4.6306,4.63,4.6296,4.6308,4.6284,4.6255,4.6209,4.6203,4.6209,4.6193,4.6185,4.578,4.4569,4.387,4.2918,4.1159,4.0867,4.0826,4.08,4.0808,4.0796,4.0803,4.079,4.0674,4.0384,3.9835,3.9255,3.8663,3.8083,3.7386,3.6535,3.6497,3.6245,3.5704,3.5704,3.5704,3.5704,3.5706,3.5697,3.5707,3.5747,3.6085,3.891,4.0287,4.1581,4.1519,4.2549,4.3477,4.3173,4.289,4.2604,4.2316,4.229,4.251,4.3061,4.3646,4.4327,4.5186,4.5374,4.5471,4.5761,4.58,4.58,4.58,4.6629,4.754,0.0,0.0,0.0,5.1086,5.1202,5.1202,5.1202,5.1197,5.12,5.1201,5.124,5.1287,5.1312,5.1312,5.1292,5.13,5.1296,5.1303,5.1303,5.1336,5.1369,5.1369,5.1394,5.1394,5.1394,5.1405,5.1391,5.1391,5.1396,5.1401,5.1401,5.1406,5.141,5.1195,4.9755,4.9267,4.913,4.8291,4.8033,4.7868,4.7011,4.6758,4.6699,4.6387,4.6308,4.6308,4.6295,4.6306,4.63,4.6292,4.6308,4.6279,4.6245,4.6215,4.6196,4.6196,4.6201,4.5905,4.4984,4.383,4.2665,4.1519,4.1072,4.0828,4.0804,4.0792,4.08,4.0796,4.0796,4.0803,4.079,4.0288,3.9835,3.9526,3.8972,3.8276,3.7406,3.7367,3.7116,3.6593,3.6284,3.614,3.616,3.5852,3.5718,3.5737,3.6096,3.655,4.0723,4.1962,4.3254,4.3169,4.3786,4.4193,4.3335,4.3682,4.3951,4.3181,4.3002,4.2977,0.0,0.0,4.3424,4.4274,4.4515,4.4871,4.5626,4.5761,4.5819,0.0,0.0,0.0,0.0,0.0,0.0,5.1132,0.0,5.1202,5.1202,5.1197,5.1208,5.1189,5.119,5.122,5.1287,5.1306,5.1295,5.13,5.13,5.13,5.13,5.1303,5.1291,5.1291,5.1369,5.1394,5.1394,5.1394,5.1394,5.1394,5.1394,5.1394,5.1394,5.1391,5.1396,5.1279,5.0453,5.0161,5.0028,4.915,4.8876,4.8727,4.7908,4.7637,4.7422,4.6601,4.6328,4.6308,4.6305,4.6293,4.63,4.63,4.6292,4.6303,4.6303,4.6245,4.6209,4.6203,4.6196,4.5913,4.5056,4.3467,4.2313,4.2274,4.1528,4.0927,4.0818,4.0807,4.0796,4.08,4.08,4.0808,4.0803,4.0803,4.0455,3.9623,3.9565,3.9185,3.8295,3.8276,3.8257,3.8218,3.7386,3.6991,3.7063,3.623,3.5873,3.5959,3.6774,3.7197,4.214,4.3262,4.4075,4.4023,4.416,4.4275,4.4028,4.3181,4.2393,4.2181,4.162,4.1386,0.0,0.0,0.0,4.3385,4.4095,0.0,4.4871,4.5413,0.0,0.0,0.0,4.8488,4.9315,5.0215,0.0,0.0,5.1171,5.1202,5.1202,5.1214,5.1206,5.1189,5.12,5.121,5.124,5.1278,5.1295,5.1295,5.1292,5.13,5.13,5.1308,5.1308,5.1308,5.1316,5.1335,5.1335,5.133,5.1336,5.1336,5.1369,5.1394,5.1394,5.14,5.14,5.1361,5.1143,5.1074,5.0926,5.0048,4.9774,4.9618,4.875,4.8082,4.7558,4.7324,4.6797,4.6308,4.6308,4.63,4.63,4.63,4.63,4.6296,4.6308,4.6299,4.625,4.6209,4.6196,4.5913,4.5056,4.4476,4.3925,4.3322,4.2449,4.1636,4.0955,4.0877,4.0867,4.0815,4.0796,4.0796,4.0804,4.08,4.0711,4.0479,4.0474,4.0087,3.9201,3.9162,3.8883,3.8285,3.8053,3.7956,3.7966,3.7754,3.7638,3.7676,3.7935,3.8427,4.3288,4.4237,4.4874,4.4837,4.4551,4.4186,4.382,4.2434,4.1123,4.0777,4.0008,0.0,0.0,0.0,0.0,0.0,0.0,0.0,4.4496,4.5269,4.6114,0.0,4.7903,0.0,4.9611,5.0516,5.1067,0.0,5.1127,5.1171,5.1202,5.1202,5.1214,5.1206,5.1206,5.1208,5.119,5.124,5.1249,5.1249,5.1267,5.1248,5.1248,5.1248,5.1248,5.1248,0.0,5.1304,5.1312,5.1289,5.1296,5.1303,5.1349,5.1349,5.1356,5.1362,5.1362,5.1369,5.138,5.1391,5.1323,5.0824,5.0672,5.0516,4.9638,4.9065,4.8549,4.7811,4.7246,4.6777,4.6406,4.6307,4.63,4.6293,4.6306,4.63,4.6292,4.6308,4.6279,4.622,4.6196,4.604,4.5553,4.5122,4.469,4.4242,4.3408,4.2644,4.215,4.1383,4.0898,4.0848,4.0848,4.0837,4.0807,4.0796,4.0804,4.0804,4.08,4.0568,4.0087,4.0068,3.9865,3.9411,3.9043,3.8878,3.8869,3.853,3.8335,3.8343,3.8766,3.9256,4.4239,4.4956,4.5456,4.536,4.4726,4.3862,4.2865,4.144,4.0088,3.9281,0.0,3.7988,3.7988,3.8614,3.9413,4.0294,0.0,4.3207,4.4197,4.5085,4.5989,4.6965,4.7855,4.8735,4.9596,5.0468,5.102,5.1087,5.1089,5.1114,5.119,5.119,5.119,5.119,5.1202,5.1194,5.1208,5.119,5.1201,5.1201,5.1211,5.1211,5.1211,5.1211,5.1211,5.1191,5.1258,5.1287,5.1287,5.1284,5.1292,5.1292,5.1292,5.1292,5.1292,5.1296,5.1303,5.131,5.1362,5.1388,5.1394,5.1401,5.139,5.1254,5.0492,5.018,4.9797,4.8348,4.7769,4.7421,4.668,4.6387,4.6308,4.6305,4.6295,4.63,4.63,4.6292,4.6284,4.6211,4.622,4.6209,4.6209,4.5579,4.5071,4.5071,4.4328,4.3767,4.3767,4.2196,4.1082,4.1102,4.0975,4.0888,4.0828,4.0818,4.0818,4.0818,4.0787,4.0807,4.0818,4.0818,4.0818,4.0828,4.013,3.9801,3.9782,3.9082,3.8758,3.8755,3.9517,3.9916,4.4997,4.5304,4.5266,4.4595,4.3789,4.2734,4.12,4.0068,0.0,0.0,0.0,3.7924,3.7924,3.8089,0.0,3.9394,0.0,0.0,0.0,0.0,4.5291,0.0,0.0,0.0,0.0,0.0,0.0,0.0,0.0,5.1048,5.1114,5.1114,5.1108,5.1127,5.1171,5.1202,5.1214,5.1197,5.12,5.12,5.1201,5.1211,5.1211,5.1211,5.1211,5.1211,5.1211,0.0,5.122,5.122,5.122,5.122,5.122,5.122,5.123,5.1276,5.1304,5.1304,5.1303,5.1317,5.1336,5.1375,5.1391,5.1362,5.1225,5.0664,5.0048,4.9758,4.8669,4.7564,4.7402,4.6836,4.6308,4.6308,4.63,4.63,4.63,4.63,4.6296,4.6284,4.6231,4.6206,4.6206,4.6064,4.5961,4.5961,4.5235,4.4669,4.4669,4.3133,4.2049,4.2069,4.141,4.0974,4.0965,4.0908,4.0877,4.0877,4.0837,4.0818,4.0877,4.0878,4.0907,4.0965,4.0827,4.0757,4.0766,4.061,4.0548,4.0551,4.0701,4.0812,4.4996,4.4995,4.4535,4.4133,4.2757,4.1265,4.0479,0.0,0.0,0.0,0.0,3.5921,3.5921,0.0,0.0,0.0,0.0,0.0,0.0,0.0,0.0,0.0,0.0,0.0,0.0,0.0,0.0,0.0,0.0,5.096,5.1087,5.1101,5.1101,5.1108,5.1121,5.1153,5.1153,5.1152,5.1144,5.1144,5.1178,5.1208,5.1208,5.1208,5.1208,5.1208,5.12,5.119,5.119,5.1201,5.1211,5.1211,5.1211,5.1211,5.1191,5.124,5.1249,5.1249,5.1256,5.1273,5.13,5.1335,5.1382,5.1405,5.1405,5.1104,5.0683,5.0235,4.9517,4.8704,4.7823,4.7281,4.6854,4.6406,4.6307,4.6301,4.6295,4.6306,4.63,4.6296,4.6269,4.6245,4.6245,4.6216,4.6206,4.6206,4.5844,4.5585,4.5585,4.4455,4.3305,4.2405,4.1921,4.1485,4.1038,4.0982,4.0945,4.0945,4.0917,4.0917,4.0945,4.0954,4.0971,4.0999,4.1003,4.0991,4.0991,4.1032,4.1046,4.1052,4.1045,4.1075,4.4359,4.4183,4.359,4.3418,4.1758,4.0081,3.9719,3.7865,0.0,0.0,3.4385,3.3806,3.3806,0.0,0.0,0.0,0.0,0.0,0.0,0.0,0.0,0.0,0.0,0.0,0.0,0.0,0.0,0.0,0.0,5.088,5.1058,5.1073,5.1087,5.1087,5.1087,5.1101,5.1101,5.1108,5.1102,5.1102,5.1146,5.1178,5.1178,5.1178,5.1178,5.1178,5.1194,5.1186,5.1186,5.1189,5.1169,5.1169,5.118,5.118,5.118,5.1201,5.1201,5.1201,5.1211,5.122,5.1278,5.1278,5.1328,5.1388,5.1388,5.138,5.1255,5.0572,5.025,4.9751,4.8252,4.7737,4.7375,4.6503,4.6308,4.6308,4.6306,4.63,4.629,4.6306,4.6306,4.6306,4.63,4.6269,4.6216,4.6216,4.6216,4.6216,4.6216,4.5606,4.4596,4.3038,4.2537,4.2031,4.1342,4.1108,4.1011,4.1011,4.1011,4.1011,4.1011,4.1011,4.1011,4.1011,4.1013,4.1026,4.102,4.1064,4.11,4.11,4.1091,4.1109,4.2802,4.2783,4.2536,4.1812,4.086,3.9718,3.8195,0.0,0.0,3.4118,3.3363,3.2817,3.2817,3.3585,0.0,0.0,0.0,3.869,0.0,0.0,0.0,0.0,0.0,0.0,0.0,0.0,0.0,0.0,0.0,5.0827,5.0916,5.0975,5.1005,5.1005,5.1067,5.1101,5.1101,5.1101,5.1101,5.1101,5.1101,5.1114,5.1114,5.1114,5.1114,5.1114,5.1114,5.1114,0.0,5.1114,5.1114,5.1108,5.1114,5.1108,5.112,5.1178,5.12,5.12,5.1201,5.1191,5.1211,5.1211,5.1245,5.1317,5.1317,5.1343,5.1375,5.1297,5.0703,4.9879,4.8931,4.8158,4.7383,4.6516,4.6303,4.6305,4.6308,4.6308,4.6307,4.6301,4.63,4.6297,4.6303,4.63,4.6296,4.6296,4.6296,4.6296,4.6296,4.6167,4.5748,4.4841,4.3284,4.2278,4.22,4.1461,4.1007,4.1007,4.1007,4.1007,4.1007,4.1064,4.1089,4.1089,4.1081,4.1086,4.1095,4.11,4.1106,4.1091,4.1108,4.1105,4.2105,4.1651,4.0836,4.0514,3.9018,3.7353,3.6235,0.0,0.0,3.2549,3.2067,3.187,3.1848,3.2161,3.2879,0.0,3.5946,0.0,0.0,0.0,0.0,0.0,0.0,0.0,0.0,0.0,0.0,0.0,5.0664,5.072,5.0775,5.0844,5.0877,5.0877,5.0913,5.0929,5.0979,5.0975,5.1005,5.1053,5.1087,5.1101,5.1101,5.1101,5.1101,5.1101,5.1101,5.1101,0.0,5.1101,5.1101,5.1101,5.1095,5.1108,5.1108,5.1134,5.1146,5.1146,5.1144,5.1147,5.1139,5.118,5.122,5.1256,5.1292,5.1316,5.1343,5.1343,5.1121,5.0684,4.9811,4.8576,4.7455,4.709,4.6641,4.6293,4.6297,4.6303,4.6307,4.6308,4.6308,4.6308,4.6307,4.6306,4.6303,4.63,4.63,4.6297,4.6295,4.6273,4.6147,4.5824,4.4202,4.2919,4.2393,4.1568,4.1056,4.105,4.105,4.105,4.1056,4.1086,4.1106,4.1106,4.1091,4.1105,4.1104,4.1097,4.1103,4.1103,4.1092,4.1093,4.0363,3.9878,3.901,3.901,3.7294,3.5447,0.0,0.0,3.2524,3.1442,3.104,3.0902,3.0896,3.1102,3.1781,3.3261,3.4952,3.6702,0.0,0.0,0.0,0.0,0.0,0.0,0.0,0.0,0.0,0.0,5.0585,5.0606,5.0625,5.0683,5.0739,5.0793,5.0793,5.081,5.0863,5.0877,5.089,5.0941,5.0975,5.101,5.101,5.101,5.101,5.101,5.101,5.1024,0.0,5.1044,5.1039,5.1039,5.1053,5.1067,5.1067,5.1101,5.1101,5.1101,5.1089,5.1095,5.112,5.1156,5.1159,5.1171,5.1259,5.1276,5.1269,5.1296,5.1154,5.0862,5.0263,4.8991,4.7873,4.7873,4.7444,4.6975,4.6702,4.6655,4.6585,4.6356,4.63,4.6301,4.6301,4.6305,4.6307,4.6308,4.6308,4.6308,4.6307,4.6307,4.6305,4.63,4.4979,4.3736,4.2865,4.1983,4.1378,4.112,4.1105,4.1094,4.1104,4.1104,4.1104,4.1104,4.1104,4.1094,4.1107,4.1094,4.1091,4.1108,4.1103,4.1094,3.7163,3.7145,3.7145,3.7145,3.5866,3.4626,0.0,0.0,3.1017,3.1017,3.0429,2.9912,2.9912,3.0679,3.1564,3.2381,3.3973,3.5701,0.0,0.0,0.0,0.0,0.0,0.0,0.0,0.0,0.0,0.0,5.05,0.0,5.05,5.05,5.0585,5.0793,5.0793,5.0793,5.0793,5.0793,5.0793,5.081,5.081,5.081,5.081,5.081,5.081,5.081,5.081,5.0846,0.0,5.0899,5.0913,5.0906,5.0971,5.1005,5.1005,5.1087,5.1101,5.1101,5.1101,5.1101,5.1101,5.1102,5.1101,5.1105,5.1178,5.119,5.122,5.1287,5.0735,5.0102,5.0101,4.9444,4.88,4.88,4.8781,4.8547,4.766,4.7489,4.726,4.6456,4.63,4.63,4.63,4.63,4.63,4.63,4.6295,4.6301,4.6301,4.6305,4.6306,4.6306,4.5507,4.4627,4.3766,4.2887,4.2028,4.1147,4.1101,4.109,4.1094,4.1094,4.1094,4.1094,4.1094,4.1094,4.1094,4.1108,4.1108,4.1096,4.1106,4.105,3.5016,3.4755,3.4307,3.4307,3.3527,3.2614,3.2054,3.0917,2.9832,2.9326,2.9044,2.8891,2.8923,2.9636,3.0673,3.2127,3.3317,3.4851,0.0,0.0,0.0,0.0,0.0,0.0,0.0,0.0,0.0,5.0302,5.0348,5.0371,5.0435,5.0478,5.0542,5.0585,5.0585,5.0625,5.0663,5.0663,5.072,5.0793,5.0793,5.0793,5.0793,5.0793,5.0793,5.0793,5.0793,5.081,5.0846,5.0846,5.0827,5.0825,5.0861,5.0861,5.0861,5.0948,5.0964,5.0964,5.1024,5.102,5.1053,5.1081,5.1108,5.1089,5.1121,5.1156,5.1191,5.124,5.1054,5.0858,5.0847,5.0232,4.9625,4.962,4.9205,4.873,4.8449,4.8396,4.8142,4.7289,4.7114,4.6923,4.6338,4.624,4.6221,4.6225,4.6234,4.6234,4.623,4.6234,4.6234,4.6234,4.5984,4.5495,4.4666,4.3787,4.2928,4.2048,4.1991,4.1719,4.1111,4.1105,4.1097,4.1104,4.1104,4.1104,4.1101,4.109,4.1072,4.1025,4.1025,4.1026,0.0,3.2868,3.246,3.246,3.189,0.0,0.0,2.952,2.8742,2.796,2.8073,2.8334,2.8388,2.9082,3.0227,3.1957,3.2977,0.0,0.0,0.0,0.0,0.0,0.0,0.0,0.0,0.0,0.0,5.0114,5.0182,5.0231,5.0278,5.0325,5.0348,5.0348,5.0457,5.0523,5.0566,5.0566,5.0606,5.0683,5.0683,5.0683,5.0683,5.0683,5.0702,5.072,5.072,5.0739,0.0,5.0775,5.0775,5.0793,5.0793,5.0793,5.081,5.0846,5.0863,5.0863,5.0909,5.0925,5.0945,5.1005,5.1053,5.1101,5.1101,5.1139,5.1161,5.1161,5.1171,5.1211,5.1211,5.0831,5.046,5.0449,5.0077,4.9625,4.932,4.925,4.8996,4.8126,4.7697,4.7288,4.6755,4.6404,4.6195,4.6195,4.6195,4.6195,4.6189,4.6189,4.6189,4.6189,4.6195,4.6006,4.5492,4.4677,4.3818,4.2958,4.2589,4.2156,4.1618,4.1277,4.1109,4.1096,4.1091,4.1091,4.1106,4.1075,4.1039,4.0993,4.1006,4.1159,0.0,0.0,0.0,0.0,0.0,0.0,0.0,2.8574,0.0,2.6968,2.7529,2.8183,2.8184,2.9007,3.0206,3.1815,3.2912,0.0,0.0,0.0,0.0,0.0,0.0,0.0,0.0,0.0,4.9978,4.9978,5.0057,5.0082,5.0082,5.0082,5.0082,5.0082,5.0325,5.0478,5.0478,5.0478,5.0478,5.05,5.05,5.05,5.05,5.05,5.0521,0.0,5.0603,5.0624,5.0682,5.0682,5.072,5.0775,5.0775,5.0793,5.0793,5.0793,5.0793,5.0793,5.0793,5.0793,5.081,5.0874,5.099,5.1087,5.1087,5.1102,5.1093,5.1093,5.1139,5.1201,5.1201,5.1201,5.1201,5.1181,5.1181,5.0987,5.0247,5.0101,4.9829,4.8952,4.8124,4.7559,4.7506,4.6812,4.6286,4.6286,4.6227,4.6196,4.6196,4.6196,4.6196,4.6196,4.619,4.6196,4.6196,4.5513,4.4699,4.3841,4.3027,4.2554,4.2485,4.1646,4.1184,4.1189,4.113,4.1086,4.1086,4.1019,4.1025,4.1085,4.1088,4.1509,2.7071,0.0,2.8539,2.8539,2.8897,2.903,0.0,2.7956,2.765,0.0,0.0,2.798,2.8044,2.9291,3.0652,3.1766,3.3168,0.0,0.0,0.0,0.0,0.0,0.0,0.0,0.0,0.0,4.9778,4.9778,4.9816,4.9871,4.9871,4.9925,4.9978,5.0031,5.0063,5.0182,5.0278,5.0259,5.0325,5.0435,5.0435,5.0457,5.05,5.05,5.05,5.0521,5.0521,5.0542,5.0544,5.0544,5.0544,5.0584,5.0624,5.0663,5.0644,5.0702,5.072,5.072,5.0793,5.0793,5.081,5.0827,5.0844,5.0861,5.0861,5.0975,5.1108,5.1108,5.1121,5.1134,5.1134,5.1134,5.1114,5.112,5.1125,5.1089,5.0947,5.0928,5.0656,4.979,4.9459,4.9099,4.8437,4.7602,4.7028,4.7028,4.6512,4.6113,4.613,4.6111,4.6111,4.6111,4.6119,4.6119,4.6119,4.6001,4.5543,4.466,4.4431,4.4041,4.3412,4.2504,4.2025,4.2013,4.137,4.1025,4.1025,4.1011,4.1326,4.1924,4.1917,4.2354,2.4841,2.5958,2.7082,2.7427,2.7869,2.8093,0.0,0.0,0.0,0.0,0.0,0.0,2.8353,0.0,0.0,0.0,0.0,0.0,0.0,0.0,0.0,0.0,0.0,0.0,0.0,0.0,4.9525,4.9525,4.9634,4.9692,4.9692,4.9759,4.9816,4.9871,4.9871,4.9952,5.0158,5.0139,5.0207,5.0255,5.0255,5.0278,5.0325,5.0325,5.0348,5.0393,5.0393,5.0438,5.05,5.05,5.05,5.05,5.0542,5.0542,5.0542,5.0585,5.0605,5.0625,5.0683,5.072,5.0738,5.0738,5.0775,5.0793,5.0793,5.088,5.096,5.099,5.1053,5.1101,5.1101,5.1101,5.1101,5.1108,5.1102,5.1108,5.1139,5.1163,5.1008,5.055,5.013,4.9703,4.9232,4.8437,4.7699,4.7315,4.6868,4.6452,4.6065,4.6007,4.6007,4.6007,4.6037,4.6047,4.6047,4.6083,4.5928,4.5475,4.5085,4.4663,4.4215,4.3364,4.2902,4.2895,4.2424,4.2174,4.2147,4.2147,4.2363,4.2753,4.2752,4.3167,2.3412,2.4687,2.617,2.6953,2.7266,2.7332,0.0,0.0,0.0,0.0,0.0,0.0,0.0,0.0,0.0,0.0,0.0,0.0,0.0,0.0,0.0,0.0,0.0,0.0,0.0,4.9193,4.9257,4.9257,4.9434,4.9544,4.9544,4.9604,4.9634,4.9634,4.9634,4.9759,5.0031,5.0031,5.0057,5.0057,5.0057,5.0082,5.0082,5.0108,5.0158,5.0278,0.0,0.0,5.0438,5.0438,5.0438,5.0438,5.0478,5.0478,5.0478,5.05,5.05,5.05,5.0582,5.0624,5.0664,5.0664,5.072,5.0757,5.0757,5.0775,5.0773,5.0858,5.096,5.1039,5.1039,5.1039,5.1039,5.1039,5.1073,5.1073,5.1073,5.1073,5.1073,5.1073,5.0472,4.9949,4.9949,4.9218,4.8405,4.7682,4.745,4.7062,4.6183,4.6087,4.6028,4.5905,4.5949,4.598,4.5991,4.5975,4.6007,4.6075,4.5404,4.4945,4.4809,4.4159,4.3722,4.3586,4.3586,4.3558,4.3481,4.3481,4.353,4.3594,4.3582,4.4005,2.2992,2.3827,2.4774,2.5783,2.6573,2.7074,0.0,0.0,0.0,0.0,0.0,0.0,0.0,0.0,0.0,0.0,0.0,0.0,0.0,0.0,0.0,0.0,0.0,0.0,4.8776,4.8993,4.9061,4.9061,4.9179,4.9244,4.9244,4.9276,4.9308,4.9371,4.9371,4.9464,4.9663,4.975,4.9807,4.9862,4.9898,4.9978,5.0031,5.0082,5.0108,5.0133,0.0,5.0133,5.0158,5.0158,5.0158,5.0182,5.0278,5.0325,5.0348,5.0457,5.05,5.05,5.0521,5.0521,5.0523,5.0523,5.0542,5.0563,5.0604,5.0625,5.0644,5.072,5.0793,5.0844,5.0844,5.0844,5.0844,5.0844,5.088,5.0932,5.0932,5.0929,5.0925,5.0932,5.0816,5.0703,5.0651,4.992,4.9319,4.9235,4.8597,4.7839,4.7018,4.6917,4.666,4.5984,4.5906,4.5932,4.5917,4.5917,4.5929,4.5941,4.591,4.558,4.4841,4.4685,4.4258,4.354,4.352,4.3481,4.3421,4.3421,4.3788,4.449,4.4446,4.4854,2.2735,2.3528,2.4348,2.5262,2.6144,2.6978,0.0,0.0,0.0,0.0,0.0,0.0,0.0,0.0,0.0,0.0,0.0,0.0,0.0,0.0,0.0,0.0,0.0,0.0,4.8512,4.8697,4.875,4.8767,4.8909,4.8978,4.8978,4.9012,4.9079,4.9127,4.9127,4.9244,4.939,4.9402,4.9544,4.975,4.9778,4.9816,4.9843,4.9871,4.9925,5.0005,0.0,5.0031,5.0108,5.0108,5.0108,5.0108,5.0182,5.0182,5.0207,5.0302,5.0371,5.0412,5.0416,5.0478,5.05,5.05,5.05,5.05,5.0521,5.0563,5.0545,5.0585,5.0702,5.0793,5.0793,5.0793,5.0793,5.0793,5.081,5.0846,5.0846,5.0844,5.0844,5.0846,5.0846,5.0846,5.081,5.0465,5.004,4.9614,4.9189,4.8665,4.7851,4.7754,4.7442,4.6568,4.6491,4.6293,4.5838,4.58,4.5808,4.5905,4.5953,4.582,4.5412,4.5393,4.5207,4.4808,4.4808,4.4777,4.4746,4.4746,4.4955,4.5357,4.528,4.5465,2.2738,2.3594,2.4462,2.5409,0.0,0.0,0.0,0.0,0.0,0.0,0.0,0.0,0.0,0.0,0.0,0.0,0.0,0.0,0.0,0.0,0.0,0.0,0.0,4.647,4.8234,4.8419,4.8457,4.8495,4.8624,4.8715,4.8715,4.8787,4.882,4.8906,4.8906,4.8959,4.9098,4.9131,4.9276,4.9574,4.9604,4.9615,4.9634,4.9663,4.975,4.9843,4.9843,4.9925,5.0005,5.0005,5.0005,5.0005,5.0057,5.0082,5.0108,5.0158,5.0207,5.0255,5.0302,5.0348,5.0393,5.0416,5.0416,5.0457,5.0478,5.0478,5.0478,5.05,5.0605,5.0739,5.0739,5.0739,5.0739,5.0739,5.0739,5.0739,5.0739,5.0739,5.0739,5.0739,5.0739,5.0739,5.0739,5.0739,5.0489,4.9834,4.9738,4.9449,4.8621,4.8505,4.8178,4.7364,4.7268,4.6921,4.6086,4.5816,4.5742,4.5854,4.588,4.5873,4.5893,4.5905,4.5905,4.5905,4.5905,4.5905,4.5893,4.5873,4.5887,4.5866,4.5819,4.5776,2.3175,2.4098,2.5022,2.6573,2.7206,0.0,0.0,0.0,0.0,0.0,0.0,0.0,0.0,0.0,0.0,0.0,0.0,0.0,0.0,0.0,0.0,0.0,0.0,4.6182,4.7886,4.8148,4.8226,4.8226,4.8286,4.8401,4.8494,4.855,4.8569,4.8623,4.8623,4.8678,4.8822,4.8822,4.8962,4.9262,4.9308,4.9352,4.9415,4.9544,4.9653,4.9721,4.9721,4.9721,4.9721,4.9721,4.9721,4.975,4.9871,5.0005,5.0108,5.0108,5.0108,5.0108,5.0133,5.0133,5.0133,5.0188,5.0212,5.0236,5.0371,5.0412,5.0435,5.0478,5.0521,5.0521,5.0521,5.0521,5.0542,5.0603,5.0623,5.0623,5.0623,5.0623,5.0603,5.0542,5.0521,5.0521,5.0521,5.0521,5.0502,5.0445,5.0425,5.0099,4.9255,4.914,4.8855,4.8105,4.8009,4.7719,4.6976,4.6163,4.5696,4.5696,4.5771,4.5847,4.5906,4.5893,4.5905,4.5905,4.5905,4.5893,4.5906,4.5847,4.5819,4.5815,4.5731,4.5668,2.2953,2.396,2.4924,2.6452,0.0,0.0,0.0,0.0,0.0,0.0,0.0,0.0,0.0,0.0,0.0,0.0,0.0,0.0,0.0,0.0,0.0,0.0,4.4841,4.5662,4.6812,4.7415,4.7806,4.7866,4.7951,4.8014,4.8053,4.8151,4.8247,4.8363,4.8363,4.8457,4.8606,4.8606,4.8679,4.882,4.9027,4.916,4.9276,4.9327,4.9371,4.9464,4.9495,4.9555,4.9634,4.9663,4.9692,4.9692,4.975,4.9807,4.9843,4.9952,4.9978,5.0005,5.0082,5.0108,5.0108,5.0133,5.0133,5.0158,5.0207,5.0207,5.0231,5.0283,5.0325,5.0348,5.0478,5.05,5.05,5.0521,5.0542,5.0542,5.0542,5.0542,5.0521,5.05,5.05,5.05,5.05,5.05,5.05,5.05,5.05,5.0385,5.0059,5.0002,4.9697,4.8874,4.8356,4.7703,4.6896,4.6511,4.6088,4.555,4.5665,4.5761,4.5776,4.5791,4.5771,4.5771,4.5771,4.5771,4.5776,4.5742,4.5746,4.575,4.5671,4.562,2.3053,2.407,2.5108,0.0,0.0,0.0,0.0,0.0,0.0,0.0,0.0,0.0,0.0,0.0,0.0,0.0,0.0,0.0,0.0,0.0,0.0,0.0,4.4056,4.4785,4.5702,4.6302,4.6776,4.7132,4.7241,4.7415,4.771,4.777,4.7888,4.8028,4.805,4.813,4.8286,4.8324,4.8401,4.8495,4.866,4.889,4.9079,4.9079,4.9146,4.9193,4.9289,4.9402,4.9483,4.9514,4.9574,4.9615,4.9615,4.9644,4.9721,4.9788,4.9843,4.9843,4.9952,4.9978,5.0005,5.0031,5.0057,5.0082,5.0082,5.0108,5.0108,5.0158,5.0373,5.0607,5.0746,5.0814,5.0936,5.1185,5.1264,5.1264,5.1264,5.1264,5.1165,5.0916,5.0837,5.0741,5.0473,5.0416,5.0393,5.0393,5.0393,5.0371,5.0371,5.0371,5.0164,4.9611,4.8869,4.8142,4.7547,4.7011,4.6455,4.5841,4.5683,4.5616,4.5668,4.5684,4.568,4.57,4.57,4.57,4.57,4.5684,4.5668,4.5668,4.5566,4.5532,2.3586,2.458,0.0,0.0,0.0,0.0,0.0,0.0,0.0,0.0,0.0,0.0,0.0,0.0,0.0,0.0,0.0,0.0,0.0,0.0,0.0,0.0,4.3276,4.364,4.4571,4.4754,4.5143,4.5932,4.6126,4.6554,4.7457,4.7493,4.7554,4.7699,4.7788,4.7793,4.7793,4.7933,4.8032,4.8187,4.8267,4.8439,4.8787,4.8874,4.8906,4.9008,4.9127,4.9179,4.9197,4.9197,4.9276,4.9415,4.9415,4.9525,4.9692,4.9692,4.9692,4.9692,4.9692,4.975,4.9807,4.9871,4.9933,5.0005,5.0082,5.0108,5.0108,5.0108,5.0736,5.1402,5.1421,5.1522,5.183,5.2686,5.29,5.29,5.29,5.29,5.2647,5.1773,5.162,5.1334,5.0474,5.0255,5.0207,5.0188,5.0158,5.0108,5.0108,5.0108,5.0158,5.0278,4.9628,4.9215,4.9215,4.7682,4.6723,4.6704,4.5879,4.5476,4.5586,4.5599,4.5613,4.57,4.57,4.57,4.57,4.5637,4.5586,4.5586,4.5457,4.5361,2.3244,2.4345,0.0,0.0,0.0,0.0,0.0,0.0,0.0,0.0,0.0,0.0,0.0,0.0,0.0,0.0,0.0,0.0,0.0,0.0,0.0,4.192,4.2564,4.3076,4.3404,4.3979,4.4449,4.4769,4.4938,4.5106,4.5364,4.597,4.6362,4.6493,4.7093,4.7468,4.7578,4.706,4.693,4.7128,4.6606,4.6854,4.7757,4.7792,4.7863,4.7898,4.8039,4.8423,4.9012,4.9146,4.9211,4.9276,4.9276,4.9308,4.934,4.9446,4.9476,4.9525,4.9663,4.9721,4.9721,4.975,4.9759,4.9788,4.989,4.9871,4.9898,5.0005,5.0658,5.1483,5.2087,5.2722,5.3129,5.2774,5.273,5.2755,5.2705,5.273,5.2654,5.2348,5.231,5.2044,5.1224,5.1072,5.0837,5.0209,5.0108,5.0108,5.0108,5.0108,5.0108,5.0158,4.9954,4.9596,4.9048,4.798,4.7083,4.6517,4.5736,4.532,4.5438,4.5457,4.5475,4.5494,4.5494,4.5494,4.5494,4.5457,4.5457,4.5476,4.5361,4.5319,2.293,0.0,0.0,0.0,0.0,0.0,0.0,0.0,0.0,0.0,0.0,0.0,0.0,0.0,0.0,0.0,0.0,0.0,0.0,0.0,0.0,4.1261,4.1754,4.2153,4.2209,4.2693,4.3205,4.3613,4.3739,4.397,4.4298,4.4849,4.5187,4.532,4.5864,4.6203,4.6316,4.5917,4.5809,4.5933,4.5584,4.5579,4.5991,4.6526,4.6764,4.6764,4.6943,4.7511,4.8303,4.8441,4.8714,4.9079,4.9079,4.9113,4.9211,4.9308,4.9321,4.9321,4.9495,4.9555,4.9585,4.9634,4.9663,4.9692,4.975,4.975,4.9778,4.9898,5.0778,5.183,5.2379,5.3413,5.4173,5.3696,5.3617,5.3644,5.359,5.3617,5.3548,5.3191,5.3133,5.2867,5.203,5.1585,5.1178,5.0646,5.024,5.0031,5.0031,5.0057,5.0057,5.0057,5.0082,4.9898,4.9423,4.8604,4.7772,4.6919,4.6119,4.5557,4.53,4.5361,4.54,4.54,4.54,4.54,4.54,4.54,4.538,4.5361,4.5298,4.5213,0.0,0.0,0.0,0.0,0.0,0.0,0.0,0.0,0.0,0.0,0.0,0.0,0.0,0.0,0.0,0.0,0.0,0.0,0.0,0.0,0.0,4.1,4.1047,4.1076,4.1163,4.1272,4.1632,4.2439,4.2584,4.3002,4.3779,4.3902,4.4029,4.412,4.4343,4.4423,4.4467,4.4578,4.4628,4.4671,4.4826,4.4529,4.3902,4.5091,4.5644,4.57,4.5956,4.6505,4.7259,4.7368,4.7937,4.8763,4.8837,4.8978,4.9146,4.9164,4.9179,4.9179,4.9276,4.9321,4.9415,4.9514,4.9604,4.9663,4.9663,4.9692,4.9692,4.9778,5.1017,5.2284,5.2361,5.3621,5.4901,5.5038,5.5066,5.5094,5.5066,5.5094,5.4884,5.4134,5.4001,5.3734,5.2859,5.1969,5.1326,5.1174,5.0418,4.9898,4.9898,4.9933,4.9978,4.9978,5.0031,5.0057,5.0082,4.934,4.8542,4.7767,4.6891,4.6035,4.5255,4.5314,4.5379,4.5381,4.5381,4.5381,4.54,4.538,4.5338,4.5297,4.5233,4.5125,0.0,0.0,0.0,0.0,0.0,0.0,0.0,0.0,0.0,0.0,0.0,0.0,0.0,0.0,0.0,0.0,0.0,0.0,0.0,0.0,0.0,4.0631,4.0631,4.068,4.0776,4.0823,4.1004,4.1365,4.1429,4.1574,4.1834,4.2428,4.2824,4.2963,4.357,4.3962,4.418,4.3589,4.3403,4.3611,4.303,4.2739,4.2696,4.3909,4.4504,4.469,4.548,4.5975,4.6214,4.7003,4.7444,4.7702,4.8402,4.8695,4.875,4.8909,4.8978,4.8978,4.9146,4.9211,4.9244,4.9295,4.934,4.9402,4.9446,4.9525,4.9653,4.9692,5.0929,5.2213,5.2232,5.349,5.4736,5.4799,5.4901,5.5,5.4941,5.4971,5.4943,5.4733,5.4695,5.44,5.3585,5.2722,5.1613,5.0251,4.9863,4.975,4.975,4.975,4.9759,4.9759,4.9778,4.9807,4.9862,4.9124,4.8628,4.8549,4.7143,4.6254,4.613,4.551,4.5192,4.5237,4.5237,4.5277,4.5319,4.5256,4.5254,4.5213,4.5103,4.4991,0.0,0.0,0.0,0.0,0.0,0.0,0.0,0.0,0.0,0.0,0.0,0.0,0.0,0.0,0.0,0.0,0.0,0.0,0.0,0.0,0.0,4.0188,4.0188,4.0288,4.0502,4.0502,4.06,4.0793,4.0793,4.0888,4.0948,4.1345,4.1665,4.1806,4.2218,4.2521,4.2678,4.2331,4.2273,4.2379,4.2043,4.1952,4.2097,4.2884,4.3379,4.3627,4.414,4.4654,4.5112,4.5663,4.636,4.7205,4.7703,4.8145,4.8587,4.8714,4.875,4.8785,4.8978,4.9046,4.9079,4.9179,4.9211,4.9244,4.9289,4.9371,4.9464,4.9525,5.0508,5.1612,5.2088,5.3126,5.4163,5.4578,5.4799,5.4841,5.4829,5.481,5.4841,5.4829,5.4799,5.4666,5.4231,5.3104,5.1676,4.9956,4.9692,4.9692,4.9692,4.9692,4.9692,4.9692,4.9692,4.9721,4.975,4.9372,4.8966,4.8632,4.778,4.6973,4.629,4.5816,4.5451,4.5148,4.5148,4.517,4.5192,4.517,4.5148,4.5103,4.4991,4.4938,0.0,0.0,0.0,0.0,0.0,0.0,0.0,0.0,0.0,0.0,0.0,0.0,0.0,0.0,0.0,0.0,0.0,0.0,0.0,0.0,0.0,3.9798,3.9849,3.9952,4.0188,4.0205,4.0238,4.0387,4.0387,4.0436,4.06,4.06,4.0697,4.0776,4.0935,4.1,4.1047,4.1215,4.129,4.1335,4.1426,4.1604,4.1736,4.2103,4.2391,4.2706,4.2706,4.3183,4.401,4.4175,4.5144,4.6539,4.6872,4.7517,4.8217,4.844,4.8532,4.8569,4.8768,4.8839,4.8874,4.9046,4.9113,4.9146,4.9146,4.9211,4.9289,4.9352,5.0016,5.0905,5.1694,5.2485,5.3308,5.4024,5.4175,5.4301,5.4616,5.4692,5.4692,5.4692,5.456,5.4428,5.4277,5.2963,5.1435,4.9908,4.9634,4.9634,4.9634,4.9634,4.9604,4.9604,4.9634,4.9634,4.9663,4.9663,4.939,4.8673,4.8485,4.7777,4.6339,4.6176,4.5761,4.5033,4.508,4.5103,4.5103,4.5103,4.5038,4.501,4.4919,4.4846,0.0,0.0,0.0,0.0,0.0,0.0,0.0,0.0,0.0,0.0,0.0,0.0,0.0,0.0,0.0,0.0,0.0,0.0,0.0,0.0,0.0,3.9501,3.9554,3.959,3.9781,3.9781,3.9833,3.9952,4.0003,4.0037,4.0171,4.0288,4.0355,4.0387,4.0485,4.0631,4.0745,4.0793,4.084,4.0965,4.1076,4.1261,4.1471,4.1498,4.1762,4.2187,4.2391,4.2526,4.2727,4.3646,4.4219,4.4626,4.6142,4.6879,4.714,4.7952,4.8286,4.8344,4.8494,4.8587,4.8623,4.866,4.8785,4.8943,4.8943,4.9079,4.923,4.9211,4.9842,5.0478,5.0609,5.1297,5.1952,5.2064,5.2151,5.2644,5.4339,5.4692,5.4692,5.4692,5.4088,5.3321,5.258,5.1657,5.0666,4.9652,4.9421,4.9371,4.9371,4.9308,4.9295,4.9295,4.9308,4.9402,4.9446,4.9544,4.9596,4.9541,4.8824,4.7994,4.7097,4.638,4.5625,4.4764,4.4919,4.5038,4.5103,4.5038,4.4991,4.501,4.487,4.4789,0.0,0.0,0.0,0.0,0.0,0.0,0.0,0.0,0.0,0.0,0.0,0.0,0.0,0.0,0.0,0.0,0.0,0.0,0.0,0.0,0.0,3.9094,3.9094,3.9148,3.9292,3.9292,3.9415,3.9642,3.9694,3.9746,3.9884,3.9935,3.9986,3.9986,4.0087,4.0188,4.0255,4.0404,4.0534,4.068,4.0793,4.0935,4.1012,4.1169,4.1471,4.1952,4.2019,4.2145,4.2287,4.2826,4.3342,4.3949,4.5265,4.6128,4.6739,4.7642,4.8032,4.8151,4.8304,4.8363,4.8439,4.8513,4.8605,4.875,4.875,4.8839,4.8978,4.9012,4.9321,4.9747,5.0281,5.0673,5.1065,5.1585,5.1731,5.1971,5.2817,5.3053,5.3053,5.3019,5.2719,5.2161,5.1303,5.082,5.0295,4.9458,4.9295,4.9244,4.9244,4.9211,4.9197,4.9197,4.9211,4.9244,4.9276,4.934,4.939,4.9421,4.9096,4.8574,4.7776,4.7024,4.6223,4.5447,4.5067,4.4895,4.4919,4.4895,4.487,4.487,4.4764,4.4659,0.0,0.0,0.0,0.0,0.0,0.0,0.0,0.0,0.0,0.0,0.0,0.0,0.0,0.0,0.0,0.0,0.0,0.0,0.0,0.0,0.0,3.8623,3.8623,3.8678,3.886,3.8914,3.904,3.9325,3.9325,3.9379,3.9468,3.9504,3.9504,3.9504,3.9677,3.9798,3.9798,4.0037,4.0188,4.0337,4.0453,4.0502,4.0551,4.0793,4.1123,4.1453,4.1648,4.1762,4.1934,4.2121,4.2567,4.3298,4.4468,4.5407,4.6205,4.7283,4.7728,4.787,4.8028,4.813,4.819,4.8324,4.8438,4.8532,4.8753,4.879,4.8788,4.9045,4.9004,4.9055,4.9772,4.994,5.0107,5.0775,5.0925,5.109,5.1569,5.1731,5.1765,5.1697,5.1529,5.1174,5.0505,5.0225,4.9888,4.9272,4.9164,4.9113,4.9113,4.9079,4.9046,4.9046,4.9079,4.9113,4.9113,4.9179,4.9197,4.9197,4.9244,4.8952,4.8178,4.7425,4.6638,4.5885,4.5119,4.4719,4.477,4.477,4.477,4.477,4.4632,4.457,0.0,0.0,0.0,0.0,0.0,0.0,0.0,0.0,0.0,0.0,0.0,0.0,0.0,0.0,0.0,0.0,0.0,0.0,0.0,0.0,0.0,3.8116,3.8173,3.8286,3.8567,3.8639,3.8694,3.8805,3.886,3.886,3.886,3.8969,3.9023,3.9023,3.9379,3.9501,3.9501,3.9642,3.9781,3.9952,3.9952,3.9986,4.0138,4.0305,4.0436,4.0614,4.118,4.1426,4.1471,4.1736,4.1884,4.2172,4.3863,4.466,4.5107,4.6649,4.7356,4.7554,4.7657,4.7765,4.7834,4.7974,4.813,4.8373,4.9205,4.9007,4.8698,4.951,4.9196,4.8642,4.8679,4.8679,4.8697,4.8753,4.8862,4.9449,5.1292,5.1697,5.1697,5.1697,5.1009,5.0449,5.0411,4.9758,4.9235,4.9197,4.9046,4.8909,4.8909,4.875,4.8623,4.8623,4.8785,4.8909,4.8909,4.9079,4.9197,4.9197,4.9179,4.8842,4.8039,4.7161,4.6352,4.5548,4.4813,4.4524,4.4712,4.4712,4.4712,4.4712,4.4551,4.4515,0.0,0.0,0.0,0.0,0.0,0.0,0.0,0.0,0.0,0.0,0.0,0.0,0.0,0.0,0.0,0.0,0.0,0.0,0.0,0.0,0.0,3.7801,3.786,3.7902,3.8148,3.8148,3.8189,3.8343,3.8343,3.8455,3.8639,3.875,3.8805,3.886,3.8969,3.9094,3.9202,3.9239,3.9345,3.9435,3.9435,3.9556,3.9746,3.9833,3.9986,4.0138,4.0534,4.0871,4.1215,4.1363,4.1498,4.1745,4.3535,4.4316,4.4689,4.63,4.7088,4.7312,4.7356,4.7468,4.7711,4.8279,4.8569,4.8862,4.9724,4.9862,4.9669,4.957,4.9334,4.9024,4.8623,4.8532,4.855,4.8587,4.8642,4.8881,4.9562,4.9782,4.98,4.9746,4.9451,4.9247,4.9247,4.9006,4.8802,4.8802,4.875,4.8714,4.8714,4.8623,4.8587,4.8587,4.866,4.8714,4.8714,4.8785,4.8802,4.8802,4.8909,4.8832,4.8519,4.7266,4.6475,4.619,4.4878,4.4306,4.4524,4.4524,4.4524,4.4524,4.4411,4.4296,1.6804,0.0,0.0,0.0,0.0,0.0,0.0,0.0,0.0,0.0,0.0,0.0,0.0,0.0,0.0,0.0,0.0,0.0,0.0,0.0,0.0,3.7405,3.748,3.7524,3.7626,3.7685,3.7727,3.796,3.796,0.0,3.8359,3.8359,3.8415,3.8567,3.8567,3.8639,3.8821,3.8821,3.886,3.899,3.899,3.9061,3.9272,3.9415,3.952,3.9625,3.9901,4.0355,4.084,4.0965,4.1088,4.1366,4.287,4.3704,4.4294,4.5629,4.6471,4.6934,4.698,4.7116,4.7419,4.8299,4.8684,4.8978,5.0144,5.0377,5.0192,5.0047,4.9633,4.9186,4.8757,4.8506,4.8324,4.8364,4.8402,4.8402,4.8402,4.8569,4.8697,4.8642,4.8587,4.8587,4.8569,4.8587,4.8532,4.8532,4.8495,4.8458,4.8458,4.842,4.8402,4.8402,4.8458,4.8458,4.8458,4.8495,4.8476,4.8476,4.8624,4.8679,4.8679,4.7231,4.6409,4.6457,4.4841,4.4085,4.4207,4.4266,4.4306,4.4306,4.4207,4.4055,0.0,0.0,0.0,0.0,0.0,0.0,0.0,0.0,0.0,0.0,0.0,0.0,0.0,0.0,0.0,0.0,0.0,0.0,0.0,0.0,0.0,0.0,3.6952,3.6982,3.7131,3.7131,3.7251,3.7578,3.7669,3.7727,3.7828,3.786,3.796,3.8059,3.81,3.8189,3.8391,3.8391,3.8448,3.8583,3.8583,3.8639,3.8788,3.8914,3.8969,3.9023,3.9325,3.9798,4.0288,4.0551,4.0745,4.0957,4.1825,4.278,4.3785,4.4589,4.5536,4.6381,4.6542,4.6684,4.6966,4.7982,4.8325,4.8693,5.0541,5.0551,5.0128,5.0968,5.0134,4.9023,4.8968,4.847,4.7992,4.7992,4.7992,4.7992,4.7992,4.8288,4.8587,4.8587,4.8587,4.8569,4.8494,4.8513,4.8457,4.8306,4.8247,4.8187,4.8187,4.809,4.7992,4.7992,4.809,4.8187,4.8187,4.8247,4.8306,4.8306,4.8401,4.8475,4.8475,4.7002,4.6186,4.6205,4.4617,4.3804,4.3804,4.4005,4.4109,4.406,4.3942,4.3781,1.5813,0.0,0.0,0.0,0.0,0.0,0.0,0.0,0.0,0.0,0.0,0.0,0.0,0.0,0.0,0.0,0.0,0.0,0.0,0.0,0.0,0.0,3.4939,3.5058,3.522,3.5354,3.5428,0.0,3.6088,3.6546,3.669,3.7207,3.7535,3.7594,3.7578,3.7669,3.7876,3.7876,3.7992,3.8091,3.8091,3.8189,3.827,3.8343,3.8455,3.875,3.8914,3.9131,3.9398,3.9935,4.0255,4.0571,4.1437,4.2341,4.3249,4.4227,4.5192,4.5988,4.6137,4.6235,4.661,4.8081,4.8671,4.907,5.0838,5.1325,5.1155,5.0892,5.0114,4.9163,4.8186,4.7844,4.7824,4.7888,4.7929,4.7951,4.7992,4.8111,4.819,4.8229,4.8229,4.8267,4.8363,4.8229,4.813,4.8032,4.801,4.797,4.7933,4.7893,4.7852,4.7783,4.7824,4.7847,4.7893,4.7933,4.7974,4.8072,4.8111,4.813,4.813,4.6614,4.5791,4.5902,4.427,4.3479,4.3566,4.3767,4.3814,4.3744,4.3545,4.3461,1.6002,1.6599,0.0,0.0,0.0,0.0,2.0968,2.1664,2.2409,0.0,0.0,0.0,0.0,0.0,0.0,0.0,0.0,0.0,0.0,0.0,0.0,0.0,3.3955,3.4105,3.4208,3.4327,3.4445,3.4503,3.4948,3.5466,3.5864,3.6372,3.6776,3.7118,3.7134,3.7194,3.7421,3.7421,3.7464,3.7626,3.7626,3.7669,3.7812,3.7886,3.8017,3.8262,3.8399,3.8567,3.8678,3.9169,3.9609,4.0088,4.0663,4.1614,4.2757,4.3409,4.4458,4.5494,4.5632,4.5735,4.6131,4.7891,4.8486,4.8905,5.0681,5.1263,5.1189,5.0528,4.9661,4.8644,4.7572,4.7381,4.7511,4.7578,4.7621,4.7663,4.7687,4.7687,4.7788,4.7992,4.805,4.8072,4.8151,4.8072,4.7951,4.7847,4.7783,4.7723,4.7663,4.7645,4.756,4.7554,4.7511,4.7536,4.7603,4.7585,4.7627,4.7687,4.7747,4.7788,4.7788,4.6303,4.5488,4.5583,4.3962,4.3178,4.3268,4.3479,4.3513,4.3375,4.3214,4.3105,0.0,0.0,0.0,0.0,0.0,0.0,1.9252,2.0231,2.1332,2.1935,0.0,0.0,0.0,0.0,0.0,0.0,0.0,0.0,0.0,0.0,0.0,0.0,0.0,3.3487,3.3487,3.3593,3.3757,3.3861,3.3981,3.4392,3.5262,3.5385,3.5753,3.6461,3.6554,3.6739,3.6938,3.6938,3.6984,3.7134,3.7134,3.7178,3.7358,3.7508,3.7583,3.7642,3.7902,3.8001,3.8059,3.8399,3.8969,3.9625,3.9729,4.0776,4.2233,4.2375,4.3503,4.4923,4.5069,4.523,4.563,4.7332,4.7908,4.824,4.9957,5.0449,5.0345,4.9749,4.8788,4.7791,4.7102,4.7025,4.7098,4.7143,4.7187,4.7258,4.7169,4.7169,4.7302,4.7728,4.7911,4.7951,4.7911,4.7911,4.7829,4.7657,4.7486,4.7399,4.7461,4.7338,4.7214,4.7214,4.7214,4.7214,4.7214,4.7258,4.7258,4.7276,4.7381,4.7414,4.7324,4.5983,4.5174,4.5084,4.3583,4.2806,4.2806,4.3087,4.316,4.303,4.2918,4.2786,0.0,0.0,0.0,0.0,0.0,0.0,1.8976,1.9364,1.971,0.0,0.0,0.0,0.0,0.0,0.0,0.0,0.0,0.0,0.0,0.0,0.0,0.0,0.0,3.1382,3.1382,3.1664,3.184,3.184,3.2496,3.3201,3.4107,3.4652,3.5047,3.5354,3.5889,3.6226,3.6336,3.6336,3.6476,3.6662,3.6662,3.6723,3.6831,3.6907,3.7013,3.7314,3.7358,3.7551,3.7801,3.796,3.8399,3.8969,3.9131,4.0188,4.1633,4.1909,4.2975,4.4327,4.4575,4.4742,4.5077,4.6169,4.657,4.6852,4.7986,4.8318,4.8234,4.7683,4.7506,4.7354,4.6544,4.6512,4.6655,4.6684,4.687,4.6934,4.6495,4.6398,4.6447,4.6525,4.7169,4.7657,4.7249,4.7205,4.7205,4.7116,4.6934,4.6824,4.7088,4.698,4.687,4.6778,4.6731,4.6778,4.687,4.687,4.6916,4.707,4.707,4.6829,4.6167,4.5237,4.4449,4.3883,4.2792,4.2269,4.2269,4.2591,4.2709,4.2688,4.2512,4.2409,0.0,0.0,0.0,1.7275,0.0,0.0,0.0,1.8303,1.8465,1.9062,1.9717,0.0,0.0,0.0,0.0,0.0,0.0,0.0,0.0,0.0,0.0,0.0,0.0,2.9566,2.9639,2.9841,3.0146,3.0397,3.1205,3.199,3.2733,3.3511,3.4143,3.4583,3.5244,3.5653,3.58,3.58,3.5879,3.6085,3.6085,3.6211,3.6352,3.6399,3.6523,3.6693,3.6892,3.7013,3.721,3.7417,3.7711,3.8059,3.8528,3.9476,4.0647,4.1236,4.2178,4.329,4.3872,4.4162,4.4428,4.5382,4.5733,4.6039,4.6977,4.7055,4.6845,4.6631,4.6464,4.629,4.589,4.5955,4.6172,4.6204,4.6204,4.6105,4.5871,4.577,4.577,4.577,4.6204,4.6572,4.6607,4.6607,4.6607,4.6607,4.635,4.6204,4.6186,4.6332,4.6332,4.6235,4.6186,4.6235,4.6284,4.6284,4.6332,4.6398,4.6381,4.6046,4.53,4.4477,4.3525,4.2361,4.1895,4.1657,4.1657,4.1727,4.1941,4.2151,4.2019,4.1952,0.0,0.0,0.0,0.0,0.0,1.7393,0.0,0.0,0.0,1.8073,0.0,0.0,0.0,0.0,0.0,0.0,0.0,0.0,0.0,0.0,0.0,0.0,2.7769,2.8068,2.8312,2.8482,2.8785,2.9406,3.0089,3.0729,3.1492,3.2273,3.3029,3.3868,3.4549,3.4999,3.5219,3.5219,3.5365,3.5509,3.5559,3.5638,3.5846,3.5958,3.6006,3.607,3.6399,3.6523,3.66,3.6892,3.7013,3.7134,3.7918,3.8755,3.9625,4.0473,4.1367,4.2249,4.3092,4.3519,4.3796,4.453,4.4892,4.5169,4.5951,4.5947,4.5699,4.5699,4.5477,4.523,4.523,4.5389,4.5563,4.5615,4.5406,4.5264,4.5264,4.5264,4.5264,4.5264,4.5264,4.5423,4.5972,4.6023,4.6023,4.6023,4.5752,4.5494,4.5266,4.558,4.5768,4.5615,4.5615,4.5615,4.5615,4.5615,4.5615,4.5615,4.5476,4.506,4.4331,4.3412,4.2319,4.1071,4.1007,4.1024,4.1024,4.0884,4.11,4.1578,4.1498,4.1453,0.0,0.0,0.0,0.0,1.7086,0.0,0.0,0.0,1.7253,1.7319,0.0,0.0,0.0,0.0,0.0,0.0,0.0,0.0,0.0,0.0,0.0,2.5355,2.6244,2.6972,2.7661,2.7792,2.8222,2.8964,2.9078,2.9511,3.0398,3.1094,3.1855,3.2684,3.3354,3.3981,3.4534,3.4683,3.4817,3.4831,3.4935,3.5067,3.5279,3.5279,3.5379,3.5529,3.5737,3.5879,3.61,3.6274,3.6399,3.6662,3.7238,3.8023,3.8902,3.9786,4.0691,4.1539,4.2437,4.2929,4.3174,4.3317,4.3531,4.383,4.3913,4.4131,4.433,4.433,4.4474,4.4614,4.4614,4.4614,4.4725,4.5032,4.4886,4.4682,4.4682,4.4682,4.4682,4.4682,4.4682,4.4848,4.5423,4.5476,4.5476,4.5476,4.5015,4.4614,4.4614,4.4855,4.5018,4.5018,4.5018,4.5018,4.5018,4.5018,4.5018,4.5018,4.4384,4.3682,4.298,4.1542,4.0686,4.0497,4.0402,4.0387,4.0387,4.0288,4.05,4.1071,4.0995,4.0901,0.0,0.0,0.0,0.0,0.0,0.0,1.7002,0.0,1.6918,0.0,0.0,0.0,0.0,0.0,0.0,0.0,1.8541,0.0,0.0,0.0,0.0,0.0,0.0,0.0,2.5507,2.5992,2.6519,2.7273,2.8075,2.8685,2.9195,3.0267,3.1155,3.1874,3.2649,3.336,3.3937,3.4157,3.4278,3.4346,3.4399,3.4534,3.475,3.475,3.4802,3.4986,3.5184,3.5329,3.5524,3.5688,3.5864,3.6085,3.6305,3.6894,3.7802,3.8695,3.9531,4.0355,4.1182,4.1885,4.2539,4.2726,4.2896,4.3019,4.3035,4.3174,4.3432,4.3476,4.3638,4.3856,4.3931,4.4006,4.4006,4.4121,4.408,4.4039,4.4039,4.4039,4.4039,4.4039,4.4039,4.4097,4.431,4.4648,4.4958,4.4958,4.4219,4.368,4.368,4.403,4.4259,4.4128,4.4128,4.4128,4.4128,4.4128,4.4128,4.4128,4.3037,4.2265,4.1963,4.0503,3.9697,3.9697,3.9592,3.9556,3.9556,3.9382,3.947,3.9714,4.0104,4.0204,1.928,0.0,0.0,0.0,0.0,0.0,0.0,0.0,0.0,0.0,0.0,0.0,0.0,0.0,1.7067,1.7067,0.0,1.7731,0.0,0.0,0.0,0.0,0.0,0.0,0.0,2.4135,2.4772,2.5673,2.6681,2.7561,2.818,2.9164,3.009,3.0964,3.1727,3.2495,3.3128,3.3437,3.373,3.377,3.3839,3.3991,3.421,3.421,3.4293,3.4496,3.4601,3.4735,3.4935,3.5037,3.5234,3.5444,3.5444,3.5864,3.6569,3.7592,3.8419,3.9062,3.9833,4.0784,4.1725,4.2141,4.2333,4.2301,4.214,4.2155,4.2294,4.2207,4.2439,4.2769,4.2906,4.3131,4.3312,4.3312,4.3312,4.3251,4.3113,4.3052,4.3052,4.3052,4.299,4.2929,4.2929,4.3535,4.3964,4.3831,4.3218,4.2851,4.2867,4.3218,4.3459,4.3339,4.3339,4.3339,4.3279,4.3279,4.3136,4.2922,4.1681,4.091,4.0713,3.9483,3.881,3.881,3.8733,3.8678,3.8678,3.8567,3.8511,3.8528,3.9239,3.9487,0.0,0.0,0.0,1.7257,0.0,0.0,0.0,0.0,1.62,0.0,0.0,0.0,0.0,1.6212,1.6225,1.6225,1.6237,0.0,0.0,0.0,0.0,0.0,0.0,0.0,0.0,2.2616,2.3201,2.457,2.4791,2.5747,2.7631,2.7754,2.8452,2.98,3.0445,3.1117,3.182,3.2625,3.3058,3.3058,3.3199,3.3423,3.3605,3.3605,3.3744,3.3965,3.4074,3.4128,3.4128,3.4332,3.4549,3.4765,3.4868,3.5067,3.5419,3.6812,3.7443,3.7712,3.8552,3.9495,4.0493,4.1367,4.1654,4.1528,4.0847,4.0769,4.0753,4.0084,4.0603,4.1365,4.1349,4.2005,4.2648,4.2618,4.2634,4.2429,4.1785,4.1654,4.1654,4.1654,4.1421,4.1169,4.1169,4.1996,4.2429,4.1785,4.1916,4.2174,4.2302,4.2539,4.2664,4.2618,4.2601,4.2601,4.2445,4.2445,4.2075,4.1117,4.0459,3.9738,3.899,3.8328,3.7943,3.7943,3.7943,3.7943,3.7943,3.7943,3.7844,3.7759,3.8472,3.8733,0.0,0.0,1.8523,1.8167,0.0,0.0,0.0,0.0,0.0,0.0,0.0,0.0,0.0,1.5736,1.5736,1.5736,1.5736,1.5852,0.0,0.0,0.0,0.0,0.0,0.0,0.0,0.0,0.0,2.338,2.3966,2.484,2.6334,2.696,2.7784,2.904,2.9861,3.0593,3.1232,3.2044,3.2417,3.2417,3.2632,3.2704,3.2789,3.2931,3.3143,3.3297,3.3353,3.3479,3.3563,3.3799,3.3937,3.4128,3.4332,3.4467,3.4765,3.5684,3.6371,3.6985,3.7933,3.858,3.9009,3.9408,3.9551,3.9505,3.9271,3.9259,3.9277,3.9171,3.9392,3.9787,4.0436,4.0865,4.1166,4.1658,4.1704,4.1638,4.1374,4.0919,4.0539,4.0539,4.047,4.0347,4.0347,4.0662,4.1003,4.1221,4.139,4.1507,4.1573,4.1688,4.1769,4.172,4.1623,4.1525,4.1475,4.1475,4.1314,4.1012,4.0368,3.9691,3.8984,3.8292,3.7694,3.7282,3.7163,3.7134,3.7134,3.7013,3.6892,3.6708,3.6982,3.7282,2.0055,1.9449,0.0,1.8403,1.8053,0.0,1.7015,0.0,1.6563,0.0,0.0,0.0,0.0,1.5513,1.5513,1.5513,1.5513,1.5513,0.0,1.5659,0.0,0.0,0.0,0.0,0.0,0.0,2.027,2.1728,2.2578,2.3618,0.0,2.5803,2.6791,2.7826,2.9072,2.9914,3.0357,3.1229,3.1776,3.185,3.1909,3.2069,3.2214,3.2359,3.2503,3.2704,3.2704,3.2775,3.2988,3.3157,3.3297,3.3548,3.3632,3.3839,3.4113,3.4773,3.5436,3.6045,3.7037,3.7479,3.7725,3.8071,3.8132,3.8101,3.7857,3.7781,3.7785,3.7606,3.7827,3.82,3.8958,3.9554,4.0037,4.0437,4.0717,4.082,4.0699,4.0246,3.9854,3.9768,3.9768,3.9768,3.9768,3.9768,3.998,4.0662,4.0768,4.082,4.082,4.0904,4.0904,4.082,4.0668,4.06,4.0547,4.0462,4.0462,4.0462,3.9794,3.9241,3.8795,3.8135,3.7428,3.6721,3.6547,3.6377,3.6148,3.6022,3.5879,3.5737,3.5737,3.5913]},{"header":{"parameterUnit":"m.s-1","parameterCategory":1,"la1":30.6,"la2":29.2853,"lo1":-89.7004,"lo2":-87.6739,"dy":0.0162,"dx":0.0183,"nx":112,"ny":82,"refTime":"2023-06-05T00:00:00:Z","depth":0,"parameterNumber":3,"parameterNumberName":"V-component_of_WINDS"},"data":[0.0,0.0,0.0,0.0,0.0,0.0,0.0,0.0,0.0,0.0,0.0,0.0,0.0,0.0,0.0,0.0,0.0,0.0,0.0,0.0,0.0,0.0,0.0,0.0,0.0,0.0,0.0,0.0,0.0,0.0,0.0,0.0,0.0,0.0,0.0,0.0,0.0,0.0,0.0,0.0,0.0,0.0,0.0,0.0,0.0,0.0,0.0,0.0,0.0,0.0,0.0,0.0,0.0,0.0,0.0,0.0,0.0,0.0,0.0,0.0,0.0,0.0,0.0,0.0,0.0,0.0,0.0,0.0,0.0,0.0,0.0,0.0,0.0,0.0,0.0,0.0,0.0,0.0,0.0,0.0,0.0,0.0,0.0,0.0,0.0,0.0,0.0,0.0,0.0,0.0,0.0,0.2703,0.3205,0.3483,0.3391,0.3385,0.333,0.3034,0.0,0.0,0.0,0.0,0.0,0.0,0.0,0.0,0.0,0.0,0.0,0.0,0.0,0.0,0.0,0.0,0.0,0.0,0.0,0.0,0.0,0.0,0.0,0.0,0.0,0.0,0.0,0.0,0.0,0.0,0.0,0.0,0.0,0.0,0.0,0.0,0.0,0.0,0.0,0.0,0.0,0.0,0.0,0.0,0.0,0.0,0.0,0.0,0.0,0.0,0.0,0.0,0.0,0.0,0.0,0.0,0.0,0.0,0.0,0.0,0.0,0.0,0.0,0.0,0.0,0.0,0.0,0.0,0.0,0.0,0.0,0.0,0.0,0.0,0.0,0.0,0.0,0.0,0.0,0.0,0.0,0.0,0.0,0.0,0.0,0.0,0.0,0.0,0.0,0.0,0.0,0.0,0.0,0.0,0.0,0.0,0.0,0.0,0.0,0.0,0.0,0.0,0.0,0.0,0.225,0.2921,0.3323,0.3573,0.3487,0.3479,0.333,0.3038,0.0,0.0,0.0,0.0,0.0,0.0,0.0,0.0,0.0,0.0,0.0,0.0,0.0,0.0,0.0,0.0,0.0,0.0,0.0,0.0,0.0,0.0,0.0,0.0,0.0,0.0,0.0,0.0,0.0,0.0,0.0,0.0,0.0,0.0,0.0,0.0,0.0,0.0,0.0,0.0,0.0,0.0,0.0,0.0,0.0,0.0,0.0,0.0,0.0,0.0,0.0,0.0,0.0,0.0,0.0,0.0,0.0,0.0,0.0,0.0,0.0,0.0,0.0,0.0,0.0,0.0,0.0,0.0,0.0,0.0,0.0,0.0,0.0,0.0,0.0,0.0,0.0,0.0,0.0,0.0,0.0,0.0,0.0,0.0,0.0,0.0,0.0,0.0,0.0,0.0,0.0,0.0,0.0,0.0,0.0,0.0,0.0,0.0,0.0,0.0,0.0,0.0,0.0,0.2348,0.2692,0.3045,0.3467,0.3646,0.3511,0.3499,0.3344,0.3038,0.2917,0.0,0.0,0.0,0.0,0.0,0.0,0.0,0.0,0.0,0.0,0.0,0.0,0.0,0.0,0.0,0.0,0.0,0.0,0.0,0.0,0.0,0.0,0.0,0.0,0.0,0.0,0.0,0.0,0.0,0.0,0.0,0.0,0.0,0.0,0.0,0.0,0.0,0.0,0.0,0.0,0.0,0.0,0.0,0.0,0.0,0.0,0.0,0.0,0.0,0.0,0.0,0.0,0.0,0.0,0.0,0.0,0.0,0.0,0.0,0.0,0.0,0.0,0.0,0.0,0.0,0.0,0.0,0.0,0.0,0.0,0.0,0.0,0.0,0.0,0.0,0.0,0.0,0.0,0.0,0.0,0.0,0.0,0.0,0.0,0.0,0.0,0.0,0.0,0.0,0.0,0.0,0.0,0.0,0.0,0.0,0.0,0.0,0.0,0.0,0.0,0.0,0.0,0.2729,0.306,0.3207,0.3581,0.3691,0.3516,0.3499,0.3344,0.3038,0.2997,0.0,0.0,0.0,0.0,0.0,0.0,0.0,0.0,0.0,0.0,0.0,0.0,0.0,0.0,0.0,0.0,0.0,0.0,0.0,0.0,0.0,0.0,0.0,0.0,0.0,0.0,0.0,0.0,0.0,0.0,0.0,0.0,0.0,0.0,0.0,0.0,0.0,0.0,0.0,0.0,0.0,0.0,0.0,0.0,0.0,0.0,0.0,0.0,0.0,0.0,0.0,0.0,0.0,0.0,0.0,0.0,0.0,0.0,0.0,0.0,0.0,0.0,0.0,0.0,0.0,0.0,0.0,0.0,0.0,0.0,0.0,0.0,0.0,0.0,0.0,0.0,0.0,0.0,0.0,0.0,0.0,0.0,0.0,0.0,0.0,0.0,0.0,0.0,0.0,0.0,0.0,0.0,0.0,0.0,0.0,0.0,0.0,0.0,0.0,0.0,0.0,0.0,0.2797,0.3207,0.3207,0.3581,0.3691,0.3516,0.3499,0.3344,0.3038,0.2881,0.0,0.0,0.0,0.0,0.0,0.0,0.0,0.0,0.0,0.0,0.0,0.0,0.0,0.0,0.0,0.0,0.0,0.0,0.0,0.0,0.0,0.0,0.0,0.0,0.0,0.0,0.0,0.0,0.0,0.0,0.0,0.0,0.0,0.0,0.0,0.0,0.0,0.0,0.0,0.0,0.0,0.0,0.0,0.0,0.0,0.0,0.0,0.0,0.0,0.0,0.0,0.0,0.0,0.0,0.0,0.0,0.0,0.0,0.0,0.0,0.0,0.0,0.0,0.0,0.0,0.0,0.0,0.0,0.0,0.0,0.0,0.0,0.0,0.0,0.0,0.0,0.0,0.0,0.0,0.0,0.0,0.0,0.0,0.0,0.0,0.0,0.0,0.0,0.0,0.0,0.0,0.0,0.0,0.0,0.0,0.0,0.0,0.0,0.0,0.0,0.0,0.0,0.2867,0.3279,0.0,0.3656,0.3691,0.3516,0.3499,0.3344,0.3038,0.0,0.0,0.0,0.0,0.0,0.0,0.0,0.0,0.0,0.0,0.0,0.0,0.0,0.0,0.0,0.0,0.0,0.0,0.0,0.0,0.0,0.0,0.0,0.0,0.0,0.0,0.0,0.0,0.0,0.0,0.0,0.0,0.0,0.0,0.0,0.0,0.0,0.0,0.0,0.0,0.0,0.0,0.0,0.0,0.0,0.0,0.0,0.0,0.0,0.0,0.0,0.0,0.0,0.0,0.0,0.0,0.0,0.0,0.0,0.0,0.0,0.0,0.0,0.0,0.0,0.0,0.0,0.0,0.0,0.0,0.0,0.0,0.0,0.0,0.0,0.0,0.0,0.0,0.0,0.0,0.0,0.0,0.0,0.0,0.0,0.0,0.0,0.0,0.0,0.0,0.0,0.0,0.0,0.0,0.0,0.0,0.0,0.0,0.0,0.0,0.0,0.0,0.253,0.3003,0.3354,0.0,0.3658,0.3691,0.3516,0.3499,0.3344,0.3038,0.0,0.0,0.0,0.0,0.0,0.0,0.0,0.0,0.0,0.0,0.0,0.0,0.0,0.0,0.0,0.0,0.0,0.0,0.0,0.0,0.0,0.0,0.0,0.0,0.0,0.0,0.0,0.0,0.0,0.0,0.0,0.0,0.0,0.0,0.0,0.0,0.0,0.0,0.0,0.0,0.0,0.0,0.0,0.0,0.0,0.0,0.0,0.0,0.0,0.0,0.0,0.0,0.0,0.0,0.0,0.0,0.0,0.0,0.0,0.0,0.0,0.0,0.0,0.0,0.0,0.0,0.0,0.0,0.0,0.0,0.0,0.0,0.0,0.0,0.0,0.0,0.0,0.0,0.0,0.0,0.0,0.0,0.0,0.0,0.0,0.0,0.0,0.0,0.0,0.0,0.0,0.0,0.0,0.0,0.0,0.0,0.0,0.0,0.0,0.0,0.0,0.0,0.2655,0.3141,0.3499,0.3501,0.3658,0.3691,0.3516,0.3499,0.3344,0.0,0.0,0.0,0.0,0.0,0.0,0.0,0.0,0.0,0.0,0.0,0.0,0.0,0.0,0.0,0.0,0.0,0.0,0.0,0.0,0.0,0.0,0.0,0.0,0.0,0.0,0.0,0.0,0.0,0.0,0.0,0.0,0.0,0.0,0.0,0.0,0.0,0.0,0.0,0.0,0.0,0.0,0.0,0.0,0.0,0.0,0.0,0.0,0.0,0.0,0.0,0.0,0.0,0.0,0.0,0.0,0.0,0.0,0.0,0.0,0.0,0.0,0.0,0.0,0.0,0.0,0.0,0.0,0.0,0.0,0.0,0.0,0.0,0.0,0.0,0.0,0.0,0.0,0.0,0.0,0.0,0.0,0.0,0.0,0.0,0.0,0.0,0.0,0.0,0.0,0.0,0.0,0.0,0.0,0.0,0.0,0.0,0.0,0.0,0.0,0.0,0.0,0.0,0.2789,0.3245,0.3524,0.3583,0.3693,0.3691,0.3516,0.3499,0.3344,0.3038,0.0,0.0,0.0,0.0,0.0,0.0,0.0,0.0,0.0,0.0,0.0,0.0,0.0,0.0,0.0,0.0,0.0,0.0,0.0,0.0,0.0,0.0,0.0,0.0,0.0,0.0,0.0,0.0,0.0,0.0,0.0,0.0,0.0,0.0,0.0,0.0,0.0,0.0,0.0,0.0,0.0,0.0,0.0,0.0,0.0,0.0,0.0,0.0,0.0,0.0,0.0,0.0,0.0,0.0,0.0,0.0,0.0,0.0,0.0,0.0,0.0,0.0,0.0,0.0,0.0,0.0,0.0,0.0,0.0,0.0,0.0,0.0,0.0,0.0,0.0,0.0,0.0,0.0,0.0,0.0,0.0,0.0,0.0,0.0,0.0,0.0,0.0,0.0,0.0,0.0,0.0,0.0,0.0,0.0,0.0,0.0,0.0,0.0,0.0,0.0,0.0,0.0,0.2998,0.3283,0.3532,0.3616,0.3707,0.3691,0.3516,0.3499,0.3344,0.3038,0.0,0.0,0.0,0.0,0.0,0.0,0.0,0.0,0.0,0.0,0.0,0.0,0.0,0.0,0.0,0.0,0.0,0.0,0.0,0.0,0.0,0.0,0.0,0.0,0.0,0.0,0.0,0.0,0.0,0.0,0.0,0.0,0.0,0.0,0.0,0.0,0.0,0.0,0.0,0.0,0.0,0.0,0.0,0.0,0.0,0.0,0.0,0.0,0.0,0.0,0.0,0.0,0.0,0.0,0.0,0.0,0.0,0.0,0.0,0.0,0.0,0.0,0.0,0.0,0.0,0.0,0.0,0.0,0.0,0.0,0.0,0.0,0.0,0.0,0.0,0.0,0.0,0.0,0.0,0.0,0.0,0.0,0.0,0.0,0.0,0.0,0.0,0.0,0.0,0.0,0.0,0.0,0.0,0.0,0.0,0.0,0.0,0.0,0.0,0.0,0.0,0.0,0.3149,0.3391,0.3536,0.363,0.3714,0.3695,0.3526,0.3503,0.335,0.3063,0.0,0.0,0.0,0.0,0.0,0.0,0.0,0.0,0.0,0.0,0.0,0.0,0.0,0.0,0.0,0.0,0.0,0.0,0.0,0.0,0.0,0.0,0.0,0.0,0.0,0.0,0.0,0.0,0.0,0.0,0.0,0.0,0.0,0.0,0.0,0.0,0.0,0.0,0.0,0.0,0.0,0.0,0.0,0.0,0.0,0.0,0.0,0.0,0.0,0.0,0.0,0.0,0.0,0.0,0.0,0.0,0.0,0.0,0.0,0.0,-0.0848,0.0,0.0,0.0,0.0,0.0,0.0,0.0,0.0,0.0,0.0,0.0,0.0,0.0,0.0,0.0,0.0,0.0,0.0,0.0,0.0,0.0,0.0,0.0,0.0,0.0,0.0,0.0,0.0,0.0,0.0,0.0,0.0,0.0,0.0,0.0,0.0,0.0,0.0,0.0,0.0,0.0,0.3303,0.3432,0.356,0.3718,0.3752,0.372,0.3607,0.3538,0.3405,0.3183,0.3034,0.0,0.0,0.0,0.0,0.0,0.0,0.0,0.0,0.0,0.0,0.0,0.0,0.0,0.0,0.0,0.0,0.0,0.0,0.0,0.0,0.0,0.0,0.0,0.0,0.0,0.0,0.0,0.0,0.0,0.0,0.0,0.0,0.0,0.0,0.0,0.0,0.0,0.0,0.0,0.0,0.0,0.0,0.0,0.0,0.0,0.0,0.0,0.0,0.0,0.0,0.0,0.0,0.0,0.0,0.0,0.0,0.0,0.0,0.0,0.0,-0.0885,0.0,0.0,0.0,0.0,0.0,0.0,0.0,0.0,0.0,0.0,0.0,0.0,0.0,0.0,0.0,0.0,0.0,0.0,0.0,0.0,0.0,0.0,0.0,0.0,0.0,0.0,0.0,0.0,0.0,0.0,0.0,0.0,0.0,0.0,0.0,0.0,0.0,0.0,0.0,0.0,0.3399,0.3505,0.3614,0.3906,0.3921,0.396,0.3938,0.3843,0.3635,0.3374,0.3226,0.0,0.0,0.0,0.0,0.0,0.0,0.0,0.0,0.0,0.0,0.0,0.0,0.0,0.0,0.0,0.0,0.0,0.0,0.0,0.0,0.0,0.0,0.0,0.0,0.0,0.0,0.0,0.0,0.0,0.0,0.0,0.0,0.0,0.0,0.0,0.0,0.0,0.0,0.0,0.0,0.0,0.0,0.0,0.0,0.0,0.0,0.0,0.0,0.0,0.0,0.0,0.0,0.0,-0.1088,-0.1102,-0.1108,-0.1108,-0.1108,-0.1104,-0.1056,-0.1009,-0.0906,-0.0906,0.0,0.0,0.0,0.0,0.0,0.0,0.0,0.0,0.0,0.0,0.0,0.0,0.0,0.0,0.0,0.0,0.0,0.0,0.0,0.0,0.0,0.0,0.0,0.0,0.1661,0.1766,0.1697,0.0,0.0,0.0,0.0,0.0,0.0,0.0,0.0,0.0,0.0,0.0,0.3497,0.3583,0.3739,0.4068,0.4157,0.4201,0.4346,0.4239,0.3951,0.3628,0.3506,0.325,0.0,0.0,0.0,0.0,0.0,0.0,0.0,0.0,0.0,0.0,0.0,0.0,0.0,0.0,0.0,0.0,0.0,0.0,0.0,0.0,0.0,0.0,0.0,0.0,0.0,0.0,0.0,0.0,0.0,0.0,0.0,0.0,-0.2097,-0.1997,0.0,0.0,0.0,0.0,0.0,0.0,0.0,0.0,0.0,0.0,0.0,0.0,0.0,-0.1424,-0.1303,-0.117,-0.1132,-0.1188,-0.1192,-0.1208,-0.131,-0.131,-0.131,-0.131,-0.1301,0.0,-0.0995,-0.0995,0.0,0.0,0.0,0.0,0.0,0.0,0.0,0.0,0.0,0.0,0.0,0.0,0.0,0.0,0.0,0.0,0.0,0.0,0.0,0.0,0.0,0.0,0.1602,0.1776,0.1991,0.2121,0.0,0.2,0.1925,0.1925,0.2045,0.0,0.0,0.0,0.0,0.0,0.0,0.0,0.3577,0.377,0.3893,0.4068,0.4231,0.438,0.4365,0.4348,0.4163,0.4044,0.3849,0.3639,0.3297,0.3058,0.0,0.0,0.0,0.0,0.0,0.0,0.0,0.0,0.0,0.0,0.0,0.0,0.0,0.0,0.0,0.0,0.0,0.0,0.0,0.0,0.0,0.0,0.0,0.0,0.0,0.0,0.0,0.0,0.0,-0.2359,-0.239,-0.2355,-0.2436,-0.2505,0.0,0.0,0.0,0.0,0.0,0.0,0.0,0.0,0.0,-0.1856,-0.1706,-0.1551,-0.1464,-0.1281,-0.1236,-0.1263,-0.128,-0.1295,-0.1308,-0.1308,-0.1308,-0.1308,-0.1308,-0.1279,-0.115,-0.1101,-0.1065,-0.1037,0.0,0.0,0.0,0.0,0.0,0.0,0.0,0.0,0.0,0.0,0.0,0.0,0.0,0.0,0.0,0.0,0.0,0.0,0.0,0.0,0.1736,0.1967,0.2114,0.2256,0.2256,0.2282,0.2356,0.0,0.2397,0.2603,0.2713,0.0,0.0,0.0,0.0,0.3493,0.3764,0.3904,0.4108,0.4384,0.4543,0.4621,0.4701,0.4675,0.4484,0.4297,0.4142,0.3889,0.3549,0.3332,0.3175,0.0,0.0,0.0,0.0,0.0,0.0,0.0,0.0,0.0,0.0,0.0,0.0,0.0,0.0,0.0,0.0,0.0,0.0,0.0,0.0,0.0,0.0,0.0,0.0,0.0,0.0,0.0,0.0,-0.2668,-0.2699,-0.2659,-0.272,-0.2774,0.0,0.0,0.0,0.0,0.0,0.0,-0.2217,-0.2198,-0.2186,-0.2187,-0.1858,-0.1747,-0.1635,-0.1461,-0.1328,-0.1337,-0.1367,-0.1386,-0.1393,-0.1393,-0.1393,-0.1393,-0.1393,-0.1298,-0.1194,-0.1201,-0.1075,-0.0824,-0.0808,-0.0509,0.0,0.0,0.0,0.0,0.0,0.0,0.0,0.0,0.0277,0.0619,0.0757,0.0,0.0,0.0,0.0,0.1217,0.1442,0.162,0.1879,0.2196,0.2351,0.2426,0.2426,0.2651,0.2748,0.0,0.2747,0.2969,0.3102,0.0,0.0,0.0,0.0,0.3711,0.3964,0.411,0.4392,0.4701,0.4779,0.4859,0.5018,0.4934,0.4753,0.4483,0.4372,0.4143,0.3788,0.361,0.345,0.3291,0.0,0.0,0.0,0.0,0.0,0.0,0.0,0.0,0.0,0.0,0.0,0.0,0.0,0.0,0.0,0.0,0.0,0.0,0.0,0.0,0.0,0.0,0.0,0.0,0.0,0.0,0.0,0.0,0.0,-0.2801,-0.296,0.0,0.0,0.0,0.0,-0.2771,-0.278,-0.2633,-0.2395,-0.2405,-0.2461,-0.2579,-0.2101,-0.188,-0.2008,-0.1627,-0.14,-0.1429,-0.1459,-0.1489,-0.1517,-0.1517,-0.1517,-0.1517,-0.1517,-0.1206,-0.0802,-0.1109,-0.0827,-0.0081,-0.0081,-0.0,0.0,0.0,0.0,0.0,0.0,0.0,0.0,0.0,0.0296,0.0653,0.1161,0.1235,0.0,0.0,0.1184,0.129,0.1787,0.1907,0.2114,0.2578,0.2674,0.2674,0.2674,0.3007,0.317,0.0,0.2902,0.3195,0.3199,0.0,0.3522,0.3607,0.3774,0.3964,0.4059,0.4465,0.4698,0.4701,0.4859,0.5018,0.5018,0.5012,0.4955,0.4758,0.4711,0.4539,0.43,0.404,0.3745,0.3465,0.3293,0.0,0.0,0.0,0.0,0.0,0.0,0.0,0.0,0.0,0.0,0.0,0.0,0.0,0.0,0.0,0.0,0.0,0.0,0.0,0.0,0.0,0.0,0.0,0.0,0.0,0.0,0.0,0.0,-0.3266,-0.3259,0.0,-0.3424,-0.3465,-0.3302,-0.3013,-0.3064,-0.2882,-0.2534,-0.2574,-0.2632,-0.2715,-0.2239,-0.2103,-0.2149,-0.1645,-0.1483,-0.1494,-0.1505,-0.1515,-0.1526,-0.1526,-0.1526,-0.1526,-0.1526,-0.123,-0.0746,-0.1195,-0.0793,0.0,0.0,0.0,0.0,0.0,0.0,0.0,0.0,0.0,0.0,0.0,0.0323,0.0722,0.1203,0.1284,0.1284,0.1284,0.1291,0.1383,0.1803,0.1982,0.208,0.2603,0.2692,0.2692,0.2692,0.311,0.3328,0.314,0.3441,0.3685,0.3685,0.3764,0.3854,0.3885,0.4048,0.4304,0.4424,0.4752,0.4965,0.5052,0.5124,0.5097,0.5023,0.5018,0.4966,0.4841,0.4719,0.4651,0.4417,0.4156,0.4014,0.3869,0.3674,0.3462,0.0,0.0,0.0,0.0,0.0,0.0,0.0,0.0,0.0,0.0,0.0,0.0,0.0,0.0,0.0,0.0,0.0,0.0,0.0,0.0,0.0,0.0,0.0,0.0,0.0,0.0,-0.3738,-0.3633,-0.3615,-0.3591,-0.3707,-0.3746,-0.3567,-0.3246,-0.3301,-0.3099,-0.2719,-0.276,-0.2809,-0.2871,-0.2457,-0.2214,-0.2245,-0.1812,-0.1541,-0.1541,-0.1552,-0.1557,-0.1557,-0.1557,-0.1557,-0.1557,-0.1557,-0.126,-0.077,-0.0867,-0.0558,0.0,0.0,0.0,0.0,0.0,0.0,0.0,0.0,0.0,0.0,0.0,0.017,0.059,0.1179,0.1348,0.1348,0.1348,0.1355,0.1447,0.1871,0.2053,0.215,0.2668,0.2753,0.2753,0.2753,0.3095,0.3437,0.3437,0.3736,0.4036,0.4036,0.4036,0.4034,0.4118,0.4367,0.4615,0.4785,0.5032,0.5253,0.5257,0.5211,0.5156,0.508,0.504,0.4982,0.4901,0.4781,0.4659,0.4607,0.4341,0.42,0.4118,0.3879,0.3697,0.3413,0.0,0.0,0.0,0.0,0.0,0.0,0.0,0.0,0.0,0.0,0.0,0.0,0.0,0.0,0.0,0.0,0.0,0.0,0.0,0.0,0.0,0.0,0.0,-0.4038,-0.4021,-0.3976,-0.3927,-0.3876,-0.391,-0.3912,-0.3995,-0.3916,-0.3566,-0.3485,-0.3371,-0.3047,-0.2961,-0.2989,-0.3144,-0.2577,-0.2293,-0.2295,-0.185,-0.1573,-0.1573,-0.1603,-0.1617,-0.1617,-0.1617,-0.1617,-0.1617,-0.1617,-0.13,-0.0786,-0.0197,0.0,0.0,0.0,0.0,0.0,0.0,0.0,0.0,0.0,0.0,0.0,0.0,0.0,0.0169,0.1099,0.1353,0.1352,0.1352,0.1371,0.148,0.2002,0.2124,0.2339,0.2789,0.288,0.288,0.288,0.3238,0.3593,0.3593,0.3823,0.4046,0.4044,0.4044,0.4126,0.4373,0.4543,0.0,0.5043,0.5296,0.5379,0.5374,0.5265,0.5192,0.5186,0.5083,0.5018,0.5018,0.4901,0.4779,0.4731,0.4604,0.4357,0.4121,0.3884,0.3708,0.3423,0.0,0.0,0.0,0.0,0.0,0.0,0.0,0.0,0.0,0.0,0.0,0.0,0.0,0.0,0.0,0.0,0.0,0.0,0.0,0.0,0.0,0.0,-0.4656,-0.4496,-0.4313,-0.426,-0.4365,-0.4229,-0.4116,-0.4181,-0.4271,-0.4091,-0.3714,-0.3721,-0.3552,-0.3118,-0.3118,-0.3052,-0.3113,-0.2726,-0.2548,-0.2385,-0.2099,-0.1805,-0.1605,-0.1613,-0.1617,-0.1617,-0.1617,-0.1617,-0.1617,-0.1617,-0.1511,-0.1303,-0.0401,0.0,0.0,0.0,0.0,0.0,0.0,0.0,0.0,0.0,0.0,0.0,0.0,0.0,0.0092,0.0738,0.1187,0.1444,0.1444,0.145,0.1547,0.2093,0.2218,0.244,0.2908,0.3001,0.3001,0.3001,0.3376,0.3752,0.3752,0.404,0.4304,0.4238,0.4226,0.4316,0.4579,0.4752,0.0,0.5277,0.5457,0.56,0.551,0.539,0.5284,0.5195,0.5083,0.5018,0.5018,0.4901,0.4779,0.4731,0.4604,0.4357,0.4121,0.4053,0.3958,0.0,0.0,0.0,0.0,0.0,0.0,0.0,0.0,0.0,0.0,0.0,0.0,0.0,0.0,0.0,0.0,0.0,0.0,0.0,0.0,0.0,0.0,-0.4776,-0.4955,-0.5089,-0.4856,-0.4702,-0.4725,-0.4539,-0.4403,-0.4404,-0.4461,-0.4342,-0.4046,-0.3859,-0.3678,-0.3319,-0.3248,-0.318,-0.3214,-0.2935,-0.2758,-0.2478,-0.217,-0.1964,-0.1654,-0.1654,-0.1654,-0.1654,-0.1654,-0.1647,-0.1636,-0.1636,-0.1628,-0.1516,-0.0909,-0.0505,0.0,0.0,0.0,0.0,0.0,0.0,0.0,0.0,0.0,0.0,0.0,0.0,0.0095,0.0668,0.1135,0.15,0.15,0.15,0.1593,0.2156,0.227,0.248,0.2955,0.3144,0.3144,0.3144,0.3431,0.3815,0.3815,0.4154,0.0,0.4371,0.4324,0.4389,0.4746,0.4921,0.5099,0.5463,0.5644,0.5706,0.5635,0.5518,0.5396,0.5273,0.5156,0.0,0.0,0.0,0.4833,0.4731,0.4604,0.0,0.0,0.0,0.4083,0.4009,0.0,0.0,0.0,0.2926,0.2859,0.0,0.0,0.0,0.0,0.0,0.0,0.0,0.0,0.0,0.0,0.0,0.0,0.0,0.0,0.0,0.0,-0.5069,-0.5246,-0.5673,-0.5484,-0.5207,-0.5034,-0.4869,-0.478,-0.4579,-0.4596,-0.4538,-0.4322,-0.4039,-0.3877,-0.3643,0.0,0.0,0.0,0.0,-0.2878,-0.2664,-0.2345,-0.2131,-0.1704,-0.1704,-0.1704,-0.1704,-0.1704,-0.169,-0.1667,-0.1667,-0.1652,-0.1626,-0.1623,-0.1316,-0.0808,-0.0303,-0.0101,0.0,0.0,0.0,0.0,0.0,0.0,0.0,0.0,0.0,0.0096,0.0672,0.115,0.1627,0.1531,0.1531,0.1627,0.2107,0.2301,0.2401,0.2974,0.307,0.307,0.307,0.3454,0.3839,0.3839,0.4214,0.4559,0.4467,0.4375,0.4489,0.4921,0.501,0.5191,0.5644,0.5733,0.5733,0.5733,0.0,0.0,0.5379,0.5257,0.5137,0.5023,0.5004,0.4898,0.4756,0.4556,0.4444,0.4344,0.4232,0.4178,0.4178,0.394,0.3703,0.3518,0.3297,0.3162,0.0,0.0,0.0,0.0,0.0,0.0,0.0,0.0,0.0,0.0,0.0,0.0,0.0,0.0,0.0,-0.5127,-0.5401,-0.5627,-0.5722,-0.5786,-0.5709,-0.5265,-0.517,-0.4949,-0.4681,-0.4745,-0.4692,-0.4412,-0.417,-0.3904,-0.3711,-0.3466,-0.3395,-0.3395,-0.33,-0.3199,-0.2878,-0.2664,-0.2345,-0.2131,0.0,0.0,-0.1704,-0.1704,-0.1701,-0.1696,-0.1696,-0.1692,-0.1686,-0.1663,-0.1536,-0.1415,-0.0808,-0.0404,0.0,0.0,0.0,0.0,0.0,0.0,0.0,0.0,0.0,0.01,0.06,0.1187,0.0,0.1563,0.1563,0.1661,0.1953,0.2173,0.2496,0.2795,0.2996,0.3196,0.3196,0.3593,0.3992,0.3992,0.4337,0.4653,0.4561,0.4469,0.4565,0.4933,0.501,0.5191,0.5644,0.5733,0.5733,0.5733,0.5624,0.5502,0.5379,0.5257,0.5137,0.5023,0.4923,0.4849,0.48,0.4681,0.4679,0.4657,0.4632,0.455,0.4618,0.4526,0.4372,0.4222,0.3626,0.3299,0.0,0.0,0.0,0.0,0.0,0.0,0.0,0.0,0.0,0.0,0.0,-0.4924,0.0,0.0,-0.5252,-0.5431,-0.5613,-0.5798,-0.5975,-0.6102,-0.5987,-0.5504,-0.5356,-0.5114,-0.4767,-0.4851,-0.4802,-0.4702,-0.4368,-0.4098,-0.3993,-0.3634,-0.3454,-0.3454,-0.3484,-0.339,-0.3061,-0.2952,-0.2624,-0.2188,-0.2078,-0.1859,-0.175,-0.175,-0.1741,-0.1727,-0.1727,-0.1718,-0.1703,-0.1689,-0.1666,-0.1639,-0.1332,-0.1019,-0.0808,-0.0505,-0.0202,0.0,0.0,0.0,0.0,0.0,0.0,0.0,0.0303,0.1004,0.1594,0.1594,0.1594,0.1694,0.1893,0.2206,0.2422,0.2725,0.3027,0.323,0.323,0.3632,0.4033,0.4033,0.4403,0.473,0.4596,0.4534,0.4642,0.4945,0.501,0.5191,0.5644,0.5733,0.5733,0.5733,0.5678,0.5594,0.5469,0.5292,0.5137,0.5023,0.4958,0.4898,0.4836,0.4776,0.4716,0.4726,0.4726,0.4726,0.4726,0.4726,0.4579,0.4354,0.3983,0.3662,0.0,0.0,0.0,0.0,0.0,0.0,0.0,0.0,-0.5075,-0.5182,-0.5313,-0.5362,-0.5347,-0.5455,-0.5518,-0.5763,-0.5822,-0.5939,-0.6227,-0.6287,-0.6105,-0.5618,-0.5517,-0.5351,-0.4828,-0.4918,-0.4971,-0.4971,-0.4652,-0.439,-0.4283,-0.3808,-0.3623,-0.3514,-0.3561,-0.3475,-0.325,-0.3137,-0.2802,-0.2355,-0.2244,-0.2132,-0.1907,-0.1795,-0.1782,-0.1759,-0.1759,-0.1741,-0.1713,-0.1713,-0.1696,-0.167,-0.167,-0.1652,-0.1523,-0.1113,-0.0707,-0.0303,-0.0101,0.0,0.0,0.0,0.0,0.0,0.0,0.0707,0.1516,0.1617,0.1617,0.1617,0.1819,0.2121,0.2423,0.2623,0.2927,0.313,0.323,0.3531,0.3934,0.4033,0.4435,0.468,0.4602,0.4573,0.4697,0.4952,0.501,0.5191,0.5644,0.5733,0.5733,0.5733,0.5733,0.5676,0.5529,0.5311,0.5137,0.5023,0.5018,0.4974,0.4874,0.4868,0.4822,0.4727,0.4724,0.4724,0.4724,0.4724,0.4648,0.4499,0.4281,0.4052,-0.3733,-0.4027,-0.427,-0.4398,-0.4655,-0.4916,0.0,0.0,-0.5744,-0.5762,-0.5725,-0.5736,-0.5976,-0.5857,-0.5771,-0.6007,-0.6138,-0.6222,-0.6263,-0.6355,-0.6318,-0.6024,-0.5722,-0.5425,-0.4832,-0.4918,-0.4971,-0.4971,-0.4809,-0.4575,-0.4361,-0.4099,-0.3801,-0.3576,-0.3583,-0.3587,-0.3587,-0.325,-0.3025,-0.3026,-0.2467,-0.2132,-0.2132,-0.1907,-0.1793,-0.179,-0.179,-0.1773,-0.1744,-0.1744,-0.1727,-0.1699,-0.1699,-0.1682,-0.1654,-0.1525,-0.1516,-0.1313,-0.0303,0.0,0.0,0.0,0.0,0.0,0.0,0.0404,0.101,0.1516,0.1617,0.1617,0.1617,0.1819,0.2121,0.2422,0.2623,0.2927,0.313,0.3432,0.3736,0.3932,0.4236,0.4485,0.4604,0.4573,0.4697,0.4952,0.501,0.5191,0.5644,0.5733,0.5733,0.5733,0.5733,0.564,0.5409,0.5265,0.5137,0.5023,0.5018,0.5012,0.4996,0.4996,0.4991,0.4977,0.4977,0.4977,0.4977,0.4977,0.4977,0.4897,0.4506,0.4225,-0.4259,-0.4448,0.0,0.0,-0.5031,-0.5386,-0.5592,-0.5947,-0.6214,-0.6299,-0.6172,-0.6153,-0.6164,-0.6073,-0.5994,0.0,-0.6236,-0.629,-0.6358,-0.6407,-0.6337,-0.6042,-0.5739,-0.5459,-0.5218,-0.5101,-0.5073,-0.5126,-0.4922,-0.4768,-0.4659,-0.4244,-0.3924,-0.3813,-0.3699,-0.3587,-0.3587,-0.3475,-0.325,-0.3137,-0.2802,-0.2579,-0.2244,-0.2132,-0.1908,-0.1795,-0.1795,-0.1788,-0.1776,-0.1776,-0.1758,-0.1731,-0.1731,-0.1712,-0.1683,-0.1654,-0.1633,-0.1516,-0.1111,-0.0505,0.0,0.0,0.0,0.0,0.0,0.0202,0.0505,0.1314,0.1617,0.1617,0.1617,0.1819,0.2021,0.2321,0.2623,0.2826,0.313,0.3433,0.3635,0.3932,0.4236,0.4485,0.4604,0.4573,0.4697,0.4777,0.4921,0.5191,0.5644,0.5733,0.5733,0.5733,0.5733,0.5662,0.5488,0.5363,0.5243,0.5124,0.5053,0.5018,0.5018,0.5018,0.5018,0.5018,0.5018,0.5018,0.5018,0.5018,0.5018,0.5018,0.4621,0.4361,-0.473,0.0,0.0,-0.5173,-0.547,-0.5859,-0.6123,-0.6459,-0.68,-0.6822,-0.6656,-0.6497,-0.645,-0.6267,-0.6176,-0.6295,-0.6314,-0.6342,-0.6426,-0.6437,-0.6337,-0.6139,-0.5837,-0.559,-0.5521,-0.5282,-0.5145,-0.5237,-0.5105,-0.5043,-0.4929,-0.4372,-0.4148,-0.4038,-0.3701,-0.3587,-0.3587,-0.3587,-0.3475,-0.325,-0.3137,-0.2914,-0.2467,-0.2244,-0.2132,-0.1907,-0.1795,-0.1795,-0.1795,-0.1795,-0.1782,-0.1762,-0.1762,-0.1744,-0.1714,-0.1694,-0.1667,-0.164,-0.1633,-0.112,-0.0407,-0.0101,0.0,0.0,0.0,0.0,0.0202,0.0909,0.1415,0.1617,0.1617,0.1718,0.192,0.2221,0.2522,0.2725,0.3029,0.3331,0.3534,0.3835,0.4135,0.4287,0.4506,0.4571,0.4606,0.469,0.4837,0.5102,0.5552,0.5644,0.5733,0.5733,0.5733,0.5684,0.5475,0.5469,0.5352,0.5197,0.5108,0.505,0.5018,0.5018,0.5018,0.5018,0.5018,0.5018,0.5018,0.5018,0.4937,0.4937,0.4543,0.4384,0.0,0.0,-0.5438,-0.5613,-0.6052,-0.6505,-0.6691,-0.7181,-0.7573,-0.7577,-0.7111,-0.6871,-0.6912,-0.6649,-0.6298,-0.6412,-0.6431,-0.6431,-0.6437,-0.6437,-0.6437,-0.6437,-0.5937,-0.572,0.0,-0.5424,-0.5145,-0.5237,-0.5331,-0.5268,-0.4931,-0.4592,-0.4369,-0.4038,-0.3701,-0.3587,-0.3587,-0.3587,-0.3587,-0.3587,-0.325,-0.3137,-0.3026,-0.2467,-0.2244,-0.2132,-0.1908,-0.1795,-0.1795,-0.1795,-0.1794,-0.1793,-0.1793,-0.1775,-0.1748,-0.1747,-0.1727,-0.1697,-0.167,-0.1557,-0.1345,-0.0305,0.0,0.0,0.0,0.0,0.0,0.0,0.0808,0.1617,0.1617,0.1617,0.1718,0.1921,0.2222,0.2522,0.2725,0.3027,0.3331,0.3534,0.3833,0.4084,0.4218,0.4381,0.4606,0.469,0.4661,0.4837,0.5371,0.5552,0.5733,0.5733,0.5733,0.5684,0.5475,0.5462,0.5442,0.5203,0.5184,0.5132,0.5021,0.5018,0.5018,0.5018,0.5018,0.5018,0.5018,0.5018,0.4937,0.4701,0.4462,0.4309,0.0,0.0,-0.5956,-0.6127,-0.6591,-0.6977,-0.7073,-0.726,-0.7448,-0.7448,-0.7171,-0.6938,-0.6887,-0.6693,-0.6496,-0.6418,-0.6437,-0.6437,-0.6437,-0.6437,-0.6437,-0.6437,-0.6002,0.0,0.0,0.0,0.0,-0.5324,-0.5363,-0.5382,-0.5268,-0.4931,-0.4594,-0.4369,-0.4036,-0.3813,-0.3587,-0.3587,-0.3587,-0.3587,-0.325,-0.3137,-0.3137,-0.2692,-0.2581,-0.2581,-0.2469,-0.2357,-0.2356,-0.2132,-0.202,-0.202,-0.1907,-0.1789,-0.178,-0.178,-0.1774,-0.1757,-0.1707,-0.169,-0.158,-0.1242,-0.0617,0.0,0.0,0.0,0.0,0.0,0.0303,0.0707,0.1415,0.1617,0.1718,0.1921,0.2021,0.2222,0.2725,0.2826,0.3029,0.3534,0.3635,0.3804,0.4193,0.4321,0.4416,0.469,0.4837,0.5013,0.5371,0.5463,0.5552,0.5644,0.5733,0.5716,0.5676,0.551,0.543,0.5434,0.5352,0.5254,0.5135,0.5129,0.5094,0.5018,0.5018,0.5018,0.5018,0.4859,0.4779,0.4701,0.4389,0.4191,-0.5902,-0.6201,-0.64,-0.6669,-0.7025,-0.7276,-0.7321,-0.7466,-0.7512,-0.7461,-0.7267,-0.7018,-0.6917,-0.6718,-0.6526,-0.6451,-0.6377,-0.6391,-0.6431,-0.6437,-0.6437,-0.6437,-0.6139,-0.5942,0.0,0.0,0.0,-0.5369,-0.5382,-0.5382,-0.5382,-0.5043,-0.4817,-0.4592,-0.437,-0.4036,-0.3701,-0.3701,-0.3699,-0.3587,-0.3362,-0.325,-0.325,-0.3027,-0.2805,-0.2805,-0.2693,-0.2693,-0.2693,-0.2469,-0.2356,-0.2356,-0.2244,-0.2132,-0.2132,-0.202,-0.1908,-0.19,-0.1737,-0.172,-0.1716,-0.1686,-0.1153,-0.0522,-0.0103,0.0,0.0,0.0,0.0,0.0202,0.1111,0.1415,0.1617,0.1819,0.1921,0.2122,0.2424,0.2624,0.2927,0.323,0.3433,0.3714,0.3936,0.4124,0.4202,0.4455,0.4589,0.4832,0.5191,0.528,0.5371,0.5552,0.5552,0.5644,0.5733,0.5662,0.551,0.5467,0.5477,0.5379,0.5257,0.5252,0.5216,0.5143,0.5099,0.4999,0.5001,0.48,0.4623,0.4467,0.4272,0.4084,-0.645,-0.674,-0.6948,-0.7224,-0.7327,-0.7495,-0.7641,-0.7702,-0.775,-0.7614,-0.7389,-0.7192,0.0,0.0,-0.649,-0.6617,-0.6454,-0.6306,-0.6412,-0.6431,-0.6439,0.0,0.0,0.0,0.0,0.0,0.0,-0.5487,0.0,-0.5382,-0.5382,-0.5043,-0.4931,-0.4929,-0.4704,-0.4369,-0.4036,-0.4038,-0.3924,-0.3587,-0.3587,-0.3587,-0.3587,-0.325,-0.3137,-0.3137,-0.2805,-0.2693,-0.2693,-0.2693,-0.2693,-0.2693,-0.2693,-0.2693,-0.2693,-0.2356,-0.2244,-0.2239,-0.1872,-0.1861,-0.1747,-0.1716,-0.1707,-0.1489,-0.0418,-0.0,0.0,0.0,0.0,0.0101,0.0606,0.1212,0.1617,0.1617,0.1819,0.2022,0.2022,0.2424,0.2725,0.2826,0.323,0.3613,0.3546,0.3803,0.3981,0.3977,0.4182,0.4482,0.4921,0.501,0.5099,0.5371,0.5371,0.5463,0.5644,0.5644,0.5596,0.548,0.5472,0.5507,0.5382,0.5379,0.5377,0.5371,0.5254,0.5117,0.4879,0.477,0.4484,0.4097,0.419,0.391,-0.6863,-0.7143,-0.7376,-0.7564,-0.7687,-0.7707,-0.7763,-0.7614,-0.7475,-0.7438,-0.7245,-0.7111,0.0,0.0,0.0,-0.6484,-0.6492,0.0,-0.6306,-0.6382,0.0,0.0,0.0,-0.6384,-0.6383,-0.6277,0.0,0.0,-0.5491,-0.5382,-0.5382,-0.527,-0.5156,-0.4929,-0.4817,-0.4706,-0.437,-0.4148,-0.3924,-0.3924,-0.3699,-0.3587,-0.3587,-0.3475,-0.3475,-0.3475,-0.3363,-0.3365,-0.3365,-0.3139,-0.3027,-0.3027,-0.2805,-0.2693,-0.2693,-0.2581,-0.2581,-0.2579,-0.2233,-0.2007,-0.1778,-0.1748,-0.1738,-0.1733,-0.1383,-0.0629,0.0,0.0,0.0,0.0,0.0202,0.0909,0.1617,0.1617,0.1617,0.1718,0.1921,0.2123,0.2323,0.2725,0.323,0.3613,0.3546,0.3696,0.394,0.3885,0.3994,0.4284,0.4757,0.4748,0.4837,0.5102,0.5099,0.5099,0.5191,0.5371,0.545,0.5419,0.5598,0.5545,0.5248,0.5243,0.5119,0.487,0.4841,0.4829,0.4746,0.4552,0.4371,0.4209,0.3987,0.3785,-0.7341,-0.7701,-0.7913,-0.8007,-0.8056,-0.799,-0.7924,-0.7578,-0.7251,-0.719,-0.7054,0.0,0.0,0.0,0.0,0.0,0.0,0.0,-0.6452,-0.6564,-0.6584,0.0,-0.6626,0.0,-0.6531,-0.6538,-0.6383,0.0,-0.5712,-0.5491,-0.5382,-0.5382,-0.527,-0.5156,-0.5156,-0.4931,-0.4704,-0.437,-0.4258,-0.4258,-0.4035,-0.4033,-0.4033,-0.4033,-0.4033,-0.4033,0.0,-0.3813,-0.3701,-0.3474,-0.3362,-0.325,-0.3141,-0.3141,-0.3029,-0.2917,-0.2917,-0.2805,-0.258,-0.2356,-0.2129,-0.1886,-0.177,-0.1764,-0.1733,-0.1285,-0.0741,-0.0417,-0.0206,0.0,0.0,0.0404,0.0909,0.1212,0.1415,0.1617,0.1819,0.1921,0.2122,0.2523,0.2927,0.3219,0.3185,0.3452,0.3713,0.3676,0.3798,0.4012,0.4244,0.4441,0.4569,0.4835,0.4835,0.4924,0.501,0.5099,0.5191,0.5191,0.5371,0.5341,0.51,0.5097,0.4983,0.4839,0.4794,0.4688,0.46,0.4305,0.4114,0.403,0.3733,0.3521,-0.7801,-0.8231,-0.8425,-0.8407,-0.829,-0.8129,-0.8041,-0.7587,-0.7159,-0.7015,0.0,-0.6698,-0.6698,-0.6635,-0.6595,-0.6653,0.0,-0.6747,-0.6605,-0.6738,-0.677,-0.6705,-0.6832,-0.6741,-0.664,-0.6756,-0.6604,-0.6386,-0.6047,-0.5824,-0.5493,-0.5493,-0.5493,-0.5493,-0.5382,-0.5268,-0.4931,-0.4704,-0.4592,-0.4592,-0.448,-0.448,-0.448,-0.448,-0.448,-0.4479,-0.4147,-0.4036,-0.4036,-0.3811,-0.3699,-0.3699,-0.3699,-0.3699,-0.3699,-0.3362,-0.325,-0.3138,-0.2917,-0.2806,-0.2693,-0.2132,-0.1907,-0.1902,-0.1874,-0.1862,-0.163,-0.1055,-0.0625,-0.0207,-0.0,0.0,0.0101,0.0606,0.1111,0.1617,0.1617,0.1819,0.2021,0.2321,0.2523,0.2725,0.2725,0.3087,0.3349,0.3349,0.3586,0.3733,0.3733,0.397,0.4318,0.4501,0.4578,0.4659,0.4832,0.4921,0.4921,0.4921,0.5008,0.501,0.4921,0.4921,0.4921,0.4832,0.475,0.4535,0.4357,0.4108,0.3817,0.3646,0.3457,0.3141,-0.8543,-0.8704,-0.8696,-0.8567,-0.8413,-0.821,-0.7915,-0.7698,0.0,0.0,0.0,-0.6943,-0.6943,-0.6802,0.0,-0.6592,0.0,0.0,0.0,0.0,-0.7072,0.0,0.0,0.0,0.0,0.0,0.0,0.0,0.0,-0.6381,-0.6163,-0.6163,-0.6049,-0.5712,-0.5491,-0.5382,-0.527,-0.5043,-0.4817,-0.4817,-0.4592,-0.448,-0.448,-0.448,-0.448,-0.448,-0.448,0.0,-0.4369,-0.4369,-0.4369,-0.4369,-0.4369,-0.4369,-0.4257,-0.3923,-0.3813,-0.3813,-0.325,-0.3026,-0.3027,-0.2692,-0.2356,-0.213,-0.2125,-0.1991,-0.1748,-0.1629,-0.1487,-0.1142,-0.0207,0.0,0.0,0.0101,0.0909,0.1617,0.1617,0.1617,0.1718,0.2021,0.2322,0.2422,0.2422,0.2515,0.261,0.261,0.2965,0.3222,0.3222,0.3584,0.3864,0.3866,0.3987,0.4036,0.4125,0.448,0.4748,0.4748,0.4924,0.4921,0.4748,0.4567,0.43,0.4125,0.3931,0.3835,0.3746,0.3732,0.3548,0.328,0.3114,0.2943,-0.9155,-0.9257,-0.9263,-0.918,-0.8893,-0.8583,-0.8236,0.0,0.0,0.0,0.0,-0.682,-0.682,0.0,0.0,0.0,0.0,0.0,0.0,0.0,0.0,0.0,0.0,0.0,0.0,0.0,0.0,0.0,0.0,-0.7049,-0.6386,-0.6274,-0.6274,-0.6049,-0.5938,-0.5828,-0.5828,-0.5489,-0.5375,-0.5375,-0.5041,-0.4931,-0.4931,-0.4931,-0.4931,-0.4931,-0.4817,-0.4704,-0.4704,-0.4592,-0.448,-0.448,-0.448,-0.448,-0.4479,-0.437,-0.4258,-0.4258,-0.3921,-0.3698,-0.3587,-0.3365,-0.2918,-0.2469,-0.2469,-0.2231,-0.1991,-0.1974,-0.1837,-0.1594,-0.0939,-0.0619,-0.0307,-0.0101,0.0404,0.0808,0.1111,0.1415,0.1617,0.1718,0.1919,0.2019,0.2019,0.222,0.2422,0.2422,0.2603,0.2688,0.2688,0.2914,0.3123,0.3617,0.376,0.3812,0.3771,0.3946,0.4123,0.4123,0.421,0.421,0.4123,0.4034,0.3855,0.3767,0.3497,0.3406,0.3406,0.3139,0.296,0.2871,0.269,0.2512,-0.953,-0.9694,-0.9664,-0.9626,-0.9353,-0.8886,-0.8715,-0.8048,0.0,0.0,-0.684,-0.6648,-0.6648,0.0,0.0,0.0,0.0,0.0,0.0,0.0,0.0,0.0,0.0,0.0,0.0,0.0,0.0,0.0,0.0,-0.7604,-0.6609,-0.6497,-0.6386,-0.6386,-0.6386,-0.6274,-0.6274,-0.6049,-0.5935,-0.5935,-0.5714,-0.5605,-0.5605,-0.5605,-0.5605,-0.5605,-0.5268,-0.5154,-0.5154,-0.4929,-0.4927,-0.4927,-0.4815,-0.4815,-0.4815,-0.4592,-0.4592,-0.4592,-0.448,-0.4369,-0.4148,-0.4148,-0.3477,-0.2806,-0.2806,-0.258,-0.235,-0.2319,-0.2084,-0.1846,-0.1685,-0.125,-0.0827,-0.0304,-0.0202,-0.0,0.0505,0.0909,0.1313,0.1415,0.1415,0.1415,0.1617,0.1919,0.222,0.222,0.222,0.222,0.222,0.229,0.2532,0.3293,0.3441,0.34,0.3435,0.3416,0.3408,0.3408,0.3408,0.3408,0.3408,0.3408,0.3408,0.3408,0.3138,0.2959,0.3048,0.2691,0.2424,0.2424,0.2243,0.1885,-0.9783,-0.9779,-0.9722,-0.9557,-0.9339,-0.9078,-0.873,0.0,0.0,-0.772,-0.7244,-0.6901,-0.6901,-0.6757,0.0,0.0,0.0,-0.7521,0.0,0.0,0.0,0.0,0.0,0.0,0.0,0.0,0.0,0.0,0.0,-0.7823,-0.7496,-0.6937,-0.6715,-0.6715,-0.6383,-0.6274,-0.6274,-0.6274,-0.6274,-0.6274,-0.6274,-0.6163,-0.6163,-0.6163,-0.6163,-0.6163,-0.6163,-0.6163,0.0,-0.6163,-0.6163,-0.6049,-0.5824,-0.571,-0.5599,-0.5041,-0.4817,-0.4817,-0.4592,-0.4479,-0.448,-0.448,-0.3808,-0.3026,-0.3026,-0.2915,-0.2692,-0.2688,-0.2435,-0.2069,-0.1816,-0.1577,-0.1344,-0.0812,-0.0707,-0.0606,-0.0,0.0101,0.0303,0.0808,0.0909,0.101,0.1516,0.1617,0.1718,0.1718,0.1718,0.1718,0.1718,0.2016,0.2197,0.235,0.2553,0.2678,0.2674,0.2899,0.2957,0.2957,0.2957,0.2957,0.2957,0.2691,0.2603,0.2603,0.2423,0.2333,0.2513,0.2424,0.2334,0.2243,0.1436,0.0807,-1.0596,-1.0481,-1.0276,-1.0195,-0.9819,-0.9313,-0.895,0.0,0.0,-0.7739,-0.7403,-0.7211,-0.7133,-0.6983,-0.6989,0.0,-0.7395,0.0,0.0,0.0,0.0,0.0,0.0,0.0,0.0,0.0,0.0,0.0,-0.8706,-0.8374,-0.8156,-0.7712,-0.749,-0.749,-0.7382,-0.7271,-0.7051,-0.6937,-0.6715,-0.6495,-0.6386,-0.6274,-0.6274,-0.6274,-0.6274,-0.6274,-0.6274,-0.6274,0.0,-0.6274,-0.6274,-0.6274,-0.6161,-0.6049,-0.6049,-0.5826,-0.5714,-0.5714,-0.5375,-0.515,-0.5037,-0.4815,-0.4369,-0.3921,-0.3699,-0.3363,-0.2915,-0.2915,-0.2679,-0.2435,-0.2284,-0.1909,-0.1554,-0.1336,-0.1323,-0.1212,-0.101,-0.0707,-0.0404,-0.0202,-0.0101,0.0101,0.0303,0.0505,0.0707,0.0909,0.0909,0.101,0.1111,0.1212,0.1511,0.18,0.222,0.2437,0.2407,0.2451,0.2511,0.2601,0.2601,0.2601,0.2511,0.2333,0.2334,0.2334,0.2243,0.1974,0.1525,0.1166,0.0897,0.0897,0.0359,-0.0179,-1.1004,-1.0778,-1.0544,-1.0544,-1.008,-0.9581,0.0,0.0,-0.8487,-0.7912,-0.7667,-0.749,-0.7346,-0.7324,-0.7337,-0.7526,-0.7749,-0.7885,0.0,0.0,0.0,0.0,0.0,0.0,0.0,0.0,0.0,0.0,-0.9261,-0.9037,-0.8927,-0.8709,-0.8377,-0.8045,-0.8045,-0.7934,-0.7715,-0.749,-0.7265,-0.7046,-0.6937,-0.6829,-0.6829,-0.6829,-0.6829,-0.6829,-0.6829,-0.6717,0.0,-0.672,-0.6606,-0.6606,-0.6495,-0.6383,-0.6383,-0.6274,-0.6274,-0.6274,-0.6047,-0.5822,-0.5599,-0.5264,-0.5039,-0.4702,-0.4372,-0.3923,-0.3473,-0.3362,-0.3129,-0.2777,-0.2634,-0.2246,-0.1881,-0.1881,-0.1864,-0.1846,-0.1835,-0.1527,-0.122,-0.1011,-0.0909,-0.0808,-0.0808,-0.0606,-0.0404,-0.0202,0.0,0.0202,0.0303,0.0404,0.0606,0.0909,0.1374,0.1718,0.1965,0.2017,0.1988,0.2065,0.1974,0.1794,0.1525,0.1525,0.1525,0.1525,0.1525,0.1256,0.0718,0.0,-0.0448,-0.0628,-0.0897,-0.1256,-1.0481,-1.0476,-1.0476,-1.0476,-1.0115,-0.9765,0.0,0.0,-0.8602,-0.8602,-0.8082,-0.7666,-0.7666,-0.7578,-0.7578,-0.7774,-0.8,-0.8242,0.0,0.0,0.0,0.0,0.0,0.0,0.0,0.0,0.0,0.0,-0.9816,0.0,-0.9816,-0.9816,-0.9261,-0.8045,-0.8045,-0.8045,-0.8045,-0.8045,-0.8045,-0.7934,-0.7934,-0.7934,-0.7934,-0.7934,-0.7934,-0.7934,-0.7934,-0.7826,0.0,-0.7607,-0.7382,-0.7154,-0.6824,-0.6715,-0.6715,-0.6386,-0.6274,-0.6274,-0.6274,-0.6274,-0.6274,-0.5935,-0.5596,-0.5371,-0.5041,-0.4704,-0.4369,-0.4036,-0.3548,-0.3064,-0.2735,-0.2591,-0.2558,-0.2558,-0.2556,-0.2544,-0.2289,-0.2177,-0.2063,-0.1622,-0.1617,-0.1617,-0.1617,-0.1617,-0.1617,-0.1617,-0.1111,-0.0808,-0.0808,-0.0606,-0.0505,-0.0505,-0.0199,0.0389,0.1433,0.1404,0.1376,0.1437,0.0987,0.0538,0.0,0.0,0.0,0.0,0.0,0.0,0.0,-0.0628,-0.1436,-0.2154,-0.2334,-0.2601,-1.0789,-1.0709,-1.0571,-1.0571,-1.025,-0.9893,-0.9723,-0.9231,-0.8766,-0.8548,-0.8328,-0.808,-0.7818,-0.7872,-0.8076,-0.8383,-0.8461,-0.8609,0.0,0.0,0.0,0.0,0.0,0.0,0.0,0.0,0.0,-1.0692,-1.0472,-1.0363,-1.0147,-0.9926,-0.9596,-0.9261,-0.9261,-0.904,-0.8592,-0.8592,-0.8374,-0.8045,-0.8045,-0.8045,-0.8045,-0.8045,-0.8045,-0.8045,-0.8045,-0.7934,-0.7826,-0.7826,-0.7823,-0.7709,-0.7601,-0.7601,-0.7601,-0.7274,-0.7163,-0.7163,-0.6717,-0.6604,-0.6495,-0.6272,-0.6049,-0.6047,-0.5938,-0.5264,-0.4479,-0.437,-0.4242,-0.4003,-0.389,-0.3733,-0.347,-0.3252,-0.3009,-0.2767,-0.2539,-0.243,-0.2418,-0.2271,-0.2263,-0.2151,-0.2124,-0.212,-0.2119,-0.2018,-0.1817,-0.1817,-0.1917,-0.1817,-0.1817,-0.1817,-0.1706,-0.1092,0.039,0.0382,0.0375,0.0459,0.0275,0.0,-0.0448,-0.0807,-0.1166,-0.1525,-0.1525,-0.1525,-0.1615,-0.1884,-0.2242,-0.2689,-0.2689,-0.2959,0.0,-1.0838,-1.0704,-1.0704,-1.0439,0.0,0.0,-0.945,-0.9062,-0.8682,-0.8583,-0.846,-0.8207,-0.8339,-0.8525,-0.8938,-0.8913,0.0,0.0,0.0,0.0,0.0,0.0,0.0,0.0,0.0,0.0,-1.1455,-1.124,-1.1021,-1.0802,-1.0582,-1.0472,-1.0472,-1.0036,-0.9592,-0.9258,-0.9258,-0.9037,-0.8709,-0.8709,-0.8709,-0.8709,-0.8709,-0.8598,-0.8488,-0.8488,-0.8377,0.0,-0.8156,-0.8156,-0.8045,-0.8045,-0.8045,-0.7934,-0.7826,-0.7715,-0.7715,-0.7268,-0.7157,-0.716,-0.6715,-0.6495,-0.6274,-0.6274,-0.5601,-0.4814,-0.4814,-0.4702,-0.448,-0.448,-0.4335,-0.4082,-0.397,-0.3721,-0.347,-0.3341,-0.3228,-0.3211,-0.3049,-0.3022,-0.2996,-0.2757,-0.2737,-0.2623,-0.2623,-0.2623,-0.2623,-0.2724,-0.2724,-0.2724,-0.2724,-0.2623,-0.2109,-0.1191,-0.0975,-0.0956,-0.0937,-0.0836,-0.1012,-0.1362,-0.1622,-0.1885,-0.2154,-0.2243,-0.2243,-0.2334,-0.2512,-0.278,-0.3136,-0.3227,-0.351,0.0,0.0,0.0,0.0,0.0,0.0,0.0,-0.97,0.0,-0.9023,-0.8878,-0.8886,-0.8819,-0.8868,-0.9019,-0.95,-0.9437,0.0,0.0,0.0,0.0,0.0,0.0,0.0,0.0,0.0,-1.2114,-1.2114,-1.1787,-1.1678,-1.1678,-1.1678,-1.1678,-1.1678,-1.0582,-0.9926,-0.9926,-0.9926,-0.9926,-0.9816,-0.9816,-0.9816,-0.9816,-0.9816,-0.9706,0.0,-0.9379,-0.9154,-0.8595,-0.8595,-0.8374,-0.8156,-0.8156,-0.8045,-0.8045,-0.8045,-0.8045,-0.8045,-0.8045,-0.8045,-0.7934,-0.7376,-0.6826,-0.6386,-0.6386,-0.5935,-0.5483,-0.5483,-0.5037,-0.4592,-0.4592,-0.4592,-0.4592,-0.459,-0.459,-0.4573,-0.4507,-0.4383,-0.4359,-0.4068,-0.3893,-0.3847,-0.353,-0.3376,-0.3338,-0.3338,-0.3334,-0.323,-0.323,-0.323,-0.323,-0.323,-0.3027,-0.2927,-0.2927,-0.2584,-0.244,-0.2394,-0.2255,-0.2323,-0.2505,-0.2456,-0.2339,-0.2249,-0.2246,-0.2333,-0.2333,-0.2778,-0.3229,-0.3685,-0.3866,-0.418,-1.0732,0.0,-1.067,-1.067,-1.0661,-1.0638,0.0,-1.0106,-0.9859,0.0,0.0,-0.9566,-0.9315,-0.9588,-0.9886,-0.9863,-1.022,0.0,0.0,0.0,0.0,0.0,0.0,0.0,0.0,0.0,-1.2989,-1.2989,-1.2767,-1.255,-1.255,-1.2332,-1.2114,-1.1896,-1.1673,-1.124,-1.0802,-1.0798,-1.0582,-1.0147,-1.0147,-1.0036,-0.9816,-0.9816,-0.9816,-0.9706,-0.9706,-0.9596,-0.9482,-0.9482,-0.9482,-0.9375,-0.9154,-0.9047,-0.9044,-0.8598,-0.8374,-0.8374,-0.8045,-0.8045,-0.7934,-0.7823,-0.7712,-0.7601,-0.7601,-0.6937,-0.6049,-0.6049,-0.5938,-0.5826,-0.5826,-0.5826,-0.5824,-0.5599,-0.5373,-0.5144,-0.4793,-0.4568,-0.4543,-0.4575,-0.4545,-0.462,-0.4771,-0.4688,-0.4528,-0.4321,-0.4172,-0.4034,-0.3833,-0.3831,-0.3831,-0.3831,-0.3731,-0.3731,-0.3731,-0.2914,-0.2387,-0.2438,-0.2329,-0.2308,-0.237,-0.2507,-0.2662,-0.2846,-0.3074,-0.3229,-0.3229,-0.3408,-0.3616,-0.3945,-0.4221,-0.4545,-1.0609,-1.062,-1.06,-1.0735,-1.0838,-1.0854,0.0,0.0,0.0,0.0,0.0,0.0,-1.004,0.0,0.0,0.0,0.0,0.0,0.0,0.0,0.0,0.0,0.0,0.0,0.0,0.0,-1.3851,-1.3851,-1.3532,-1.3315,-1.3315,-1.2985,-1.2767,-1.255,-1.255,-1.2223,-1.135,-1.1345,-1.1131,-1.0911,-1.0911,-1.0802,-1.0582,-1.0582,-1.0472,-1.0253,-1.0253,-1.0033,-0.9816,-0.9816,-0.9816,-0.9816,-0.9596,-0.9596,-0.9596,-0.9261,-0.9151,-0.904,-0.8709,-0.8488,-0.8263,-0.8263,-0.8156,-0.8045,-0.8045,-0.7604,-0.7049,-0.6826,-0.6495,-0.6274,-0.6274,-0.6274,-0.6274,-0.6049,-0.5935,-0.571,-0.5601,-0.5377,-0.5361,-0.5424,-0.549,-0.5443,-0.5609,-0.5519,-0.5435,-0.5182,-0.5133,-0.4985,-0.474,-0.4734,-0.4734,-0.4734,-0.4636,-0.4535,-0.4535,-0.393,-0.3413,-0.318,-0.3153,-0.3025,-0.2995,-0.3127,-0.3282,-0.3376,-0.3618,-0.3783,-0.3873,-0.3873,-0.4079,-0.4493,-0.4682,-0.5014,-1.0608,-1.067,-1.0773,-1.1027,-1.1086,-1.1182,0.0,0.0,0.0,0.0,0.0,0.0,0.0,0.0,0.0,0.0,0.0,0.0,0.0,0.0,0.0,0.0,0.0,0.0,0.0,-1.4922,-1.4708,-1.4708,-1.4175,-1.3856,-1.3856,-1.364,-1.3532,-1.3532,-1.3532,-1.2985,-1.1896,-1.1896,-1.1787,-1.1787,-1.1787,-1.1678,-1.1678,-1.1568,-1.135,-1.0802,0.0,0.0,-1.0033,-1.0033,-1.0033,-1.0033,-0.9926,-0.9926,-0.9926,-0.9816,-0.9816,-0.9816,-0.9489,-0.9154,-0.8706,-0.8706,-0.8488,-0.8266,-0.8266,-0.8156,-0.8042,-0.7487,-0.7049,-0.6606,-0.6606,-0.6606,-0.6606,-0.6606,-0.6497,-0.6497,-0.6497,-0.6497,-0.6497,-0.6497,-0.6421,-0.6354,-0.6354,-0.637,-0.6265,-0.6066,-0.6036,-0.5987,-0.5773,-0.5761,-0.5754,-0.5636,-0.5438,-0.534,-0.524,-0.5035,-0.4734,-0.4234,-0.4072,-0.3932,-0.392,-0.396,-0.4017,-0.4005,-0.4005,-0.4098,-0.4282,-0.4282,-0.4575,-0.5063,-0.5158,-0.5403,-1.109,-1.1429,-1.1618,-1.1479,-1.1623,-1.1842,0.0,0.0,0.0,0.0,0.0,0.0,0.0,0.0,0.0,0.0,0.0,0.0,0.0,0.0,0.0,0.0,0.0,0.0,-1.5731,-1.5565,-1.5351,-1.5351,-1.5035,-1.4821,-1.4821,-1.4713,-1.4606,-1.439,-1.439,-1.4067,-1.3423,-1.3098,-1.2881,-1.2663,-1.2441,-1.2114,-1.1896,-1.1678,-1.1568,-1.1459,0.0,-1.1459,-1.135,-1.135,-1.135,-1.124,-1.0802,-1.0582,-1.0472,-1.0036,-0.9816,-0.9816,-0.9706,-0.9706,-0.9592,-0.9592,-0.9596,-0.9485,-0.9265,-0.904,-0.8702,-0.8374,-0.8045,-0.7712,-0.7712,-0.7712,-0.7712,-0.7712,-0.7604,-0.7385,-0.7385,-0.7271,-0.7157,-0.7385,-0.7368,-0.7465,-0.7683,-0.7683,-0.7481,-0.7248,-0.7155,-0.6936,-0.6608,-0.6489,-0.635,-0.5952,-0.5942,-0.5741,-0.5536,-0.5536,-0.5436,-0.5336,-0.4724,-0.4288,-0.4219,-0.4204,-0.4359,-0.448,-0.4478,-0.4666,-0.4851,-0.4851,-0.5086,-0.5463,-0.5654,-0.6005,-1.1522,-1.1859,-1.214,-1.2185,-1.233,-1.2437,0.0,0.0,0.0,0.0,0.0,0.0,0.0,0.0,0.0,0.0,0.0,0.0,0.0,0.0,0.0,0.0,0.0,0.0,-1.6586,-1.653,-1.6311,-1.6199,-1.5891,-1.5678,-1.5678,-1.5571,-1.5357,-1.5137,-1.5137,-1.4821,-1.4396,-1.4283,-1.3856,-1.3098,-1.2989,-1.2767,-1.2659,-1.255,-1.2332,-1.2005,0.0,-1.1896,-1.1568,-1.1568,-1.1568,-1.1568,-1.124,-1.124,-1.1131,-1.0692,-1.0363,-1.0257,-1.0143,-0.9926,-0.9816,-0.9816,-0.9816,-0.9816,-0.9706,-0.9485,-0.9368,-0.9261,-0.8598,-0.8045,-0.8045,-0.8045,-0.8045,-0.8045,-0.7934,-0.7826,-0.7826,-0.7712,-0.7712,-0.7826,-0.7826,-0.7826,-0.7934,-0.7993,-0.7926,-0.7747,-0.7681,-0.749,-0.7258,-0.7243,-0.709,-0.6856,-0.6844,-0.6712,-0.6442,-0.6437,-0.6234,-0.5636,-0.5236,-0.5018,-0.4973,-0.4971,-0.5051,-0.5105,-0.5105,-0.5201,-0.5296,-0.5296,-0.552,-0.577,-0.6062,-0.6289,-1.2026,-1.2413,-1.2734,-1.3157,0.0,0.0,0.0,0.0,0.0,0.0,0.0,0.0,0.0,0.0,0.0,0.0,0.0,0.0,0.0,0.0,0.0,0.0,0.0,-1.7144,-1.7437,-1.7384,-1.7279,-1.7054,-1.6743,-1.6537,-1.6537,-1.6324,-1.6099,-1.5773,-1.5773,-1.5672,-1.5363,-1.5256,-1.4713,-1.3748,-1.364,-1.3527,-1.3532,-1.3423,-1.3098,-1.2659,-1.2659,-1.2332,-1.2005,-1.2005,-1.2005,-1.2005,-1.1787,-1.1678,-1.1568,-1.135,-1.1131,-1.0911,-1.0692,-1.0472,-1.0253,-1.0143,-1.0143,-1.0036,-0.9926,-0.9926,-0.9926,-0.9816,-0.9151,-0.8377,-0.8377,-0.8377,-0.8377,-0.8377,-0.8377,-0.8377,-0.8377,-0.8377,-0.8377,-0.8377,-0.8377,-0.8377,-0.8377,-0.8377,-0.8449,-0.8339,-0.8323,-0.8275,-0.8136,-0.8117,-0.8062,-0.7714,-0.7698,-0.7642,-0.7299,-0.7256,-0.6836,-0.6037,-0.5837,-0.5734,-0.5737,-0.5636,-0.5636,-0.5636,-0.5636,-0.5636,-0.5737,-0.5734,-0.5939,-0.6242,-0.6439,-0.6739,-1.278,-1.3289,-1.3798,-1.4503,-1.4314,0.0,0.0,0.0,0.0,0.0,0.0,0.0,0.0,0.0,0.0,0.0,0.0,0.0,0.0,0.0,0.0,0.0,0.0,-1.7959,-1.8262,-1.8122,-1.7911,-1.7911,-1.7694,-1.7378,-1.7173,-1.7073,-1.6961,-1.6624,-1.6624,-1.6524,-1.6217,-1.6217,-1.5791,-1.4826,-1.4606,-1.4385,-1.4169,-1.3856,-1.3537,-1.3207,-1.3207,-1.3207,-1.3207,-1.3207,-1.3207,-1.3098,-1.255,-1.2005,-1.1568,-1.1568,-1.1568,-1.1568,-1.1459,-1.1459,-1.1459,-1.1126,-1.1017,-1.0907,-1.0363,-1.0257,-1.0147,-0.9926,-0.9706,-0.9706,-0.9706,-0.9706,-0.9596,-0.9379,-0.9268,-0.9268,-0.9268,-0.9268,-0.9379,-0.9596,-0.9706,-0.9706,-0.9706,-0.9706,-0.9702,-0.9691,-0.9688,-0.9625,-0.9463,-0.9441,-0.9165,-0.8482,-0.8465,-0.82,-0.7545,-0.7311,-0.7135,-0.7135,-0.6637,-0.6239,-0.5942,-0.5737,-0.5636,-0.5636,-0.5636,-0.5737,-0.5942,-0.6239,-0.6439,-0.6745,-0.7039,-0.7437,-1.3252,-1.3694,-1.4173,-1.5042,0.0,0.0,0.0,0.0,0.0,0.0,0.0,0.0,0.0,0.0,0.0,0.0,0.0,0.0,0.0,0.0,0.0,0.0,-1.8574,-1.8681,-1.8913,-1.9037,-1.8952,-1.8855,-1.8527,-1.8311,-1.8206,-1.8003,-1.7799,-1.7483,-1.7483,-1.7279,-1.6855,-1.6855,-1.6643,-1.6099,-1.5458,-1.503,-1.4713,-1.4611,-1.439,-1.4067,-1.3959,-1.3743,-1.3532,-1.3423,-1.3315,-1.3315,-1.3098,-1.2881,-1.2659,-1.2223,-1.2114,-1.2005,-1.1678,-1.1568,-1.1568,-1.1459,-1.1459,-1.135,-1.1131,-1.1131,-1.1021,-1.0688,-1.0582,-1.0472,-0.9926,-0.9816,-0.9816,-0.9706,-0.9596,-0.9596,-0.9596,-0.9596,-0.9706,-0.9816,-0.9816,-0.9816,-0.9816,-0.9816,-0.9816,-0.9816,-0.9816,-0.9794,-0.973,-0.9719,-0.9548,-0.9169,-0.9071,-0.8949,-0.848,-0.8411,-0.8334,-0.8237,-0.7335,-0.6839,-0.6739,-0.6639,-0.6637,-0.6637,-0.6637,-0.6637,-0.6739,-0.6836,-0.6939,-0.7042,-0.754,-0.7839,-1.3852,-1.432,-1.479,0.0,0.0,0.0,0.0,0.0,0.0,0.0,0.0,0.0,0.0,0.0,0.0,0.0,0.0,0.0,0.0,0.0,0.0,0.0,-1.927,-1.9357,-1.9399,-1.9535,-1.9615,-1.9523,-1.9207,-1.9037,-1.9034,-1.8938,-1.8743,-1.8436,-1.8325,-1.8115,-1.7694,-1.7589,-1.7378,-1.7054,-1.6518,-1.5885,-1.5357,-1.5357,-1.5143,-1.4922,-1.46,-1.4283,-1.4072,-1.3964,-1.3748,-1.3527,-1.3527,-1.3418,-1.3207,-1.2876,-1.2659,-1.2659,-1.2223,-1.2114,-1.2005,-1.1896,-1.1787,-1.1678,-1.1678,-1.1568,-1.1568,-1.135,-1.1283,-1.1219,-1.0671,-1.0338,-1.0132,-1.0181,-1.0081,-1.0081,-1.0081,-1.0081,-1.0177,-1.0128,-1.0227,-1.0208,-1.0154,-1.0143,-1.0253,-1.0253,-1.0253,-1.0363,-1.0363,-1.0363,-1.0206,-0.9981,-0.961,-0.9358,-0.9242,-0.9138,-0.903,-0.8911,-0.8158,-0.7633,-0.7437,-0.7338,-0.7235,-0.7238,-0.7238,-0.7238,-0.7238,-0.7338,-0.7437,-0.7437,-0.8035,-0.8336,-1.4738,-1.5211,0.0,0.0,0.0,0.0,0.0,0.0,0.0,0.0,0.0,0.0,0.0,0.0,0.0,0.0,0.0,0.0,0.0,0.0,0.0,0.0,-1.9722,-1.9773,-1.9844,-1.9576,-1.9512,-1.9853,-1.9698,-1.9641,-1.9657,-1.9672,-1.9576,-1.9272,-1.8945,-1.8826,-1.8826,-1.852,-1.8318,-1.8016,-1.7687,-1.7153,-1.6324,-1.5998,-1.5773,-1.5452,-1.5137,-1.5035,-1.5041,-1.5041,-1.4713,-1.4169,-1.4169,-1.3851,-1.3315,-1.3315,-1.3315,-1.3315,-1.3315,-1.3098,-1.2881,-1.255,-1.2219,-1.2005,-1.1678,-1.1568,-1.1568,-1.1568,-1.1713,-1.1867,-1.1871,-1.1422,-1.1017,-1.0839,-1.0763,-1.0763,-1.0763,-1.0763,-1.0831,-1.1005,-1.0972,-1.0911,-1.0729,-1.0911,-1.1131,-1.1126,-1.135,-1.1568,-1.1568,-1.1568,-1.135,-1.0802,-1.0097,-0.9567,-0.9567,-0.9268,-0.9082,-0.9078,-0.8918,-0.8531,-0.8038,-0.7733,-0.7531,-0.7238,-0.7238,-0.7238,-0.7238,-0.7739,-0.8038,-0.8038,-0.8528,-0.9126,-1.4951,-1.5584,0.0,0.0,0.0,0.0,0.0,0.0,0.0,0.0,0.0,0.0,0.0,0.0,0.0,0.0,0.0,0.0,0.0,0.0,0.0,-2.0446,-2.0416,-2.0431,-2.0239,-2.0391,-2.0491,-2.0403,-2.0125,-2.0083,-2.0079,-2.0108,-2.0039,-1.9735,-1.9869,-1.9783,-1.9465,-1.9133,-1.8723,-1.8327,-1.789,-1.7286,-1.6561,-1.6339,-1.6131,-1.6026,-1.5725,-1.5617,-1.5571,-1.5143,-1.4928,-1.4713,-1.4713,-1.4606,-1.4498,-1.4062,-1.3954,-1.3851,-1.3423,-1.3207,-1.3207,-1.3098,-1.2985,-1.2876,-1.2555,-1.255,-1.2441,-1.2005,-1.2045,-1.2123,-1.2025,-1.2051,-1.2022,-1.1821,-1.1569,-1.1454,-1.1684,-1.1569,-1.1553,-1.1845,-1.1837,-1.1776,-1.1591,-1.1556,-1.162,-1.1476,-1.1568,-1.1568,-1.1568,-1.1568,-1.1568,-1.135,-1.1189,-1.0995,-1.0761,-1.0527,-1.033,-0.9994,-0.9721,-0.9324,-0.8627,-0.8528,-0.8428,-0.8329,-0.8329,-0.8329,-0.8329,-0.8528,-0.8528,-0.8531,-0.9126,-0.9426,-1.5322,0.0,0.0,0.0,0.0,0.0,0.0,0.0,0.0,0.0,0.0,0.0,0.0,0.0,0.0,0.0,0.0,0.0,0.0,0.0,0.0,-2.1024,-2.1046,-2.0902,-2.0701,-2.0823,-2.084,-2.0802,-2.0629,-2.0504,-2.0539,-2.0557,-2.0474,-2.0178,-2.03,-2.021,-1.9899,-1.9491,-1.9092,-1.8792,-1.8302,-1.7839,-1.731,-1.6819,-1.656,-1.656,-1.6164,-1.6012,-1.6045,-1.5623,-1.5476,-1.5357,-1.5357,-1.525,-1.4928,-1.4606,-1.4493,-1.4493,-1.3959,-1.3743,-1.3635,-1.3532,-1.3423,-1.3315,-1.3098,-1.3098,-1.2989,-1.2441,-1.2543,-1.2683,-1.2575,-1.27,-1.2881,-1.252,-1.2255,-1.2138,-1.2372,-1.2255,-1.2117,-1.228,-1.2267,-1.2205,-1.2012,-1.2028,-1.2051,-1.1926,-1.1946,-1.1896,-1.1896,-1.1787,-1.1787,-1.1787,-1.1678,-1.152,-1.141,-1.1221,-1.0919,-1.0617,-1.0436,-0.9995,-0.9422,-0.9126,-0.8928,-0.8825,-0.8825,-0.8825,-0.8825,-0.8928,-0.9027,-0.9126,-0.9525,-0.992,0.0,0.0,0.0,0.0,0.0,0.0,0.0,0.0,0.0,0.0,0.0,0.0,0.0,0.0,0.0,0.0,0.0,0.0,0.0,0.0,0.0,-2.1571,-2.1482,-2.1383,-2.1087,-2.0916,-2.0984,-2.1159,-2.1,-2.0857,-2.0999,-2.1058,-2.0883,-2.0691,-2.0442,-2.0362,-2.0265,-1.9731,-1.9521,-1.9423,-1.8912,-1.8559,-1.8185,-1.7422,-1.7066,-1.6973,-1.65,-1.6354,-1.6388,-1.631,-1.6156,-1.5962,-1.5986,-1.5678,-1.5143,-1.5148,-1.5035,-1.5035,-1.4713,-1.4493,-1.4169,-1.3964,-1.364,-1.3423,-1.3423,-1.3315,-1.3315,-1.2989,-1.3194,-1.3521,-1.3298,-1.3494,-1.3688,-1.296,-1.284,-1.2719,-1.284,-1.2719,-1.2671,-1.2622,-1.2591,-1.2529,-1.2325,-1.2357,-1.2441,-1.2404,-1.2454,-1.2441,-1.2441,-1.2219,-1.2114,-1.2114,-1.1896,-1.1787,-1.1678,-1.1505,-1.1318,-1.1028,-1.0826,-1.0628,-1.0448,-0.9735,-0.9232,-0.8924,-0.8924,-0.8924,-0.8825,-0.913,-0.943,-0.9628,-0.9924,-1.0314,0.0,0.0,0.0,0.0,0.0,0.0,0.0,0.0,0.0,0.0,0.0,0.0,0.0,0.0,0.0,0.0,0.0,0.0,0.0,0.0,0.0,-2.2176,-2.2176,-2.2087,-2.1909,-2.182,-2.1688,-2.1419,-2.1338,-2.1183,-2.0972,-2.127,-2.1351,-2.107,-2.1251,-2.1205,-2.0837,-2.0442,-2.0009,-1.9645,-1.9271,-1.8917,-1.8675,-1.7964,-1.753,-1.7267,-1.7004,-1.6847,-1.682,-1.6645,-1.6568,-1.6541,-1.6548,-1.6411,-1.6311,-1.5891,-1.5678,-1.5678,-1.5143,-1.4928,-1.4821,-1.4719,-1.4498,-1.4283,-1.4062,-1.3851,-1.3537,-1.3315,-1.3527,-1.3868,-1.3873,-1.4083,-1.4411,-1.4172,-1.3688,-1.3204,-1.3444,-1.3324,-1.3191,-1.3393,-1.3384,-1.3437,-1.3236,-1.3145,-1.3228,-1.3113,-1.3128,-1.3098,-1.3098,-1.3098,-1.2985,-1.2985,-1.2989,-1.2881,-1.2663,-1.2476,-1.2124,-1.1544,-1.1209,-1.0891,-1.065,-1.0298,-1.0019,-0.9719,-0.9719,-0.9624,-0.9426,-0.9723,-0.9826,-0.992,-1.0413,-1.0801,0.0,0.0,0.0,0.0,0.0,0.0,0.0,0.0,0.0,0.0,0.0,0.0,0.0,0.0,0.0,0.0,0.0,0.0,0.0,0.0,0.0,-2.2969,-2.2969,-2.2794,-2.2451,-2.2451,-2.2274,-2.1919,-2.1919,-2.1741,-2.1544,-2.1753,-2.169,-2.1416,-2.1511,-2.1432,-2.1162,-2.0761,-2.039,-2.0214,-1.9829,-1.9563,-1.9296,-1.8535,-1.7968,-1.7516,-1.7387,-1.7253,-1.7204,-1.7073,-1.7103,-1.7065,-1.6892,-1.6931,-1.6849,-1.6418,-1.6311,-1.6205,-1.5678,-1.5464,-1.5357,-1.5035,-1.4928,-1.4821,-1.46,-1.439,-1.4067,-1.3851,-1.3889,-1.4071,-1.3957,-1.4235,-1.4513,-1.4624,-1.4172,-1.3928,-1.4052,-1.4047,-1.3928,-1.4052,-1.4172,-1.4138,-1.4025,-1.3857,-1.3605,-1.3386,-1.3315,-1.3315,-1.3315,-1.3315,-1.3315,-1.3315,-1.3315,-1.3207,-1.3098,-1.2999,-1.2777,-1.2351,-1.2135,-1.1821,-1.1327,-1.1211,-1.0807,-1.0216,-1.0216,-1.0117,-1.0019,-1.0117,-1.0216,-1.0413,-1.0801,-1.11,0.0,0.0,0.0,0.0,0.0,0.0,0.0,0.0,0.0,0.0,0.0,0.0,0.0,0.0,0.0,0.0,0.0,0.0,0.0,0.0,0.0,-2.3677,-2.359,-2.3416,-2.2969,-2.2979,-2.2882,-2.2618,-2.2618,-2.253,-2.2274,-2.2274,-2.2097,-2.1909,-2.1651,-2.1571,-2.1482,-2.1114,-2.0925,-2.0835,-2.0654,-2.0292,-2.0019,-1.9188,-1.8542,-1.7908,-1.7908,-1.7777,-1.7558,-1.7512,-1.7556,-1.7516,-1.7408,-1.7295,-1.7312,-1.7035,-1.6948,-1.6842,-1.6318,-1.6105,-1.5998,-1.5464,-1.525,-1.5143,-1.5143,-1.4928,-1.46,-1.4385,-1.4342,-1.4357,-1.4215,-1.4432,-1.4533,-1.4729,-1.477,-1.4677,-1.4634,-1.4655,-1.4655,-1.4655,-1.4619,-1.4584,-1.4543,-1.4315,-1.3902,-1.349,-1.3532,-1.3532,-1.3532,-1.3532,-1.364,-1.364,-1.3532,-1.3532,-1.3423,-1.3423,-1.3234,-1.3042,-1.2991,-1.269,-1.2092,-1.1942,-1.1516,-1.0708,-1.0511,-1.0413,-1.0413,-1.0413,-1.0605,-1.0806,-1.1096,-1.1389,0.0,0.0,0.0,0.0,0.0,0.0,0.0,0.0,0.0,0.0,0.0,0.0,0.0,0.0,0.0,0.0,0.0,0.0,0.0,0.0,0.0,-2.4206,-2.412,-2.4024,-2.3667,-2.3667,-2.358,-2.3416,-2.3329,-2.3232,-2.296,-2.2794,-2.2715,-2.2618,-2.2441,-2.2176,-2.2008,-2.1919,-2.183,-2.1553,-2.1383,-2.1024,-2.0564,-2.0464,-1.992,-1.9004,-1.8542,-1.8381,-1.8357,-1.819,-1.7978,-1.7804,-1.806,-1.7995,-1.786,-1.7809,-1.7694,-1.7477,-1.7173,-1.6849,-1.6624,-1.6518,-1.6205,-1.5785,-1.5785,-1.5357,-1.4934,-1.4928,-1.5001,-1.5192,-1.5232,-1.5317,-1.5512,-1.5546,-1.5324,-1.5095,-1.4687,-1.4655,-1.4655,-1.4655,-1.4493,-1.4412,-1.4458,-1.4204,-1.4051,-1.412,-1.4288,-1.439,-1.439,-1.4606,-1.4719,-1.4719,-1.4606,-1.4283,-1.4062,-1.3856,-1.3521,-1.3275,-1.3082,-1.286,-1.251,-1.2319,-1.2119,-1.1785,-1.1096,-1.0605,-1.0413,-1.0605,-1.0801,-1.0806,-1.1292,-1.1688,0.0,0.0,0.0,0.0,0.0,0.0,0.0,0.0,0.0,0.0,0.0,0.0,0.0,0.0,0.0,0.0,0.0,0.0,0.0,0.0,0.0,-2.4786,-2.4786,-2.47,-2.4433,-2.4433,-2.4272,-2.3937,-2.3851,-2.3764,-2.3493,-2.3406,-2.3319,-2.3319,-2.3144,-2.2969,-2.2891,-2.2627,-2.2353,-2.2087,-2.1919,-2.1651,-2.1463,-2.1203,-2.0564,-1.9563,-1.9371,-1.9096,-1.8827,-1.8621,-1.8509,-1.8429,-1.8518,-1.852,-1.8411,-1.8407,-1.8318,-1.8003,-1.7701,-1.7483,-1.7153,-1.706,-1.6736,-1.6311,-1.6311,-1.6105,-1.5678,-1.5571,-1.5433,-1.5447,-1.5372,-1.5492,-1.5612,-1.5648,-1.5569,-1.5518,-1.527,-1.5087,-1.5087,-1.5203,-1.5117,-1.508,-1.4953,-1.4933,-1.4779,-1.465,-1.4719,-1.4821,-1.4821,-1.4928,-1.5041,-1.5041,-1.4928,-1.4821,-1.4713,-1.4498,-1.4396,-1.4288,-1.4078,-1.3699,-1.3362,-1.2931,-1.2602,-1.2178,-1.155,-1.1194,-1.1096,-1.1194,-1.1292,-1.1292,-1.1785,-1.2175,0.0,0.0,0.0,0.0,0.0,0.0,0.0,0.0,0.0,0.0,0.0,0.0,0.0,0.0,0.0,0.0,0.0,0.0,0.0,0.0,0.0,-2.5443,-2.5443,-2.5359,-2.5115,-2.5031,-2.4871,-2.4454,-2.4454,-2.4368,-2.4186,-2.409,-2.409,-2.409,-2.3841,-2.3677,-2.3677,-2.3232,-2.2969,-2.2706,-2.2539,-2.2451,-2.2362,-2.1919,-2.1293,-2.0555,-2.0201,-1.992,-1.9554,-1.9196,-1.9063,-1.9052,-1.9105,-1.9041,-1.8903,-1.9103,-1.9042,-1.8736,-1.8436,-1.8115,-1.7898,-1.7589,-1.7272,-1.7067,-1.7025,-1.68,-1.6443,-1.6291,-1.6041,-1.5821,-1.5693,-1.5746,-1.5799,-1.5888,-1.5934,-1.5864,-1.5766,-1.5569,-1.5456,-1.5682,-1.5631,-1.5523,-1.5441,-1.5355,-1.5252,-1.5064,-1.5148,-1.525,-1.525,-1.5357,-1.5464,-1.5464,-1.5357,-1.525,-1.525,-1.5035,-1.5041,-1.5041,-1.4821,-1.45,-1.4157,-1.3599,-1.3153,-1.2725,-1.2195,-1.1878,-1.1683,-1.1683,-1.1683,-1.1683,-1.2273,-1.257,0.0,0.0,0.0,0.0,0.0,0.0,0.0,0.0,0.0,0.0,0.0,0.0,0.0,0.0,0.0,0.0,0.0,0.0,0.0,0.0,0.0,-2.6196,-2.6113,-2.5946,-2.5527,-2.5454,-2.5369,-2.52,-2.5115,-2.5115,-2.5115,-2.4946,-2.4861,-2.4861,-2.4368,-2.4206,-2.4206,-2.3937,-2.3667,-2.3416,-2.3416,-2.3319,-2.3057,-2.2803,-2.253,-2.2167,-2.1096,-2.0654,-2.0564,-2.0019,-1.9754,-1.9553,-1.9989,-1.9884,-1.9496,-2.0163,-2.0101,-1.9576,-1.9376,-1.9056,-1.8722,-1.8415,-1.8115,-1.7966,-1.7909,-1.7595,-1.7125,-1.7169,-1.694,-1.663,-1.6643,-1.6643,-1.6649,-1.6668,-1.6468,-1.6186,-1.5804,-1.5682,-1.5682,-1.5682,-1.5595,-1.5424,-1.5412,-1.5212,-1.5053,-1.5041,-1.5464,-1.5891,-1.5891,-1.6311,-1.6624,-1.6624,-1.6205,-1.5891,-1.5891,-1.5357,-1.5041,-1.5041,-1.5035,-1.4933,-1.4687,-1.4419,-1.4061,-1.3817,-1.3274,-1.2662,-1.198,-1.198,-1.198,-1.198,-1.2565,-1.2764,0.0,0.0,0.0,0.0,0.0,0.0,0.0,0.0,0.0,0.0,0.0,0.0,0.0,0.0,0.0,0.0,0.0,0.0,0.0,0.0,0.0,-2.6715,-2.6633,-2.6539,-2.6218,-2.6218,-2.6124,-2.5863,-2.5863,-2.5695,-2.5454,-2.5285,-2.52,-2.5115,-2.4946,-2.4786,-2.4615,-2.4519,-2.4348,-2.4166,-2.4166,-2.4003,-2.3764,-2.358,-2.3319,-2.3057,-2.2353,-2.1731,-2.1114,-2.0736,-2.0464,-2.036,-2.0649,-2.0547,-2.0248,-2.0857,-2.0719,-2.0205,-2.0101,-1.9783,-1.9398,-1.9506,-1.9254,-1.8879,-1.9087,-1.8891,-1.8571,-1.8164,-1.7956,-1.7722,-1.7218,-1.7067,-1.6955,-1.673,-1.663,-1.6474,-1.6343,-1.6175,-1.6181,-1.6284,-1.6306,-1.6239,-1.6239,-1.616,-1.6092,-1.6092,-1.6311,-1.6418,-1.6418,-1.6624,-1.673,-1.673,-1.6518,-1.6418,-1.6418,-1.6205,-1.6092,-1.6092,-1.5891,-1.5749,-1.5765,-1.513,-1.4653,-1.4453,-1.3935,-1.3335,-1.2662,-1.2662,-1.2662,-1.2662,-1.305,-1.3437,-1.4933,0.0,0.0,0.0,0.0,0.0,0.0,0.0,0.0,0.0,0.0,0.0,0.0,0.0,0.0,0.0,0.0,0.0,0.0,0.0,0.0,-2.7301,-2.7231,-2.7138,-2.6962,-2.688,-2.6787,-2.6456,-2.6456,0.0,-2.5874,-2.5874,-2.579,-2.5527,-2.5527,-2.5454,-2.5211,-2.5211,-2.5115,-2.484,-2.484,-2.4765,-2.454,-2.4272,-2.41,-2.3927,-2.3503,-2.2715,-2.183,-2.1553,-2.1275,-2.1077,-2.1258,-2.1198,-2.1009,-2.152,-2.1424,-2.1019,-2.0917,-2.0609,-2.0251,-2.0377,-2.0166,-1.9913,-2.0259,-2.0098,-1.9771,-1.9336,-1.9052,-1.8635,-1.8109,-1.7775,-1.7589,-1.7364,-1.7259,-1.7259,-1.7259,-1.6842,-1.653,-1.663,-1.673,-1.673,-1.6842,-1.6849,-1.6948,-1.6948,-1.7054,-1.716,-1.716,-1.7265,-1.7259,-1.7259,-1.716,-1.716,-1.716,-1.7054,-1.7047,-1.7047,-1.6743,-1.6643,-1.6643,-1.5803,-1.5303,-1.5095,-1.457,-1.4112,-1.3727,-1.3534,-1.3335,-1.3335,-1.3727,-1.4208,0.0,0.0,0.0,0.0,0.0,0.0,0.0,0.0,0.0,0.0,0.0,0.0,0.0,0.0,0.0,0.0,0.0,0.0,0.0,0.0,0.0,0.0,-2.7846,-2.7742,-2.7476,-2.7476,-2.7313,-2.6928,-2.6869,-2.6787,-2.661,-2.6633,-2.6456,-2.6279,-2.6185,-2.6124,-2.5895,-2.5895,-2.5812,-2.5538,-2.5538,-2.5454,-2.5189,-2.5031,-2.4946,-2.4861,-2.4454,-2.3677,-2.2794,-2.2362,-2.2008,-2.1777,-2.1889,-2.1915,-2.1831,-2.2231,-2.221,-2.2123,-2.1827,-2.1522,-2.128,-2.1113,-2.1012,-2.1046,-2.1194,-2.1068,-2.0764,-2.0722,-2.0128,-1.9434,-1.9413,-1.8971,-1.8422,-1.8422,-1.8422,-1.8422,-1.8422,-1.7575,-1.673,-1.673,-1.673,-1.6842,-1.7173,-1.7179,-1.7279,-1.7582,-1.7799,-1.8016,-1.8016,-1.822,-1.8422,-1.8422,-1.822,-1.8016,-1.8016,-1.7799,-1.7582,-1.7582,-1.7378,-1.7285,-1.7285,-1.6414,-1.5903,-1.591,-1.5363,-1.5083,-1.5083,-1.4298,-1.3908,-1.3998,-1.449,-1.4968,-1.4746,0.0,0.0,0.0,0.0,0.0,0.0,0.0,0.0,0.0,0.0,0.0,0.0,0.0,0.0,0.0,0.0,0.0,0.0,0.0,0.0,0.0,-2.742,-2.7268,-2.7026,-2.6884,-2.6818,0.0,-2.6948,-2.692,-2.6657,-2.6909,-2.7021,-2.694,-2.6928,-2.6869,-2.6644,-2.6644,-2.6479,-2.6302,-2.6302,-2.6124,-2.5935,-2.5863,-2.5695,-2.5285,-2.5031,-2.469,-2.4262,-2.3406,-2.2891,-2.2489,-2.2616,-2.2751,-2.2875,-2.2901,-2.2902,-2.2929,-2.2627,-2.2426,-2.2232,-2.2548,-2.2437,-2.2363,-2.2767,-2.2584,-2.2243,-2.1865,-2.1401,-2.0742,-1.9836,-1.933,-1.8959,-1.8743,-1.8639,-1.8527,-1.8422,-1.8108,-1.7898,-1.7793,-1.7793,-1.7687,-1.7483,-1.7793,-1.8115,-1.8318,-1.8429,-1.8534,-1.852,-1.8624,-1.8729,-1.9063,-1.8959,-1.8848,-1.8624,-1.852,-1.8415,-1.8213,-1.8108,-1.8115,-1.8115,-1.7428,-1.7007,-1.682,-1.6222,-1.5825,-1.5642,-1.507,-1.4873,-1.4956,-1.5527,-1.5818,-1.5453,-1.596,0.0,0.0,0.0,0.0,-1.9898,-2.0469,-2.0988,0.0,0.0,0.0,0.0,0.0,0.0,0.0,0.0,0.0,0.0,0.0,0.0,0.0,-2.7496,-2.7372,-2.7211,-2.7061,-2.6911,-2.6836,-2.7059,-2.7091,-2.7148,-2.7284,-2.7462,-2.7592,-2.7603,-2.7522,-2.7313,-2.7313,-2.7219,-2.6962,-2.6962,-2.6869,-2.6599,-2.6528,-2.6373,-2.6052,-2.5779,-2.5527,-2.5359,-2.4594,-2.3917,-2.3261,-2.3241,-2.3424,-2.3701,-2.3569,-2.3639,-2.3935,-2.3628,-2.3429,-2.3252,-2.3617,-2.3648,-2.3589,-2.3903,-2.3904,-2.3599,-2.3027,-2.2241,-2.1404,-2.0439,-1.999,-1.968,-1.9465,-1.9361,-1.9257,-1.9146,-1.9146,-1.8945,-1.8422,-1.8325,-1.8213,-1.8003,-1.8213,-1.8527,-1.8848,-1.9063,-1.916,-1.9257,-1.925,-1.9457,-1.9576,-1.968,-1.9569,-1.9354,-1.9346,-1.9242,-1.9146,-1.9049,-1.8945,-1.8945,-1.8239,-1.7803,-1.7612,-1.6985,-1.6574,-1.6393,-1.5825,-1.573,-1.6109,-1.648,-1.6763,0.0,0.0,0.0,0.0,0.0,0.0,-1.8919,-1.9622,-2.0421,-2.109,0.0,0.0,0.0,0.0,0.0,0.0,0.0,0.0,0.0,0.0,0.0,0.0,0.0,-2.7728,-2.7728,-2.7569,-2.7336,-2.7176,-2.7151,-2.7357,-2.7673,-2.777,-2.7933,-2.8231,-2.8303,-2.8191,-2.7962,-2.7962,-2.7869,-2.7603,-2.7603,-2.751,-2.7267,-2.7126,-2.7056,-2.6974,-2.6539,-2.6362,-2.6279,-2.5779,-2.4946,-2.3927,-2.3754,-2.4019,-2.4506,-2.422,-2.4488,-2.503,-2.4726,-2.443,-2.4262,-2.4508,-2.4542,-2.4579,-2.4772,-2.4879,-2.4691,-2.3996,-2.288,-2.1779,-2.1218,-2.0814,-2.0601,-2.0498,-2.0395,-2.0181,-2.0388,-2.0388,-2.0078,-1.9042,-1.8632,-1.8527,-1.8632,-1.8632,-1.884,-1.9376,-1.9791,-1.9998,-1.9902,-2.0094,-2.0285,-2.0285,-2.0285,-2.0285,-2.0285,-2.0181,-2.0181,-2.0189,-1.999,-1.9761,-1.9723,-1.8929,-1.8481,-1.8444,-1.783,-1.7512,-1.7512,-1.6756,-1.6676,-1.7167,-1.734,-1.7613,0.0,0.0,0.0,0.0,0.0,0.0,-1.8976,-1.9195,-1.9539,0.0,0.0,0.0,0.0,0.0,0.0,0.0,0.0,0.0,0.0,0.0,0.0,0.0,0.0,-2.74,-2.74,-2.7043,-2.6836,-2.6836,-2.7026,-2.7369,-2.7742,-2.8186,-2.8381,-2.8248,-2.8675,-2.8816,-2.8645,-2.8645,-2.8498,-2.8259,-2.8259,-2.8179,-2.8007,-2.7938,-2.7765,-2.736,-2.7267,-2.7033,-2.6715,-2.6456,-2.5779,-2.4946,-2.469,-2.499,-2.5513,-2.5057,-2.5441,-2.611,-2.5606,-2.5314,-2.5115,-2.5198,-2.5154,-2.5043,-2.5113,-2.5153,-2.4975,-2.4165,-2.3427,-2.2714,-2.2325,-2.1937,-2.1632,-2.1522,-2.1113,-2.1019,-2.1928,-2.2131,-2.203,-2.1818,-2.0388,-1.9376,-2.03,-2.0403,-2.0403,-2.0609,-2.1019,-2.1216,-2.0719,-2.0917,-2.1113,-2.1318,-2.142,-2.1318,-2.1113,-2.1113,-2.1011,-2.0712,-2.0712,-2.0484,-2.0194,-1.9787,-1.9443,-1.9081,-1.8941,-1.8819,-1.8819,-1.8079,-1.78,-1.79,-1.8265,-1.855,0.0,0.0,0.0,-1.8125,0.0,0.0,0.0,-1.8953,-1.9121,-1.974,-2.0329,0.0,0.0,0.0,0.0,0.0,0.0,0.0,0.0,0.0,0.0,0.0,0.0,-2.6738,-2.6687,-2.6401,-2.6321,-2.6657,-2.7007,-2.7443,-2.7957,-2.8369,-2.8649,-2.8762,-2.9312,-2.9521,-2.925,-2.925,-2.9184,-2.8961,-2.8961,-2.8803,-2.8657,-2.8566,-2.8407,-2.8155,-2.7926,-2.7765,-2.7534,-2.7185,-2.6775,-2.6279,-2.5622,-2.5636,-2.602,-2.5892,-2.6228,-2.6658,-2.6491,-2.6274,-2.617,-2.6201,-2.6139,-2.5915,-2.604,-2.5816,-2.5303,-2.4794,-2.4188,-2.3586,-2.3382,-2.3038,-2.2644,-2.2535,-2.2535,-2.2736,-2.3247,-2.3447,-2.3447,-2.3447,-2.2535,-2.1717,-2.1733,-2.1733,-2.1733,-2.1733,-2.2232,-2.2535,-2.2526,-2.2224,-2.2224,-2.2426,-2.2526,-2.2426,-2.2325,-2.2325,-2.2224,-2.2131,-2.2123,-2.1963,-2.1486,-2.1214,-2.076,-2.0205,-2.0095,-2.0093,-2.0093,-1.9903,-1.9446,-1.8988,-1.9371,-1.9563,0.0,0.0,0.0,0.0,0.0,-1.8898,0.0,0.0,0.0,-1.9466,0.0,0.0,0.0,0.0,0.0,0.0,0.0,0.0,0.0,0.0,0.0,0.0,-2.6237,-2.6174,-2.6171,-2.5985,-2.6146,-2.6711,-2.7092,-2.7548,-2.7984,-2.8427,-2.8839,-2.9183,-2.9769,-3.0025,-2.9947,-2.9947,-2.9806,-2.9664,-2.9574,-2.9509,-2.9287,-2.9118,-2.9028,-2.8949,-2.8566,-2.8407,-2.8339,-2.7926,-2.7765,-2.7603,-2.655,-2.6264,-2.6476,-2.6788,-2.6992,-2.7175,-2.7453,-2.7326,-2.7102,-2.7288,-2.7107,-2.6873,-2.6932,-2.6394,-2.5724,-2.5724,-2.5079,-2.443,-2.443,-2.4134,-2.3845,-2.3746,-2.4143,-2.4449,-2.4449,-2.4449,-2.4449,-2.4449,-2.4449,-2.4152,-2.3046,-2.2946,-2.2946,-2.2946,-2.3438,-2.3935,-2.4322,-2.3728,-2.332,-2.3619,-2.3619,-2.3619,-2.3619,-2.3619,-2.3619,-2.3619,-2.3547,-2.3332,-2.2955,-2.2479,-2.1913,-2.1266,-2.1347,-2.1356,-2.1356,-2.1624,-2.1168,-2.0167,-2.0464,-2.0555,0.0,0.0,0.0,0.0,-1.9228,0.0,0.0,0.0,-1.9078,-1.915,0.0,0.0,0.0,0.0,0.0,0.0,0.0,0.0,0.0,0.0,0.0,-2.5578,-2.6015,-2.639,-2.6829,-2.6722,-2.6781,-2.7247,-2.7354,-2.752,-2.7855,-2.8368,-2.8808,-2.9171,-2.977,-3.0329,-3.0823,-3.0685,-3.0533,-3.0546,-3.0368,-3.0216,-2.9998,-2.9998,-2.9819,-2.9549,-2.9328,-2.9184,-2.8973,-2.8724,-2.8566,-2.8259,-2.7429,-2.7247,-2.7493,-2.7729,-2.7966,-2.8283,-2.849,-2.8279,-2.7904,-2.7862,-2.7599,-2.7123,-2.7174,-2.678,-2.6373,-2.6373,-2.5936,-2.5499,-2.5499,-2.5499,-2.5304,-2.4833,-2.5137,-2.5538,-2.5538,-2.5538,-2.5538,-2.5538,-2.5538,-2.5245,-2.4152,-2.4053,-2.4053,-2.4053,-2.4824,-2.5499,-2.5499,-2.4992,-2.4698,-2.4698,-2.4698,-2.4698,-2.4698,-2.4698,-2.4698,-2.4698,-2.435,-2.3965,-2.358,-2.2791,-2.2321,-2.2217,-2.2511,-2.2618,-2.2618,-2.2794,-2.2334,-2.1266,-2.1454,-2.1633,0.0,0.0,0.0,0.0,0.0,0.0,-1.9302,0.0,-1.9376,0.0,0.0,0.0,0.0,0.0,0.0,0.0,-2.1329,0.0,0.0,0.0,0.0,0.0,0.0,0.0,-2.573,-2.5992,-2.6403,-2.6919,-2.7469,-2.7822,-2.7826,-2.8597,-2.9308,-2.9854,-3.0312,-3.0838,-3.1508,-3.1299,-3.1136,-3.1061,-3.0973,-3.0823,-3.0609,-3.0609,-3.052,-3.0279,-3.005,-2.9908,-2.9677,-2.9419,-2.9172,-2.8961,-2.8621,-2.8182,-2.7718,-2.7985,-2.8327,-2.8652,-2.897,-2.9056,-2.8828,-2.8549,-2.8258,-2.807,-2.8081,-2.7904,-2.7536,-2.7431,-2.7136,-2.6744,-2.6658,-2.6572,-2.6572,-2.638,-2.6486,-2.6592,-2.6592,-2.6592,-2.6592,-2.6592,-2.6592,-2.6496,-2.61,-2.5518,-2.5049,-2.5049,-2.6177,-2.703,-2.703,-2.6456,-2.6071,-2.6254,-2.6254,-2.6254,-2.6254,-2.6254,-2.6254,-2.6254,-2.5605,-2.5145,-2.4965,-2.4097,-2.3617,-2.3617,-2.3907,-2.4003,-2.4003,-2.4251,-2.4069,-2.3627,-2.3038,-2.2862,-2.2574,0.0,0.0,0.0,0.0,0.0,0.0,0.0,0.0,0.0,0.0,0.0,0.0,0.0,-2.043,-2.043,0.0,-2.1225,0.0,0.0,0.0,0.0,0.0,0.0,0.0,-2.5212,-2.5765,-2.647,-2.7151,-2.7681,-2.8057,-2.8784,-2.957,-3.0296,-3.0773,-3.1243,-3.1852,-3.1869,-3.173,-3.1629,-3.1556,-3.1421,-3.1211,-3.1211,-3.1149,-3.0924,-3.0748,-3.0596,-3.0368,-3.019,-2.996,-2.9741,-2.9741,-2.9172,-2.8443,-2.8586,-2.8689,-2.8905,-2.9341,-2.9495,-2.9488,-2.9235,-2.9095,-2.9073,-2.8962,-2.8837,-2.8528,-2.8202,-2.7957,-2.7774,-2.7598,-2.761,-2.7726,-2.7726,-2.7726,-2.782,-2.7998,-2.8092,-2.8092,-2.8092,-2.8186,-2.8279,-2.8279,-2.7336,-2.6678,-2.686,-2.7799,-2.8362,-2.8373,-2.7799,-2.7421,-2.761,-2.761,-2.761,-2.7704,-2.7704,-2.7746,-2.7609,-2.6939,-2.6441,-2.6313,-2.5518,-2.5084,-2.5084,-2.5274,-2.5359,-2.5359,-2.5527,-2.5611,-2.5622,-2.4519,-2.4079,0.0,0.0,0.0,-2.1311,0.0,0.0,0.0,0.0,-2.0005,0.0,0.0,0.0,0.0,-2.0021,-2.0036,-2.0036,-2.0051,0.0,0.0,0.0,0.0,0.0,0.0,0.0,0.0,-2.4681,-2.5099,-2.6119,-2.6125,-2.6779,-2.8489,-2.8615,-2.908,-3.0192,-3.0846,-3.139,-3.182,-3.2201,-3.2345,-3.2345,-3.22,-3.1996,-3.189,-3.189,-3.1743,-3.1535,-3.136,-3.1272,-3.1272,-3.1048,-3.0836,-3.0622,-3.0444,-3.0216,-2.9984,-2.9677,-2.9386,-2.92,-2.9582,-2.9762,-2.9827,-3.0055,-3.0125,-3.0033,-2.9541,-2.9215,-2.8935,-2.846,-2.8299,-2.8296,-2.8285,-2.8466,-2.8631,-2.8746,-2.8757,-2.9024,-2.9943,-3.0125,-3.0125,-3.0125,-3.051,-3.0883,-3.0883,-2.968,-2.9024,-2.9943,-2.976,-2.9393,-2.9209,-2.8828,-2.8642,-2.8746,-2.8735,-2.8735,-2.9035,-2.9035,-2.8918,-2.8791,-2.8198,-2.7696,-2.7301,-2.6713,-2.6445,-2.6445,-2.6445,-2.6445,-2.6445,-2.6445,-2.6622,-2.6809,-2.5706,-2.5274,0.0,0.0,-2.2874,-2.2434,0.0,0.0,0.0,0.0,0.0,0.0,0.0,0.0,0.0,-2.0323,-2.0323,-2.0323,-2.0323,-2.0381,0.0,0.0,0.0,0.0,0.0,0.0,0.0,0.0,0.0,-2.5966,-2.6385,-2.7227,-2.8613,-2.8911,-2.9665,-3.087,-3.133,-3.1819,-3.2342,-3.2751,-3.2988,-3.2988,-3.2775,-3.2704,-3.2646,-3.2503,-3.2286,-3.2155,-3.2069,-3.1909,-3.185,-3.1656,-3.1508,-3.1272,-3.1048,-3.0898,-3.0622,-2.9942,-2.9849,-3.0084,-3.0309,-3.0278,-3.0204,-3.0102,-3.0075,-3.004,-2.9863,-2.9718,-2.9597,-2.925,-2.9149,-2.9173,-2.9244,-2.9283,-2.9499,-2.9852,-3.0023,-3.0114,-3.0476,-3.1116,-3.1673,-3.1673,-3.1761,-3.195,-3.195,-3.1484,-3.1038,-3.0781,-3.0487,-3.0295,-3.0204,-3.0011,-2.9932,-3.0034,-3.0102,-3.017,-3.0272,-3.0272,-3.0293,-3.0209,-2.9734,-2.9236,-2.8715,-2.8205,-2.7765,-2.7336,-2.7499,-2.7603,-2.7603,-2.7765,-2.7926,-2.8167,-2.7742,-2.7336,-2.5326,-2.456,0.0,-2.3345,-2.29,0.0,-2.1778,0.0,-2.1585,0.0,0.0,0.0,0.0,-2.0494,-2.0494,-2.0494,-2.0494,-2.0494,0.0,-2.0407,0.0,0.0,0.0,0.0,0.0,0.0,-2.3733,-2.5106,-2.5973,-2.6931,0.0,-2.891,-2.9755,-3.0768,-3.1588,-3.2219,-3.2554,-3.3343,-3.3632,-3.3563,-3.3479,-3.3353,-3.3213,-3.3072,-3.2931,-3.2704,-3.2704,-3.2632,-3.2417,-3.23,-3.2155,-3.1836,-3.1776,-3.1556,-3.1259,-3.0495,-3.0265,-3.0514,-3.0667,-3.0622,-3.0413,-3.0418,-3.0467,-3.0443,-3.0248,-3.0187,-3.0056,-2.9779,-2.9687,-2.9845,-2.9759,-2.9942,-3.0307,-3.0749,-3.0962,-3.1181,-3.1371,-3.2013,-3.2562,-3.2636,-3.2636,-3.2636,-3.2636,-3.2636,-3.2376,-3.1484,-3.1282,-3.1181,-3.1181,-3.1104,-3.1104,-3.1181,-3.1347,-3.1436,-3.1536,-3.1613,-3.1613,-3.1613,-3.1231,-3.0797,-3.0447,-2.9928,-2.9374,-2.8819,-2.9071,-2.9065,-2.8882,-2.904,-2.9184,-2.9328,-2.9328,-2.9081]}]]